<?xml version="1.0" encoding="UTF-8" standalone="no" ?>
<gpx xmlns="http://www.topografix.com/GPX/1/1" xmlns:xsi="http://www.w3.org/2001/XMLSchema-instance" xsi:schemaLocation="http://www.topografix.com/GPX/1/1 http://www.topografix.com/GPX/1/1/gpx.xsd" version="1.1" creator="VisuGPX - https://www.visugpx.com">
  <metadata>
    <name>Mini raid Estérel</name>
    <desc><![CDATA[Mini raid organisé par Aurélien et David
VTT, trail, CO
Niko & Tom]]></desc>
  </metadata>
  <trk>
    <name><![CDATA[Mini raid Estérel_1]]></name>
    <trkseg>
      <trkpt lat="43.51357" lon="6.91595">
        <ele>71.7554932</ele>
        <time>2012-03-25T09:46:11+02:00</time>
      </trkpt>
      <trkpt lat="43.51354" lon="6.91596">
        <ele>68.3908691</ele>
        <time>2012-03-25T09:46:15+02:00</time>
      </trkpt>
      <trkpt lat="43.51341" lon="6.91585">
        <ele>68.3908691</ele>
        <time>2012-03-25T09:46:21+02:00</time>
      </trkpt>
      <trkpt lat="43.51326" lon="6.91562">
        <ele>68.3908691</ele>
        <time>2012-03-25T09:46:28+02:00</time>
      </trkpt>
      <trkpt lat="43.51309" lon="6.91534">
        <ele>69.3522949</ele>
        <time>2012-03-25T09:46:36+02:00</time>
      </trkpt>
      <trkpt lat="43.51291" lon="6.91516">
        <ele>70.7941895</ele>
        <time>2012-03-25T09:46:43+02:00</time>
      </trkpt>
      <trkpt lat="43.5127" lon="6.91505">
        <ele>73.6782227</ele>
        <time>2012-03-25T09:46:50+02:00</time>
      </trkpt>
      <trkpt lat="43.51244" lon="6.91489">
        <ele>75.1202393</ele>
        <time>2012-03-25T09:47:00+02:00</time>
      </trkpt>
      <trkpt lat="43.51225" lon="6.91486">
        <ele>76.5621338</ele>
        <time>2012-03-25T09:47:07+02:00</time>
      </trkpt>
      <trkpt lat="43.51207" lon="6.91485">
        <ele>78.0040283</ele>
        <time>2012-03-25T09:47:14+02:00</time>
      </trkpt>
      <trkpt lat="43.5119" lon="6.9149">
        <ele>79.4460449</ele>
        <time>2012-03-25T09:47:21+02:00</time>
      </trkpt>
      <trkpt lat="43.51174" lon="6.91498">
        <ele>82.3300781</ele>
        <time>2012-03-25T09:47:28+02:00</time>
      </trkpt>
      <trkpt lat="43.5116" lon="6.91506">
        <ele>83.2913818</ele>
        <time>2012-03-25T09:47:35+02:00</time>
      </trkpt>
      <trkpt lat="43.51144" lon="6.91514">
        <ele>87.1365967</ele>
        <time>2012-03-25T09:47:43+02:00</time>
      </trkpt>
      <trkpt lat="43.51132" lon="6.91521">
        <ele>90.9819336</ele>
        <time>2012-03-25T09:47:49+02:00</time>
      </trkpt>
      <trkpt lat="43.51119" lon="6.91532">
        <ele>92.904541</ele>
        <time>2012-03-25T09:47:57+02:00</time>
      </trkpt>
      <trkpt lat="43.51105" lon="6.9154">
        <ele>93.3851318</ele>
        <time>2012-03-25T09:48:05+02:00</time>
      </trkpt>
      <trkpt lat="43.51089" lon="6.9155">
        <ele>98.1918945</ele>
        <time>2012-03-25T09:48:14+02:00</time>
      </trkpt>
      <trkpt lat="43.51074" lon="6.91555">
        <ele>100.595093</ele>
        <time>2012-03-25T09:48:22+02:00</time>
      </trkpt>
      <trkpt lat="43.51057" lon="6.91558">
        <ele>102.5177</ele>
        <time>2012-03-25T09:48:31+02:00</time>
      </trkpt>
      <trkpt lat="43.51043" lon="6.91562">
        <ele>102.5177</ele>
        <time>2012-03-25T09:48:39+02:00</time>
      </trkpt>
      <trkpt lat="43.5103" lon="6.91567">
        <ele>101.075684</ele>
        <time>2012-03-25T09:48:47+02:00</time>
      </trkpt>
      <trkpt lat="43.51015" lon="6.91572">
        <ele>101.556396</ele>
        <time>2012-03-25T09:48:56+02:00</time>
      </trkpt>
      <trkpt lat="43.50998" lon="6.91578">
        <ele>104.44043</ele>
        <time>2012-03-25T09:49:06+02:00</time>
      </trkpt>
      <trkpt lat="43.50984" lon="6.91583">
        <ele>107.805054</ele>
        <time>2012-03-25T09:49:14+02:00</time>
      </trkpt>
      <trkpt lat="43.50973" lon="6.91586">
        <ele>109.727661</ele>
        <time>2012-03-25T09:49:21+02:00</time>
      </trkpt>
      <trkpt lat="43.50961" lon="6.91592">
        <ele>110.208252</ele>
        <time>2012-03-25T09:49:29+02:00</time>
      </trkpt>
      <trkpt lat="43.50952" lon="6.91596">
        <ele>111.650269</ele>
        <time>2012-03-25T09:49:35+02:00</time>
      </trkpt>
      <trkpt lat="43.50944" lon="6.91598">
        <ele>112.130981</ele>
        <time>2012-03-25T09:49:40+02:00</time>
      </trkpt>
      <trkpt lat="43.5094" lon="6.91607">
        <ele>113.092285</ele>
        <time>2012-03-25T09:49:46+02:00</time>
      </trkpt>
      <trkpt lat="43.50946" lon="6.91609">
        <ele>114.053589</ele>
        <time>2012-03-25T09:49:50+02:00</time>
      </trkpt>
      <trkpt lat="43.50965" lon="6.91604">
        <ele>115.014893</ele>
        <time>2012-03-25T09:49:59+02:00</time>
      </trkpt>
      <trkpt lat="43.50982" lon="6.91605">
        <ele>114.53418</ele>
        <time>2012-03-25T09:50:05+02:00</time>
      </trkpt>
      <trkpt lat="43.51004" lon="6.91607">
        <ele>113.092285</ele>
        <time>2012-03-25T09:50:12+02:00</time>
      </trkpt>
      <trkpt lat="43.51027" lon="6.91611">
        <ele>112.130981</ele>
        <time>2012-03-25T09:50:20+02:00</time>
      </trkpt>
      <trkpt lat="43.51042" lon="6.91614">
        <ele>113.092285</ele>
        <time>2012-03-25T09:50:26+02:00</time>
      </trkpt>
      <trkpt lat="43.5106" lon="6.91615">
        <ele>114.053589</ele>
        <time>2012-03-25T09:50:33+02:00</time>
      </trkpt>
      <trkpt lat="43.51073" lon="6.91619">
        <ele>115.014893</ele>
        <time>2012-03-25T09:50:39+02:00</time>
      </trkpt>
      <trkpt lat="43.51072" lon="6.91627">
        <ele>115.976196</ele>
        <time>2012-03-25T09:50:43+02:00</time>
      </trkpt>
      <trkpt lat="43.51068" lon="6.91627">
        <ele>116.456787</ele>
        <time>2012-03-25T09:50:45+02:00</time>
      </trkpt>
      <trkpt lat="43.51046" lon="6.91626">
        <ele>119.34082</ele>
        <time>2012-03-25T09:50:54+02:00</time>
      </trkpt>
      <trkpt lat="43.51027" lon="6.91628">
        <ele>122.705444</ele>
        <time>2012-03-25T09:51:02+02:00</time>
      </trkpt>
      <trkpt lat="43.51007" lon="6.9163">
        <ele>124.628052</ele>
        <time>2012-03-25T09:51:10+02:00</time>
      </trkpt>
      <trkpt lat="43.50984" lon="6.91635">
        <ele>125.589355</ele>
        <time>2012-03-25T09:51:19+02:00</time>
      </trkpt>
      <trkpt lat="43.50964" lon="6.91639">
        <ele>127.511963</ele>
        <time>2012-03-25T09:51:27+02:00</time>
      </trkpt>
      <trkpt lat="43.50946" lon="6.91646">
        <ele>129.434692</ele>
        <time>2012-03-25T09:51:35+02:00</time>
      </trkpt>
      <trkpt lat="43.50928" lon="6.91648">
        <ele>130.876709</ele>
        <time>2012-03-25T09:51:42+02:00</time>
      </trkpt>
      <trkpt lat="43.50912" lon="6.91654">
        <ele>132.318604</ele>
        <time>2012-03-25T09:51:48+02:00</time>
      </trkpt>
      <trkpt lat="43.50896" lon="6.91667">
        <ele>134.241211</ele>
        <time>2012-03-25T09:51:56+02:00</time>
      </trkpt>
      <trkpt lat="43.50887" lon="6.91681">
        <ele>135.202515</ele>
        <time>2012-03-25T09:52:02+02:00</time>
      </trkpt>
      <trkpt lat="43.50879" lon="6.91697">
        <ele>136.644653</ele>
        <time>2012-03-25T09:52:09+02:00</time>
      </trkpt>
      <trkpt lat="43.50873" lon="6.91707">
        <ele>137.125244</ele>
        <time>2012-03-25T09:52:15+02:00</time>
      </trkpt>
      <trkpt lat="43.50879" lon="6.91712">
        <ele>137.605835</ele>
        <time>2012-03-25T09:52:20+02:00</time>
      </trkpt>
      <trkpt lat="43.50885" lon="6.917">
        <ele>138.567261</ele>
        <time>2012-03-25T09:52:25+02:00</time>
      </trkpt>
      <trkpt lat="43.50899" lon="6.91682">
        <ele>139.047852</ele>
        <time>2012-03-25T09:52:34+02:00</time>
      </trkpt>
      <trkpt lat="43.50913" lon="6.91674">
        <ele>139.047852</ele>
        <time>2012-03-25T09:52:41+02:00</time>
      </trkpt>
      <trkpt lat="43.50931" lon="6.91672">
        <ele>140.970459</ele>
        <time>2012-03-25T09:52:49+02:00</time>
      </trkpt>
      <trkpt lat="43.50949" lon="6.91671">
        <ele>142.412476</ele>
        <time>2012-03-25T09:52:57+02:00</time>
      </trkpt>
      <trkpt lat="43.50968" lon="6.9167">
        <ele>143.373657</ele>
        <time>2012-03-25T09:53:05+02:00</time>
      </trkpt>
      <trkpt lat="43.50985" lon="6.91672">
        <ele>143.85437</ele>
        <time>2012-03-25T09:53:13+02:00</time>
      </trkpt>
      <trkpt lat="43.51009" lon="6.91677">
        <ele>144.335205</ele>
        <time>2012-03-25T09:53:23+02:00</time>
      </trkpt>
      <trkpt lat="43.51028" lon="6.91682">
        <ele>145.296387</ele>
        <time>2012-03-25T09:53:32+02:00</time>
      </trkpt>
      <trkpt lat="43.51049" lon="6.91684">
        <ele>147.218994</ele>
        <time>2012-03-25T09:53:41+02:00</time>
      </trkpt>
      <trkpt lat="43.51067" lon="6.91683">
        <ele>149.141602</ele>
        <time>2012-03-25T09:53:49+02:00</time>
      </trkpt>
      <trkpt lat="43.51075" lon="6.91685">
        <ele>150.103027</ele>
        <time>2012-03-25T09:53:53+02:00</time>
      </trkpt>
      <trkpt lat="43.51071" lon="6.91692">
        <ele>150.103027</ele>
        <time>2012-03-25T09:53:58+02:00</time>
      </trkpt>
      <trkpt lat="43.51063" lon="6.91691">
        <ele>150.583618</ele>
        <time>2012-03-25T09:54:02+02:00</time>
      </trkpt>
      <trkpt lat="43.51034" lon="6.91691">
        <ele>152.986938</ele>
        <time>2012-03-25T09:54:13+02:00</time>
      </trkpt>
      <trkpt lat="43.51007" lon="6.91695">
        <ele>154.909546</ele>
        <time>2012-03-25T09:54:24+02:00</time>
      </trkpt>
      <trkpt lat="43.5099" lon="6.91697">
        <ele>155.390259</ele>
        <time>2012-03-25T09:54:31+02:00</time>
      </trkpt>
      <trkpt lat="43.50972" lon="6.917">
        <ele>156.351562</ele>
        <time>2012-03-25T09:54:38+02:00</time>
      </trkpt>
      <trkpt lat="43.50957" lon="6.91707">
        <ele>156.832153</ele>
        <time>2012-03-25T09:54:45+02:00</time>
      </trkpt>
      <trkpt lat="43.50943" lon="6.91716">
        <ele>158.27417</ele>
        <time>2012-03-25T09:54:52+02:00</time>
      </trkpt>
      <trkpt lat="43.50929" lon="6.91728">
        <ele>159.716187</ele>
        <time>2012-03-25T09:55:00+02:00</time>
      </trkpt>
      <trkpt lat="43.50922" lon="6.91745">
        <ele>161.158203</ele>
        <time>2012-03-25T09:55:07+02:00</time>
      </trkpt>
      <trkpt lat="43.50922" lon="6.91759">
        <ele>162.600098</ele>
        <time>2012-03-25T09:55:12+02:00</time>
      </trkpt>
      <trkpt lat="43.50925" lon="6.91781">
        <ele>162.600098</ele>
        <time>2012-03-25T09:55:19+02:00</time>
      </trkpt>
      <trkpt lat="43.50927" lon="6.9181">
        <ele>163.080811</ele>
        <time>2012-03-25T09:55:28+02:00</time>
      </trkpt>
      <trkpt lat="43.50928" lon="6.91832">
        <ele>164.042114</ele>
        <time>2012-03-25T09:55:35+02:00</time>
      </trkpt>
      <trkpt lat="43.50926" lon="6.91853">
        <ele>165.484131</ele>
        <time>2012-03-25T09:55:42+02:00</time>
      </trkpt>
      <trkpt lat="43.50919" lon="6.9188">
        <ele>167.406738</ele>
        <time>2012-03-25T09:55:51+02:00</time>
      </trkpt>
      <trkpt lat="43.50913" lon="6.91903">
        <ele>169.329468</ele>
        <time>2012-03-25T09:55:59+02:00</time>
      </trkpt>
      <trkpt lat="43.50909" lon="6.91931">
        <ele>170.771362</ele>
        <time>2012-03-25T09:56:08+02:00</time>
      </trkpt>
      <trkpt lat="43.50909" lon="6.91954">
        <ele>171.732666</ele>
        <time>2012-03-25T09:56:16+02:00</time>
      </trkpt>
      <trkpt lat="43.5091" lon="6.91979">
        <ele>173.174683</ele>
        <time>2012-03-25T09:56:25+02:00</time>
      </trkpt>
      <trkpt lat="43.50909" lon="6.92003">
        <ele>175.09729</ele>
        <time>2012-03-25T09:56:34+02:00</time>
      </trkpt>
      <trkpt lat="43.50905" lon="6.92023">
        <ele>176.058594</ele>
        <time>2012-03-25T09:56:41+02:00</time>
      </trkpt>
      <trkpt lat="43.50896" lon="6.92045">
        <ele>177.981201</ele>
        <time>2012-03-25T09:56:49+02:00</time>
      </trkpt>
      <trkpt lat="43.50885" lon="6.92061">
        <ele>179.903809</ele>
        <time>2012-03-25T09:56:56+02:00</time>
      </trkpt>
      <trkpt lat="43.50874" lon="6.92077">
        <ele>181.345825</ele>
        <time>2012-03-25T09:57:04+02:00</time>
      </trkpt>
      <trkpt lat="43.50859" lon="6.92089">
        <ele>183.749023</ele>
        <time>2012-03-25T09:57:12+02:00</time>
      </trkpt>
      <trkpt lat="43.50842" lon="6.92103">
        <ele>185.671753</ele>
        <time>2012-03-25T09:57:21+02:00</time>
      </trkpt>
      <trkpt lat="43.5083" lon="6.92123">
        <ele>187.11377</ele>
        <time>2012-03-25T09:57:30+02:00</time>
      </trkpt>
      <trkpt lat="43.50822" lon="6.92137">
        <ele>188.075073</ele>
        <time>2012-03-25T09:57:37+02:00</time>
      </trkpt>
      <trkpt lat="43.5081" lon="6.92158">
        <ele>189.997681</ele>
        <time>2012-03-25T09:57:47+02:00</time>
      </trkpt>
      <trkpt lat="43.508" lon="6.92169">
        <ele>190.958984</ele>
        <time>2012-03-25T09:57:54+02:00</time>
      </trkpt>
      <trkpt lat="43.5079" lon="6.92177">
        <ele>192.401123</ele>
        <time>2012-03-25T09:58:00+02:00</time>
      </trkpt>
      <trkpt lat="43.50785" lon="6.92189">
        <ele>194.32373</ele>
        <time>2012-03-25T09:58:08+02:00</time>
      </trkpt>
      <trkpt lat="43.50785" lon="6.92193">
        <ele>194.804321</ele>
        <time>2012-03-25T09:58:10+02:00</time>
      </trkpt>
      <trkpt lat="43.50789" lon="6.92199">
        <ele>194.32373</ele>
        <time>2012-03-25T09:58:14+02:00</time>
      </trkpt>
      <trkpt lat="43.50792" lon="6.92206">
        <ele>193.843018</ele>
        <time>2012-03-25T09:58:17+02:00</time>
      </trkpt>
      <trkpt lat="43.50787" lon="6.92211">
        <ele>193.843018</ele>
        <time>2012-03-25T09:58:22+02:00</time>
      </trkpt>
      <trkpt lat="43.50782" lon="6.92199">
        <ele>193.843018</ele>
        <time>2012-03-25T09:58:27+02:00</time>
      </trkpt>
      <trkpt lat="43.50779" lon="6.92195">
        <ele>193.843018</ele>
        <time>2012-03-25T09:58:29+02:00</time>
      </trkpt>
      <trkpt lat="43.50762" lon="6.92185">
        <ele>193.843018</ele>
        <time>2012-03-25T09:58:36+02:00</time>
      </trkpt>
      <trkpt lat="43.50745" lon="6.92187">
        <ele>194.32373</ele>
        <time>2012-03-25T09:58:42+02:00</time>
      </trkpt>
      <trkpt lat="43.50726" lon="6.92193">
        <ele>195.284912</ele>
        <time>2012-03-25T09:58:49+02:00</time>
      </trkpt>
      <trkpt lat="43.50701" lon="6.92204">
        <ele>195.765625</ele>
        <time>2012-03-25T09:58:58+02:00</time>
      </trkpt>
      <trkpt lat="43.50677" lon="6.92216">
        <ele>197.20752</ele>
        <time>2012-03-25T09:59:07+02:00</time>
      </trkpt>
      <trkpt lat="43.50657" lon="6.92225">
        <ele>198.649536</ele>
        <time>2012-03-25T09:59:15+02:00</time>
      </trkpt>
      <trkpt lat="43.50641" lon="6.92232">
        <ele>199.61084</ele>
        <time>2012-03-25T09:59:21+02:00</time>
      </trkpt>
      <trkpt lat="43.50615" lon="6.92243">
        <ele>202.014282</ele>
        <time>2012-03-25T09:59:31+02:00</time>
      </trkpt>
      <trkpt lat="43.50594" lon="6.92256">
        <ele>202.975464</ele>
        <time>2012-03-25T09:59:39+02:00</time>
      </trkpt>
      <trkpt lat="43.5058" lon="6.92272">
        <ele>207.301392</ele>
        <time>2012-03-25T09:59:46+02:00</time>
      </trkpt>
      <trkpt lat="43.50573" lon="6.92294">
        <ele>207.782104</ele>
        <time>2012-03-25T09:59:53+02:00</time>
      </trkpt>
      <trkpt lat="43.5057" lon="6.92316">
        <ele>206.820679</ele>
        <time>2012-03-25T09:59:59+02:00</time>
      </trkpt>
      <trkpt lat="43.50567" lon="6.92338">
        <ele>206.340088</ele>
        <time>2012-03-25T10:00:06+02:00</time>
      </trkpt>
      <trkpt lat="43.50563" lon="6.92368">
        <ele>205.378784</ele>
        <time>2012-03-25T10:00:14+02:00</time>
      </trkpt>
      <trkpt lat="43.5056" lon="6.92388">
        <ele>204.898071</ele>
        <time>2012-03-25T10:00:20+02:00</time>
      </trkpt>
      <trkpt lat="43.50556" lon="6.92416">
        <ele>204.41748</ele>
        <time>2012-03-25T10:00:26+02:00</time>
      </trkpt>
      <trkpt lat="43.50547" lon="6.92448">
        <ele>203.456177</ele>
        <time>2012-03-25T10:00:31+02:00</time>
      </trkpt>
      <trkpt lat="43.50544" lon="6.92454">
        <ele>202.975464</ele>
        <time>2012-03-25T10:00:32+02:00</time>
      </trkpt>
      <trkpt lat="43.50529" lon="6.92482">
        <ele>201.052856</ele>
        <time>2012-03-25T10:00:36+02:00</time>
      </trkpt>
      <trkpt lat="43.50502" lon="6.92502">
        <ele>198.168945</ele>
        <time>2012-03-25T10:00:40+02:00</time>
      </trkpt>
      <trkpt lat="43.50468" lon="6.925">
        <ele>195.284912</ele>
        <time>2012-03-25T10:00:44+02:00</time>
      </trkpt>
      <trkpt lat="43.50446" lon="6.92483">
        <ele>194.32373</ele>
        <time>2012-03-25T10:00:47+02:00</time>
      </trkpt>
      <trkpt lat="43.50419" lon="6.92455">
        <ele>192.881714</ele>
        <time>2012-03-25T10:00:52+02:00</time>
      </trkpt>
      <trkpt lat="43.50409" lon="6.92443">
        <ele>193.362305</ele>
        <time>2012-03-25T10:00:55+02:00</time>
      </trkpt>
      <trkpt lat="43.50398" lon="6.92428">
        <ele>193.843018</ele>
        <time>2012-03-25T10:01:03+02:00</time>
      </trkpt>
      <trkpt lat="43.50391" lon="6.92418">
        <ele>194.804321</ele>
        <time>2012-03-25T10:01:09+02:00</time>
      </trkpt>
      <trkpt lat="43.50386" lon="6.92412">
        <ele>194.804321</ele>
        <time>2012-03-25T10:01:14+02:00</time>
      </trkpt>
      <trkpt lat="43.50386" lon="6.92411">
        <ele>195.765625</ele>
        <time>2012-03-25T10:01:20+02:00</time>
      </trkpt>
      <trkpt lat="43.50382" lon="6.92404">
        <ele>199.61084</ele>
        <time>2012-03-25T10:01:27+02:00</time>
      </trkpt>
      <trkpt lat="43.50372" lon="6.92391">
        <ele>200.572266</ele>
        <time>2012-03-25T10:01:34+02:00</time>
      </trkpt>
      <trkpt lat="43.5036" lon="6.92375">
        <ele>201.533569</ele>
        <time>2012-03-25T10:01:43+02:00</time>
      </trkpt>
      <trkpt lat="43.5035" lon="6.92358">
        <ele>202.975464</ele>
        <time>2012-03-25T10:01:52+02:00</time>
      </trkpt>
      <trkpt lat="43.50343" lon="6.92345">
        <ele>203.93689</ele>
        <time>2012-03-25T10:01:59+02:00</time>
      </trkpt>
      <trkpt lat="43.50333" lon="6.92332">
        <ele>205.859497</ele>
        <time>2012-03-25T10:02:07+02:00</time>
      </trkpt>
      <trkpt lat="43.50323" lon="6.92319">
        <ele>207.301392</ele>
        <time>2012-03-25T10:02:15+02:00</time>
      </trkpt>
      <trkpt lat="43.50314" lon="6.92309">
        <ele>208.743408</ele>
        <time>2012-03-25T10:02:22+02:00</time>
      </trkpt>
      <trkpt lat="43.50307" lon="6.92303">
        <ele>209.224121</ele>
        <time>2012-03-25T10:02:27+02:00</time>
      </trkpt>
      <trkpt lat="43.50293" lon="6.92299">
        <ele>212.108032</ele>
        <time>2012-03-25T10:02:36+02:00</time>
      </trkpt>
      <trkpt lat="43.50277" lon="6.923">
        <ele>213.069336</ele>
        <time>2012-03-25T10:02:45+02:00</time>
      </trkpt>
      <trkpt lat="43.50262" lon="6.92307">
        <ele>214.991943</ele>
        <time>2012-03-25T10:02:54+02:00</time>
      </trkpt>
      <trkpt lat="43.50249" lon="6.92317">
        <ele>217.395386</ele>
        <time>2012-03-25T10:03:02+02:00</time>
      </trkpt>
      <trkpt lat="43.50235" lon="6.92327">
        <ele>219.317993</ele>
        <time>2012-03-25T10:03:10+02:00</time>
      </trkpt>
      <trkpt lat="43.50213" lon="6.92339">
        <ele>222.201782</ele>
        <time>2012-03-25T10:03:22+02:00</time>
      </trkpt>
      <trkpt lat="43.50199" lon="6.92347">
        <ele>224.124512</ele>
        <time>2012-03-25T10:03:31+02:00</time>
      </trkpt>
      <trkpt lat="43.50187" lon="6.92354">
        <ele>226.047119</ele>
        <time>2012-03-25T10:03:39+02:00</time>
      </trkpt>
      <trkpt lat="43.50175" lon="6.92361">
        <ele>228.450439</ele>
        <time>2012-03-25T10:03:47+02:00</time>
      </trkpt>
      <trkpt lat="43.50166" lon="6.92365">
        <ele>229.892334</ele>
        <time>2012-03-25T10:03:54+02:00</time>
      </trkpt>
      <trkpt lat="43.50157" lon="6.9237">
        <ele>231.334351</ele>
        <time>2012-03-25T10:04:02+02:00</time>
      </trkpt>
      <trkpt lat="43.50145" lon="6.92376">
        <ele>233.25708</ele>
        <time>2012-03-25T10:04:11+02:00</time>
      </trkpt>
      <trkpt lat="43.50135" lon="6.92382">
        <ele>234.218384</ele>
        <time>2012-03-25T10:04:20+02:00</time>
      </trkpt>
      <trkpt lat="43.50125" lon="6.92376">
        <ele>235.179688</ele>
        <time>2012-03-25T10:04:27+02:00</time>
      </trkpt>
      <trkpt lat="43.50116" lon="6.9237">
        <ele>237.102295</ele>
        <time>2012-03-25T10:04:34+02:00</time>
      </trkpt>
      <trkpt lat="43.50105" lon="6.92364">
        <ele>238.063599</ele>
        <time>2012-03-25T10:04:42+02:00</time>
      </trkpt>
      <trkpt lat="43.50098" lon="6.92359">
        <ele>238.544312</ele>
        <time>2012-03-25T10:04:48+02:00</time>
      </trkpt>
      <trkpt lat="43.50088" lon="6.92354">
        <ele>239.024902</ele>
        <time>2012-03-25T10:04:56+02:00</time>
      </trkpt>
      <trkpt lat="43.50078" lon="6.92349">
        <ele>239.024902</ele>
        <time>2012-03-25T10:05:04+02:00</time>
      </trkpt>
      <trkpt lat="43.50071" lon="6.92346">
        <ele>239.024902</ele>
        <time>2012-03-25T10:05:09+02:00</time>
      </trkpt>
      <trkpt lat="43.50057" lon="6.92341">
        <ele>239.986206</ele>
        <time>2012-03-25T10:05:18+02:00</time>
      </trkpt>
      <trkpt lat="43.50046" lon="6.92335">
        <ele>240.467041</ele>
        <time>2012-03-25T10:05:25+02:00</time>
      </trkpt>
      <trkpt lat="43.50042" lon="6.92324">
        <ele>240.467041</ele>
        <time>2012-03-25T10:05:31+02:00</time>
      </trkpt>
      <trkpt lat="43.50041" lon="6.92309">
        <ele>242.389648</ele>
        <time>2012-03-25T10:05:38+02:00</time>
      </trkpt>
      <trkpt lat="43.50035" lon="6.92293">
        <ele>246.234863</ele>
        <time>2012-03-25T10:05:46+02:00</time>
      </trkpt>
      <trkpt lat="43.50024" lon="6.92275">
        <ele>246.715454</ele>
        <time>2012-03-25T10:05:54+02:00</time>
      </trkpt>
      <trkpt lat="43.50012" lon="6.9226">
        <ele>246.234863</ele>
        <time>2012-03-25T10:06:01+02:00</time>
      </trkpt>
      <trkpt lat="43.49998" lon="6.92245">
        <ele>246.234863</ele>
        <time>2012-03-25T10:06:08+02:00</time>
      </trkpt>
      <trkpt lat="43.49988" lon="6.92227">
        <ele>247.196045</ele>
        <time>2012-03-25T10:06:16+02:00</time>
      </trkpt>
      <trkpt lat="43.4998" lon="6.92212">
        <ele>246.715454</ele>
        <time>2012-03-25T10:06:23+02:00</time>
      </trkpt>
      <trkpt lat="43.49976" lon="6.92201">
        <ele>247.676758</ele>
        <time>2012-03-25T10:06:29+02:00</time>
      </trkpt>
      <trkpt lat="43.49972" lon="6.92188">
        <ele>249.118774</ele>
        <time>2012-03-25T10:06:35+02:00</time>
      </trkpt>
      <trkpt lat="43.49968" lon="6.92181">
        <ele>249.118774</ele>
        <time>2012-03-25T10:06:38+02:00</time>
      </trkpt>
      <trkpt lat="43.49956" lon="6.9218">
        <ele>248.638184</ele>
        <time>2012-03-25T10:06:42+02:00</time>
      </trkpt>
      <trkpt lat="43.49938" lon="6.92192">
        <ele>247.196045</ele>
        <time>2012-03-25T10:06:46+02:00</time>
      </trkpt>
      <trkpt lat="43.49907" lon="6.92211">
        <ele>243.831543</ele>
        <time>2012-03-25T10:06:51+02:00</time>
      </trkpt>
      <trkpt lat="43.499" lon="6.92216">
        <ele>243.35083</ele>
        <time>2012-03-25T10:06:52+02:00</time>
      </trkpt>
      <trkpt lat="43.49881" lon="6.92232">
        <ele>240.947632</ele>
        <time>2012-03-25T10:06:55+02:00</time>
      </trkpt>
      <trkpt lat="43.49863" lon="6.92252">
        <ele>238.063599</ele>
        <time>2012-03-25T10:06:59+02:00</time>
      </trkpt>
      <trkpt lat="43.49853" lon="6.92247">
        <ele>236.621704</ele>
        <time>2012-03-25T10:07:01+02:00</time>
      </trkpt>
      <trkpt lat="43.49839" lon="6.92226">
        <ele>234.699097</ele>
        <time>2012-03-25T10:07:04+02:00</time>
      </trkpt>
      <trkpt lat="43.4981" lon="6.92186">
        <ele>233.737671</ele>
        <time>2012-03-25T10:07:10+02:00</time>
      </trkpt>
      <trkpt lat="43.49805" lon="6.92174">
        <ele>234.218384</ele>
        <time>2012-03-25T10:07:12+02:00</time>
      </trkpt>
      <trkpt lat="43.49797" lon="6.92161">
        <ele>234.699097</ele>
        <time>2012-03-25T10:07:15+02:00</time>
      </trkpt>
      <trkpt lat="43.49788" lon="6.92144">
        <ele>235.179688</ele>
        <time>2012-03-25T10:07:19+02:00</time>
      </trkpt>
      <trkpt lat="43.49778" lon="6.92105">
        <ele>236.621704</ele>
        <time>2012-03-25T10:07:27+02:00</time>
      </trkpt>
      <trkpt lat="43.49768" lon="6.92079">
        <ele>237.102295</ele>
        <time>2012-03-25T10:07:33+02:00</time>
      </trkpt>
      <trkpt lat="43.4976" lon="6.9205">
        <ele>237.582886</ele>
        <time>2012-03-25T10:07:39+02:00</time>
      </trkpt>
      <trkpt lat="43.49747" lon="6.9201">
        <ele>237.582886</ele>
        <time>2012-03-25T10:07:46+02:00</time>
      </trkpt>
      <trkpt lat="43.49726" lon="6.9196">
        <ele>237.102295</ele>
        <time>2012-03-25T10:07:56+02:00</time>
      </trkpt>
      <trkpt lat="43.49717" lon="6.91941">
        <ele>237.582886</ele>
        <time>2012-03-25T10:08:00+02:00</time>
      </trkpt>
      <trkpt lat="43.49704" lon="6.9191">
        <ele>239.024902</ele>
        <time>2012-03-25T10:08:08+02:00</time>
      </trkpt>
      <trkpt lat="43.49696" lon="6.91891">
        <ele>240.467041</ele>
        <time>2012-03-25T10:08:14+02:00</time>
      </trkpt>
      <trkpt lat="43.49685" lon="6.91864">
        <ele>240.467041</ele>
        <time>2012-03-25T10:08:22+02:00</time>
      </trkpt>
      <trkpt lat="43.49682" lon="6.91848">
        <ele>241.428223</ele>
        <time>2012-03-25T10:08:27+02:00</time>
      </trkpt>
      <trkpt lat="43.49672" lon="6.91821">
        <ele>243.35083</ele>
        <time>2012-03-25T10:08:36+02:00</time>
      </trkpt>
      <trkpt lat="43.49663" lon="6.91799">
        <ele>245.75415</ele>
        <time>2012-03-25T10:08:43+02:00</time>
      </trkpt>
      <trkpt lat="43.49656" lon="6.91778">
        <ele>246.234863</ele>
        <time>2012-03-25T10:08:51+02:00</time>
      </trkpt>
      <trkpt lat="43.49654" lon="6.91767">
        <ele>246.234863</ele>
        <time>2012-03-25T10:08:57+02:00</time>
      </trkpt>
      <trkpt lat="43.49652" lon="6.91759">
        <ele>246.234863</ele>
        <time>2012-03-25T10:09:03+02:00</time>
      </trkpt>
      <trkpt lat="43.49651" lon="6.91752">
        <ele>246.234863</ele>
        <time>2012-03-25T10:09:07+02:00</time>
      </trkpt>
      <trkpt lat="43.49651" lon="6.91746">
        <ele>246.715454</ele>
        <time>2012-03-25T10:09:12+02:00</time>
      </trkpt>
      <trkpt lat="43.49653" lon="6.91729">
        <ele>247.196045</ele>
        <time>2012-03-25T10:09:21+02:00</time>
      </trkpt>
      <trkpt lat="43.49655" lon="6.91713">
        <ele>246.715454</ele>
        <time>2012-03-25T10:09:28+02:00</time>
      </trkpt>
      <trkpt lat="43.49656" lon="6.91694">
        <ele>247.676758</ele>
        <time>2012-03-25T10:09:35+02:00</time>
      </trkpt>
      <trkpt lat="43.49661" lon="6.91674">
        <ele>246.715454</ele>
        <time>2012-03-25T10:09:40+02:00</time>
      </trkpt>
      <trkpt lat="43.49671" lon="6.91633">
        <ele>244.792847</ele>
        <time>2012-03-25T10:09:48+02:00</time>
      </trkpt>
      <trkpt lat="43.49679" lon="6.91612">
        <ele>244.792847</ele>
        <time>2012-03-25T10:09:52+02:00</time>
      </trkpt>
      <trkpt lat="43.49689" lon="6.91594">
        <ele>246.234863</ele>
        <time>2012-03-25T10:09:56+02:00</time>
      </trkpt>
      <trkpt lat="43.49697" lon="6.9158">
        <ele>246.715454</ele>
        <time>2012-03-25T10:09:59+02:00</time>
      </trkpt>
      <trkpt lat="43.49709" lon="6.91557">
        <ele>247.196045</ele>
        <time>2012-03-25T10:10:03+02:00</time>
      </trkpt>
      <trkpt lat="43.49731" lon="6.9154">
        <ele>247.196045</ele>
        <time>2012-03-25T10:10:08+02:00</time>
      </trkpt>
      <trkpt lat="43.49735" lon="6.91539">
        <ele>246.715454</ele>
        <time>2012-03-25T10:10:09+02:00</time>
      </trkpt>
      <trkpt lat="43.49765" lon="6.91543">
        <ele>247.676758</ele>
        <time>2012-03-25T10:10:15+02:00</time>
      </trkpt>
      <trkpt lat="43.49797" lon="6.91558">
        <ele>247.676758</ele>
        <time>2012-03-25T10:10:21+02:00</time>
      </trkpt>
      <trkpt lat="43.49841" lon="6.91585">
        <ele>247.196045</ele>
        <time>2012-03-25T10:10:29+02:00</time>
      </trkpt>
      <trkpt lat="43.4987" lon="6.91584">
        <ele>247.196045</ele>
        <time>2012-03-25T10:10:34+02:00</time>
      </trkpt>
      <trkpt lat="43.49886" lon="6.91566">
        <ele>247.196045</ele>
        <time>2012-03-25T10:10:38+02:00</time>
      </trkpt>
      <trkpt lat="43.49893" lon="6.91554">
        <ele>246.715454</ele>
        <time>2012-03-25T10:10:40+02:00</time>
      </trkpt>
      <trkpt lat="43.49904" lon="6.91523">
        <ele>245.75415</ele>
        <time>2012-03-25T10:10:45+02:00</time>
      </trkpt>
      <trkpt lat="43.4991" lon="6.91485">
        <ele>243.831543</ele>
        <time>2012-03-25T10:10:51+02:00</time>
      </trkpt>
      <trkpt lat="43.499" lon="6.91456">
        <ele>243.831543</ele>
        <time>2012-03-25T10:10:56+02:00</time>
      </trkpt>
      <trkpt lat="43.49897" lon="6.9145">
        <ele>244.312256</ele>
        <time>2012-03-25T10:10:57+02:00</time>
      </trkpt>
      <trkpt lat="43.49865" lon="6.91416">
        <ele>243.35083</ele>
        <time>2012-03-25T10:11:05+02:00</time>
      </trkpt>
      <trkpt lat="43.49837" lon="6.91386">
        <ele>242.389648</ele>
        <time>2012-03-25T10:11:12+02:00</time>
      </trkpt>
      <trkpt lat="43.4982" lon="6.91353">
        <ele>244.792847</ele>
        <time>2012-03-25T10:11:18+02:00</time>
      </trkpt>
      <trkpt lat="43.4981" lon="6.91324">
        <ele>245.273438</ele>
        <time>2012-03-25T10:11:23+02:00</time>
      </trkpt>
      <trkpt lat="43.49797" lon="6.91306">
        <ele>243.831543</ele>
        <time>2012-03-25T10:11:27+02:00</time>
      </trkpt>
      <trkpt lat="43.49772" lon="6.91297">
        <ele>243.35083</ele>
        <time>2012-03-25T10:11:32+02:00</time>
      </trkpt>
      <trkpt lat="43.49749" lon="6.91283">
        <ele>242.389648</ele>
        <time>2012-03-25T10:11:36+02:00</time>
      </trkpt>
      <trkpt lat="43.49723" lon="6.91236">
        <ele>240.947632</ele>
        <time>2012-03-25T10:11:44+02:00</time>
      </trkpt>
      <trkpt lat="43.49718" lon="6.91224">
        <ele>240.467041</ele>
        <time>2012-03-25T10:11:46+02:00</time>
      </trkpt>
      <trkpt lat="43.49716" lon="6.91194">
        <ele>241.428223</ele>
        <time>2012-03-25T10:11:50+02:00</time>
      </trkpt>
      <trkpt lat="43.4971" lon="6.91152">
        <ele>245.273438</ele>
        <time>2012-03-25T10:11:56+02:00</time>
      </trkpt>
      <trkpt lat="43.49703" lon="6.91125">
        <ele>246.234863</ele>
        <time>2012-03-25T10:12:00+02:00</time>
      </trkpt>
      <trkpt lat="43.497" lon="6.91111">
        <ele>247.676758</ele>
        <time>2012-03-25T10:12:02+02:00</time>
      </trkpt>
      <trkpt lat="43.49693" lon="6.91067">
        <ele>245.273438</ele>
        <time>2012-03-25T10:12:09+02:00</time>
      </trkpt>
      <trkpt lat="43.49691" lon="6.91061">
        <ele>245.273438</ele>
        <time>2012-03-25T10:12:10+02:00</time>
      </trkpt>
      <trkpt lat="43.49683" lon="6.91043">
        <ele>245.273438</ele>
        <time>2012-03-25T10:12:13+02:00</time>
      </trkpt>
      <trkpt lat="43.49678" lon="6.91006">
        <ele>246.715454</ele>
        <time>2012-03-25T10:12:19+02:00</time>
      </trkpt>
      <trkpt lat="43.49689" lon="6.90985">
        <ele>246.715454</ele>
        <time>2012-03-25T10:12:23+02:00</time>
      </trkpt>
      <trkpt lat="43.49692" lon="6.90981">
        <ele>246.715454</ele>
        <time>2012-03-25T10:12:24+02:00</time>
      </trkpt>
      <trkpt lat="43.49705" lon="6.90949">
        <ele>246.715454</ele>
        <time>2012-03-25T10:12:30+02:00</time>
      </trkpt>
      <trkpt lat="43.49704" lon="6.90936">
        <ele>246.234863</ele>
        <time>2012-03-25T10:12:32+02:00</time>
      </trkpt>
      <trkpt lat="43.497" lon="6.90923">
        <ele>246.234863</ele>
        <time>2012-03-25T10:12:34+02:00</time>
      </trkpt>
      <trkpt lat="43.49697" lon="6.90901">
        <ele>246.715454</ele>
        <time>2012-03-25T10:12:37+02:00</time>
      </trkpt>
      <trkpt lat="43.49696" lon="6.90886">
        <ele>246.234863</ele>
        <time>2012-03-25T10:12:39+02:00</time>
      </trkpt>
      <trkpt lat="43.49688" lon="6.90853">
        <ele>245.75415</ele>
        <time>2012-03-25T10:12:43+02:00</time>
      </trkpt>
      <trkpt lat="43.4968" lon="6.90804">
        <ele>245.273438</ele>
        <time>2012-03-25T10:12:49+02:00</time>
      </trkpt>
      <trkpt lat="43.49672" lon="6.90781">
        <ele>245.273438</ele>
        <time>2012-03-25T10:12:52+02:00</time>
      </trkpt>
      <trkpt lat="43.49666" lon="6.90767">
        <ele>244.792847</ele>
        <time>2012-03-25T10:12:54+02:00</time>
      </trkpt>
      <trkpt lat="43.49646" lon="6.90738">
        <ele>242.389648</ele>
        <time>2012-03-25T10:12:59+02:00</time>
      </trkpt>
      <trkpt lat="43.49629" lon="6.90718">
        <ele>240.467041</ele>
        <time>2012-03-25T10:13:03+02:00</time>
      </trkpt>
      <trkpt lat="43.4962" lon="6.90707">
        <ele>241.428223</ele>
        <time>2012-03-25T10:13:05+02:00</time>
      </trkpt>
      <trkpt lat="43.49591" lon="6.90673">
        <ele>239.986206</ele>
        <time>2012-03-25T10:13:12+02:00</time>
      </trkpt>
      <trkpt lat="43.49579" lon="6.90658">
        <ele>239.986206</ele>
        <time>2012-03-25T10:13:15+02:00</time>
      </trkpt>
      <trkpt lat="43.49565" lon="6.90636">
        <ele>239.024902</ele>
        <time>2012-03-25T10:13:19+02:00</time>
      </trkpt>
      <trkpt lat="43.49545" lon="6.90627">
        <ele>239.024902</ele>
        <time>2012-03-25T10:13:23+02:00</time>
      </trkpt>
      <trkpt lat="43.4953" lon="6.90621">
        <ele>239.986206</ele>
        <time>2012-03-25T10:13:26+02:00</time>
      </trkpt>
      <trkpt lat="43.49519" lon="6.90604">
        <ele>239.986206</ele>
        <time>2012-03-25T10:13:29+02:00</time>
      </trkpt>
      <trkpt lat="43.49515" lon="6.90598">
        <ele>239.986206</ele>
        <time>2012-03-25T10:13:30+02:00</time>
      </trkpt>
      <trkpt lat="43.49504" lon="6.90582">
        <ele>241.428223</ele>
        <time>2012-03-25T10:13:33+02:00</time>
      </trkpt>
      <trkpt lat="43.49499" lon="6.90546">
        <ele>239.986206</ele>
        <time>2012-03-25T10:13:38+02:00</time>
      </trkpt>
      <trkpt lat="43.49504" lon="6.90521">
        <ele>236.140991</ele>
        <time>2012-03-25T10:13:41+02:00</time>
      </trkpt>
      <trkpt lat="43.49506" lon="6.90498">
        <ele>236.140991</ele>
        <time>2012-03-25T10:13:44+02:00</time>
      </trkpt>
      <trkpt lat="43.4951" lon="6.90461">
        <ele>234.218384</ele>
        <time>2012-03-25T10:13:49+02:00</time>
      </trkpt>
      <trkpt lat="43.49506" lon="6.90426">
        <ele>234.218384</ele>
        <time>2012-03-25T10:13:54+02:00</time>
      </trkpt>
      <trkpt lat="43.49505" lon="6.904">
        <ele>233.737671</ele>
        <time>2012-03-25T10:13:59+02:00</time>
      </trkpt>
      <trkpt lat="43.49501" lon="6.90383">
        <ele>234.699097</ele>
        <time>2012-03-25T10:14:05+02:00</time>
      </trkpt>
      <trkpt lat="43.49501" lon="6.90377">
        <ele>234.699097</ele>
        <time>2012-03-25T10:14:07+02:00</time>
      </trkpt>
      <trkpt lat="43.49509" lon="6.9036">
        <ele>239.024902</ele>
        <time>2012-03-25T10:14:12+02:00</time>
      </trkpt>
      <trkpt lat="43.49515" lon="6.90345">
        <ele>240.947632</ele>
        <time>2012-03-25T10:14:17+02:00</time>
      </trkpt>
      <trkpt lat="43.49524" lon="6.90334">
        <ele>242.870239</ele>
        <time>2012-03-25T10:14:23+02:00</time>
      </trkpt>
      <trkpt lat="43.49525" lon="6.90329">
        <ele>245.75415</ele>
        <time>2012-03-25T10:14:43+02:00</time>
      </trkpt>
      <trkpt lat="43.49526" lon="6.90326">
        <ele>245.75415</ele>
        <time>2012-03-25T10:14:45+02:00</time>
      </trkpt>
      <trkpt lat="43.49534" lon="6.90308">
        <ele>247.196045</ele>
        <time>2012-03-25T10:14:54+02:00</time>
      </trkpt>
      <trkpt lat="43.49543" lon="6.90297">
        <ele>249.599487</ele>
        <time>2012-03-25T10:15:01+02:00</time>
      </trkpt>
      <trkpt lat="43.4955" lon="6.9029">
        <ele>251.522095</ele>
        <time>2012-03-25T10:15:07+02:00</time>
      </trkpt>
      <trkpt lat="43.4956" lon="6.90284">
        <ele>252.963989</ele>
        <time>2012-03-25T10:15:14+02:00</time>
      </trkpt>
      <trkpt lat="43.4957" lon="6.90279">
        <ele>254.406006</ele>
        <time>2012-03-25T10:15:21+02:00</time>
      </trkpt>
      <trkpt lat="43.49584" lon="6.90277">
        <ele>255.848022</ele>
        <time>2012-03-25T10:15:29+02:00</time>
      </trkpt>
      <trkpt lat="43.49602" lon="6.90273">
        <ele>257.770752</ele>
        <time>2012-03-25T10:15:39+02:00</time>
      </trkpt>
      <trkpt lat="43.49612" lon="6.90273">
        <ele>259.212646</ele>
        <time>2012-03-25T10:15:45+02:00</time>
      </trkpt>
      <trkpt lat="43.49622" lon="6.90272">
        <ele>260.654541</ele>
        <time>2012-03-25T10:15:52+02:00</time>
      </trkpt>
      <trkpt lat="43.49632" lon="6.90265">
        <ele>261.615967</ele>
        <time>2012-03-25T10:15:59+02:00</time>
      </trkpt>
      <trkpt lat="43.49634" lon="6.90252">
        <ele>262.577148</ele>
        <time>2012-03-25T10:16:05+02:00</time>
      </trkpt>
      <trkpt lat="43.49633" lon="6.90236">
        <ele>263.538574</ele>
        <time>2012-03-25T10:16:12+02:00</time>
      </trkpt>
      <trkpt lat="43.49628" lon="6.9022">
        <ele>265.941895</ele>
        <time>2012-03-25T10:16:20+02:00</time>
      </trkpt>
      <trkpt lat="43.49621" lon="6.90201">
        <ele>269.306519</ele>
        <time>2012-03-25T10:16:29+02:00</time>
      </trkpt>
      <trkpt lat="43.49615" lon="6.90189">
        <ele>270.748413</ele>
        <time>2012-03-25T10:16:36+02:00</time>
      </trkpt>
      <trkpt lat="43.49609" lon="6.90174">
        <ele>271.709717</ele>
        <time>2012-03-25T10:16:44+02:00</time>
      </trkpt>
      <trkpt lat="43.49604" lon="6.90157">
        <ele>274.113037</ele>
        <time>2012-03-25T10:16:52+02:00</time>
      </trkpt>
      <trkpt lat="43.49603" lon="6.9014">
        <ele>275.074463</ele>
        <time>2012-03-25T10:17:00+02:00</time>
      </trkpt>
      <trkpt lat="43.49603" lon="6.90123">
        <ele>276.035645</ele>
        <time>2012-03-25T10:17:08+02:00</time>
      </trkpt>
      <trkpt lat="43.49603" lon="6.90108">
        <ele>276.516357</ele>
        <time>2012-03-25T10:17:15+02:00</time>
      </trkpt>
      <trkpt lat="43.49603" lon="6.90094">
        <ele>276.516357</ele>
        <time>2012-03-25T10:17:22+02:00</time>
      </trkpt>
      <trkpt lat="43.49604" lon="6.9008">
        <ele>278.438965</ele>
        <time>2012-03-25T10:17:29+02:00</time>
      </trkpt>
      <trkpt lat="43.49603" lon="6.90057">
        <ele>278.919678</ele>
        <time>2012-03-25T10:17:39+02:00</time>
      </trkpt>
      <trkpt lat="43.49604" lon="6.90042">
        <ele>277.958252</ele>
        <time>2012-03-25T10:17:46+02:00</time>
      </trkpt>
      <trkpt lat="43.49607" lon="6.90029">
        <ele>277.958252</ele>
        <time>2012-03-25T10:17:52+02:00</time>
      </trkpt>
      <trkpt lat="43.49613" lon="6.90015">
        <ele>276.516357</ele>
        <time>2012-03-25T10:17:59+02:00</time>
      </trkpt>
      <trkpt lat="43.49621" lon="6.89998">
        <ele>282.765015</ele>
        <time>2012-03-25T10:18:08+02:00</time>
      </trkpt>
      <trkpt lat="43.49629" lon="6.89985">
        <ele>285.168213</ele>
        <time>2012-03-25T10:18:15+02:00</time>
      </trkpt>
      <trkpt lat="43.49638" lon="6.8997">
        <ele>287.09082</ele>
        <time>2012-03-25T10:18:24+02:00</time>
      </trkpt>
      <trkpt lat="43.49647" lon="6.8996">
        <ele>289.494141</ele>
        <time>2012-03-25T10:18:31+02:00</time>
      </trkpt>
      <trkpt lat="43.4966" lon="6.89951">
        <ele>291.897461</ele>
        <time>2012-03-25T10:18:39+02:00</time>
      </trkpt>
      <trkpt lat="43.49675" lon="6.89945">
        <ele>293.820068</ele>
        <time>2012-03-25T10:18:48+02:00</time>
      </trkpt>
      <trkpt lat="43.49689" lon="6.89932">
        <ele>294.781372</ele>
        <time>2012-03-25T10:18:56+02:00</time>
      </trkpt>
      <trkpt lat="43.49706" lon="6.89914">
        <ele>294.781372</ele>
        <time>2012-03-25T10:19:02+02:00</time>
      </trkpt>
      <trkpt lat="43.49729" lon="6.89881">
        <ele>294.781372</ele>
        <time>2012-03-25T10:19:09+02:00</time>
      </trkpt>
      <trkpt lat="43.49746" lon="6.89852">
        <ele>296.704102</ele>
        <time>2012-03-25T10:19:15+02:00</time>
      </trkpt>
      <trkpt lat="43.49756" lon="6.8984">
        <ele>299.1073</ele>
        <time>2012-03-25T10:19:21+02:00</time>
      </trkpt>
      <trkpt lat="43.49764" lon="6.89833">
        <ele>300.549316</ele>
        <time>2012-03-25T10:19:27+02:00</time>
      </trkpt>
      <trkpt lat="43.49772" lon="6.89827">
        <ele>301.991333</ele>
        <time>2012-03-25T10:19:33+02:00</time>
      </trkpt>
      <trkpt lat="43.49785" lon="6.89818">
        <ele>302.952515</ele>
        <time>2012-03-25T10:19:41+02:00</time>
      </trkpt>
      <trkpt lat="43.49797" lon="6.8981">
        <ele>304.394653</ele>
        <time>2012-03-25T10:19:48+02:00</time>
      </trkpt>
      <trkpt lat="43.49809" lon="6.89802">
        <ele>305.355957</ele>
        <time>2012-03-25T10:19:55+02:00</time>
      </trkpt>
      <trkpt lat="43.49821" lon="6.89796">
        <ele>306.797852</ele>
        <time>2012-03-25T10:20:03+02:00</time>
      </trkpt>
      <trkpt lat="43.49831" lon="6.8979">
        <ele>308.239868</ele>
        <time>2012-03-25T10:20:09+02:00</time>
      </trkpt>
      <trkpt lat="43.49841" lon="6.89776">
        <ele>309.681885</ele>
        <time>2012-03-25T10:20:18+02:00</time>
      </trkpt>
      <trkpt lat="43.49851" lon="6.89768">
        <ele>310.643066</ele>
        <time>2012-03-25T10:20:25+02:00</time>
      </trkpt>
      <trkpt lat="43.49863" lon="6.89768">
        <ele>311.123779</ele>
        <time>2012-03-25T10:20:32+02:00</time>
      </trkpt>
      <trkpt lat="43.49879" lon="6.89772">
        <ele>313.046509</ele>
        <time>2012-03-25T10:20:41+02:00</time>
      </trkpt>
      <trkpt lat="43.49889" lon="6.89778">
        <ele>314.969116</ele>
        <time>2012-03-25T10:20:48+02:00</time>
      </trkpt>
      <trkpt lat="43.49898" lon="6.89786">
        <ele>316.891724</ele>
        <time>2012-03-25T10:20:55+02:00</time>
      </trkpt>
      <trkpt lat="43.49911" lon="6.89798">
        <ele>318.333618</ele>
        <time>2012-03-25T10:21:04+02:00</time>
      </trkpt>
      <trkpt lat="43.49921" lon="6.89806">
        <ele>319.295044</ele>
        <time>2012-03-25T10:21:11+02:00</time>
      </trkpt>
      <trkpt lat="43.4993" lon="6.89814">
        <ele>319.775635</ele>
        <time>2012-03-25T10:21:17+02:00</time>
      </trkpt>
      <trkpt lat="43.49942" lon="6.89821">
        <ele>320.737061</ele>
        <time>2012-03-25T10:21:24+02:00</time>
      </trkpt>
      <trkpt lat="43.49951" lon="6.89813">
        <ele>321.698364</ele>
        <time>2012-03-25T10:21:30+02:00</time>
      </trkpt>
      <trkpt lat="43.49955" lon="6.89797">
        <ele>323.140381</ele>
        <time>2012-03-25T10:21:37+02:00</time>
      </trkpt>
      <trkpt lat="43.49956" lon="6.8978">
        <ele>324.101562</ele>
        <time>2012-03-25T10:21:44+02:00</time>
      </trkpt>
      <trkpt lat="43.49958" lon="6.89764">
        <ele>325.062988</ele>
        <time>2012-03-25T10:21:51+02:00</time>
      </trkpt>
      <trkpt lat="43.49962" lon="6.89748">
        <ele>326.02417</ele>
        <time>2012-03-25T10:21:59+02:00</time>
      </trkpt>
      <trkpt lat="43.49967" lon="6.89738">
        <ele>326.985596</ele>
        <time>2012-03-25T10:22:05+02:00</time>
      </trkpt>
      <trkpt lat="43.49972" lon="6.89725">
        <ele>328.908325</ele>
        <time>2012-03-25T10:22:12+02:00</time>
      </trkpt>
      <trkpt lat="43.49975" lon="6.89711">
        <ele>329.869507</ele>
        <time>2012-03-25T10:22:19+02:00</time>
      </trkpt>
      <trkpt lat="43.49976" lon="6.89697">
        <ele>330.830933</ele>
        <time>2012-03-25T10:22:26+02:00</time>
      </trkpt>
      <trkpt lat="43.49974" lon="6.89683">
        <ele>332.272827</ele>
        <time>2012-03-25T10:22:32+02:00</time>
      </trkpt>
      <trkpt lat="43.49973" lon="6.89668">
        <ele>333.234131</ele>
        <time>2012-03-25T10:22:39+02:00</time>
      </trkpt>
      <trkpt lat="43.49973" lon="6.89655">
        <ele>334.195435</ele>
        <time>2012-03-25T10:22:45+02:00</time>
      </trkpt>
      <trkpt lat="43.49971" lon="6.89635">
        <ele>339.002075</ele>
        <time>2012-03-25T10:22:54+02:00</time>
      </trkpt>
      <trkpt lat="43.49969" lon="6.89615">
        <ele>341.885986</ele>
        <time>2012-03-25T10:23:03+02:00</time>
      </trkpt>
      <trkpt lat="43.49968" lon="6.89595">
        <ele>344.289429</ele>
        <time>2012-03-25T10:23:12+02:00</time>
      </trkpt>
      <trkpt lat="43.49968" lon="6.8958">
        <ele>345.731323</ele>
        <time>2012-03-25T10:23:19+02:00</time>
      </trkpt>
      <trkpt lat="43.49969" lon="6.89568">
        <ele>346.212036</ele>
        <time>2012-03-25T10:23:25+02:00</time>
      </trkpt>
      <trkpt lat="43.49968" lon="6.89558">
        <ele>346.212036</ele>
        <time>2012-03-25T10:23:30+02:00</time>
      </trkpt>
      <trkpt lat="43.49968" lon="6.89543">
        <ele>347.173218</ele>
        <time>2012-03-25T10:23:37+02:00</time>
      </trkpt>
      <trkpt lat="43.4997" lon="6.8953">
        <ele>347.173218</ele>
        <time>2012-03-25T10:23:43+02:00</time>
      </trkpt>
      <trkpt lat="43.49973" lon="6.89516">
        <ele>346.692627</ele>
        <time>2012-03-25T10:23:50+02:00</time>
      </trkpt>
      <trkpt lat="43.49977" lon="6.89503">
        <ele>346.692627</ele>
        <time>2012-03-25T10:23:56+02:00</time>
      </trkpt>
      <trkpt lat="43.49983" lon="6.89488">
        <ele>347.173218</ele>
        <time>2012-03-25T10:24:03+02:00</time>
      </trkpt>
      <trkpt lat="43.49989" lon="6.89472">
        <ele>348.134644</ele>
        <time>2012-03-25T10:24:09+02:00</time>
      </trkpt>
      <trkpt lat="43.49997" lon="6.89451">
        <ele>349.095825</ele>
        <time>2012-03-25T10:24:16+02:00</time>
      </trkpt>
      <trkpt lat="43.50011" lon="6.89429">
        <ele>350.057251</ele>
        <time>2012-03-25T10:24:23+02:00</time>
      </trkpt>
      <trkpt lat="43.50027" lon="6.89408">
        <ele>351.499146</ele>
        <time>2012-03-25T10:24:31+02:00</time>
      </trkpt>
      <trkpt lat="43.5005" lon="6.89399">
        <ele>352.941162</ele>
        <time>2012-03-25T10:24:39+02:00</time>
      </trkpt>
      <trkpt lat="43.50069" lon="6.89399">
        <ele>353.902588</ele>
        <time>2012-03-25T10:24:46+02:00</time>
      </trkpt>
      <trkpt lat="43.50085" lon="6.894">
        <ele>354.86377</ele>
        <time>2012-03-25T10:24:52+02:00</time>
      </trkpt>
      <trkpt lat="43.50102" lon="6.89395">
        <ele>356.786377</ele>
        <time>2012-03-25T10:24:59+02:00</time>
      </trkpt>
      <trkpt lat="43.5012" lon="6.89378">
        <ele>358.228394</ele>
        <time>2012-03-25T10:25:08+02:00</time>
      </trkpt>
      <trkpt lat="43.50132" lon="6.89363">
        <ele>358.708984</ele>
        <time>2012-03-25T10:25:15+02:00</time>
      </trkpt>
      <trkpt lat="43.50143" lon="6.89351">
        <ele>358.708984</ele>
        <time>2012-03-25T10:25:21+02:00</time>
      </trkpt>
      <trkpt lat="43.50154" lon="6.89339">
        <ele>358.708984</ele>
        <time>2012-03-25T10:25:25+02:00</time>
      </trkpt>
      <trkpt lat="43.50177" lon="6.89325">
        <ele>358.228394</ele>
        <time>2012-03-25T10:25:31+02:00</time>
      </trkpt>
      <trkpt lat="43.50199" lon="6.89326">
        <ele>356.786377</ele>
        <time>2012-03-25T10:25:35+02:00</time>
      </trkpt>
      <trkpt lat="43.50223" lon="6.89339">
        <ele>354.383179</ele>
        <time>2012-03-25T10:25:39+02:00</time>
      </trkpt>
      <trkpt lat="43.50253" lon="6.89371">
        <ele>350.537842</ele>
        <time>2012-03-25T10:25:44+02:00</time>
      </trkpt>
      <trkpt lat="43.50288" lon="6.89405">
        <ele>345.731323</ele>
        <time>2012-03-25T10:25:49+02:00</time>
      </trkpt>
      <trkpt lat="43.50307" lon="6.89435">
        <ele>342.366699</ele>
        <time>2012-03-25T10:25:53+02:00</time>
      </trkpt>
      <trkpt lat="43.50335" lon="6.89497">
        <ele>335.156738</ele>
        <time>2012-03-25T10:25:59+02:00</time>
      </trkpt>
      <trkpt lat="43.50374" lon="6.89546">
        <ele>329.869507</ele>
        <time>2012-03-25T10:26:05+02:00</time>
      </trkpt>
      <trkpt lat="43.50405" lon="6.89578">
        <ele>328.427612</ele>
        <time>2012-03-25T10:26:10+02:00</time>
      </trkpt>
      <trkpt lat="43.50411" lon="6.89584">
        <ele>328.427612</ele>
        <time>2012-03-25T10:26:11+02:00</time>
      </trkpt>
      <trkpt lat="43.5043" lon="6.89619">
        <ele>326.985596</ele>
        <time>2012-03-25T10:26:16+02:00</time>
      </trkpt>
      <trkpt lat="43.50456" lon="6.89651">
        <ele>324.582275</ele>
        <time>2012-03-25T10:26:21+02:00</time>
      </trkpt>
      <trkpt lat="43.50485" lon="6.89689">
        <ele>320.737061</ele>
        <time>2012-03-25T10:26:26+02:00</time>
      </trkpt>
      <trkpt lat="43.50487" lon="6.89699">
        <ele>318.814331</ele>
        <time>2012-03-25T10:26:30+02:00</time>
      </trkpt>
      <trkpt lat="43.50484" lon="6.89701">
        <ele>320.737061</ele>
        <time>2012-03-25T10:26:38+02:00</time>
      </trkpt>
      <trkpt lat="43.50483" lon="6.897">
        <ele>322.178955</ele>
        <time>2012-03-25T10:26:45+02:00</time>
      </trkpt>
      <trkpt lat="43.50484" lon="6.89698">
        <ele>322.178955</ele>
        <time>2012-03-25T10:26:51+02:00</time>
      </trkpt>
      <trkpt lat="43.50485" lon="6.89697">
        <ele>322.659668</ele>
        <time>2012-03-25T10:27:01+02:00</time>
      </trkpt>
      <trkpt lat="43.50486" lon="6.89697">
        <ele>323.620972</ele>
        <time>2012-03-25T10:27:08+02:00</time>
      </trkpt>
      <trkpt lat="43.50486" lon="6.89699">
        <ele>324.582275</ele>
        <time>2012-03-25T10:27:21+02:00</time>
      </trkpt>
      <trkpt lat="43.50487" lon="6.89702">
        <ele>324.582275</ele>
        <time>2012-03-25T10:27:23+02:00</time>
      </trkpt>
      <trkpt lat="43.50491" lon="6.89711">
        <ele>322.659668</ele>
        <time>2012-03-25T10:27:28+02:00</time>
      </trkpt>
      <trkpt lat="43.50492" lon="6.89711">
        <ele>321.217773</ele>
        <time>2012-03-25T10:27:39+02:00</time>
      </trkpt>
      <trkpt lat="43.50492" lon="6.89711">
        <ele>320.256348</ele>
        <time>2012-03-25T10:27:56+02:00</time>
      </trkpt>
      <trkpt lat="43.50492" lon="6.89711">
        <ele>320.737061</ele>
        <time>2012-03-25T10:28:07+02:00</time>
      </trkpt>
      <trkpt lat="43.50492" lon="6.89711">
        <ele>321.217773</ele>
        <time>2012-03-25T10:28:16+02:00</time>
      </trkpt>
      <trkpt lat="43.50492" lon="6.8971">
        <ele>322.178955</ele>
        <time>2012-03-25T10:28:21+02:00</time>
      </trkpt>
      <trkpt lat="43.5049" lon="6.89706">
        <ele>322.178955</ele>
        <time>2012-03-25T10:28:26+02:00</time>
      </trkpt>
      <trkpt lat="43.50487" lon="6.89699">
        <ele>321.698364</ele>
        <time>2012-03-25T10:28:32+02:00</time>
      </trkpt>
      <trkpt lat="43.50487" lon="6.89697">
        <ele>322.178955</ele>
        <time>2012-03-25T10:28:37+02:00</time>
      </trkpt>
      <trkpt lat="43.50486" lon="6.89697">
        <ele>322.178955</ele>
        <time>2012-03-25T10:28:40+02:00</time>
      </trkpt>
      <trkpt lat="43.50475" lon="6.8971">
        <ele>318.814331</ele>
        <time>2012-03-25T10:28:47+02:00</time>
      </trkpt>
      <trkpt lat="43.50473" lon="6.89726">
        <ele>314.969116</ele>
        <time>2012-03-25T10:28:52+02:00</time>
      </trkpt>
      <trkpt lat="43.50472" lon="6.8973">
        <ele>314.007812</ele>
        <time>2012-03-25T10:28:53+02:00</time>
      </trkpt>
      <trkpt lat="43.50469" lon="6.8975">
        <ele>310.643066</ele>
        <time>2012-03-25T10:28:58+02:00</time>
      </trkpt>
      <trkpt lat="43.50468" lon="6.89765">
        <ele>307.278564</ele>
        <time>2012-03-25T10:29:02+02:00</time>
      </trkpt>
      <trkpt lat="43.50466" lon="6.89786">
        <ele>302.471924</ele>
        <time>2012-03-25T10:29:07+02:00</time>
      </trkpt>
      <trkpt lat="43.50469" lon="6.89805">
        <ele>299.588013</ele>
        <time>2012-03-25T10:29:11+02:00</time>
      </trkpt>
      <trkpt lat="43.50467" lon="6.89823">
        <ele>294.300781</ele>
        <time>2012-03-25T10:29:16+02:00</time>
      </trkpt>
      <trkpt lat="43.50467" lon="6.89831">
        <ele>292.858765</ele>
        <time>2012-03-25T10:29:19+02:00</time>
      </trkpt>
      <trkpt lat="43.50467" lon="6.89836">
        <ele>292.378174</ele>
        <time>2012-03-25T10:29:25+02:00</time>
      </trkpt>
      <trkpt lat="43.50467" lon="6.89842">
        <ele>291.897461</ele>
        <time>2012-03-25T10:29:29+02:00</time>
      </trkpt>
      <trkpt lat="43.50466" lon="6.89859">
        <ele>289.01355</ele>
        <time>2012-03-25T10:29:34+02:00</time>
      </trkpt>
      <trkpt lat="43.50466" lon="6.89882">
        <ele>287.09082</ele>
        <time>2012-03-25T10:29:39+02:00</time>
      </trkpt>
      <trkpt lat="43.50465" lon="6.89893">
        <ele>286.610229</ele>
        <time>2012-03-25T10:29:41+02:00</time>
      </trkpt>
      <trkpt lat="43.50466" lon="6.89902">
        <ele>285.648804</ele>
        <time>2012-03-25T10:29:43+02:00</time>
      </trkpt>
      <trkpt lat="43.50457" lon="6.89922">
        <ele>283.726196</ele>
        <time>2012-03-25T10:29:47+02:00</time>
      </trkpt>
      <trkpt lat="43.50455" lon="6.8994">
        <ele>281.803589</ele>
        <time>2012-03-25T10:29:50+02:00</time>
      </trkpt>
      <trkpt lat="43.50459" lon="6.89962">
        <ele>279.400269</ele>
        <time>2012-03-25T10:29:55+02:00</time>
      </trkpt>
      <trkpt lat="43.50465" lon="6.89976">
        <ele>276.99707</ele>
        <time>2012-03-25T10:29:59+02:00</time>
      </trkpt>
      <trkpt lat="43.50468" lon="6.89979">
        <ele>275.074463</ele>
        <time>2012-03-25T10:30:01+02:00</time>
      </trkpt>
      <trkpt lat="43.50473" lon="6.89992">
        <ele>269.787109</ele>
        <time>2012-03-25T10:30:06+02:00</time>
      </trkpt>
      <trkpt lat="43.50471" lon="6.90001">
        <ele>265.941895</ele>
        <time>2012-03-25T10:30:10+02:00</time>
      </trkpt>
      <trkpt lat="43.50479" lon="6.90018">
        <ele>261.135254</ele>
        <time>2012-03-25T10:30:14+02:00</time>
      </trkpt>
      <trkpt lat="43.50483" lon="6.90038">
        <ele>260.654541</ele>
        <time>2012-03-25T10:30:19+02:00</time>
      </trkpt>
      <trkpt lat="43.50483" lon="6.90042">
        <ele>261.615967</ele>
        <time>2012-03-25T10:30:26+02:00</time>
      </trkpt>
      <trkpt lat="43.50483" lon="6.90044">
        <ele>262.096558</ele>
        <time>2012-03-25T10:30:35+02:00</time>
      </trkpt>
      <trkpt lat="43.50483" lon="6.90045">
        <ele>262.096558</ele>
        <time>2012-03-25T10:30:41+02:00</time>
      </trkpt>
      <trkpt lat="43.50491" lon="6.90061">
        <ele>259.212646</ele>
        <time>2012-03-25T10:30:47+02:00</time>
      </trkpt>
      <trkpt lat="43.50492" lon="6.90063">
        <ele>258.731934</ele>
        <time>2012-03-25T10:30:48+02:00</time>
      </trkpt>
      <trkpt lat="43.50496" lon="6.90073">
        <ele>255.848022</ele>
        <time>2012-03-25T10:30:53+02:00</time>
      </trkpt>
      <trkpt lat="43.50498" lon="6.9008">
        <ele>252.002808</ele>
        <time>2012-03-25T10:30:57+02:00</time>
      </trkpt>
      <trkpt lat="43.505" lon="6.90082">
        <ele>251.041382</ele>
        <time>2012-03-25T10:30:58+02:00</time>
      </trkpt>
      <trkpt lat="43.50503" lon="6.90083">
        <ele>248.157593</ele>
        <time>2012-03-25T10:31:04+02:00</time>
      </trkpt>
      <trkpt lat="43.50504" lon="6.90086">
        <ele>249.118774</ele>
        <time>2012-03-25T10:31:10+02:00</time>
      </trkpt>
      <trkpt lat="43.50507" lon="6.9009">
        <ele>247.676758</ele>
        <time>2012-03-25T10:31:15+02:00</time>
      </trkpt>
      <trkpt lat="43.50508" lon="6.90094">
        <ele>247.196045</ele>
        <time>2012-03-25T10:31:19+02:00</time>
      </trkpt>
      <trkpt lat="43.50509" lon="6.90109">
        <ele>244.792847</ele>
        <time>2012-03-25T10:31:25+02:00</time>
      </trkpt>
      <trkpt lat="43.50512" lon="6.90114">
        <ele>241.428223</ele>
        <time>2012-03-25T10:31:29+02:00</time>
      </trkpt>
      <trkpt lat="43.50517" lon="6.90122">
        <ele>239.505493</ele>
        <time>2012-03-25T10:31:32+02:00</time>
      </trkpt>
      <trkpt lat="43.50525" lon="6.90145">
        <ele>231.334351</ele>
        <time>2012-03-25T10:31:38+02:00</time>
      </trkpt>
      <trkpt lat="43.50529" lon="6.90158">
        <ele>229.411743</ele>
        <time>2012-03-25T10:31:40+02:00</time>
      </trkpt>
      <trkpt lat="43.5053" lon="6.90165">
        <ele>229.411743</ele>
        <time>2012-03-25T10:31:44+02:00</time>
      </trkpt>
      <trkpt lat="43.50529" lon="6.9017">
        <ele>230.373047</ele>
        <time>2012-03-25T10:31:50+02:00</time>
      </trkpt>
      <trkpt lat="43.5053" lon="6.90172">
        <ele>229.411743</ele>
        <time>2012-03-25T10:32:01+02:00</time>
      </trkpt>
      <trkpt lat="43.50528" lon="6.90174">
        <ele>228.450439</ele>
        <time>2012-03-25T10:32:07+02:00</time>
      </trkpt>
      <trkpt lat="43.50521" lon="6.90191">
        <ele>226.527832</ele>
        <time>2012-03-25T10:32:11+02:00</time>
      </trkpt>
      <trkpt lat="43.50517" lon="6.90204">
        <ele>224.605225</ele>
        <time>2012-03-25T10:32:15+02:00</time>
      </trkpt>
      <trkpt lat="43.50515" lon="6.902">
        <ele>224.124512</ele>
        <time>2012-03-25T10:32:17+02:00</time>
      </trkpt>
      <trkpt lat="43.50511" lon="6.90184">
        <ele>222.682495</ele>
        <time>2012-03-25T10:32:22+02:00</time>
      </trkpt>
      <trkpt lat="43.50507" lon="6.90177">
        <ele>222.682495</ele>
        <time>2012-03-25T10:32:25+02:00</time>
      </trkpt>
      <trkpt lat="43.50506" lon="6.90177">
        <ele>223.163208</ele>
        <time>2012-03-25T10:32:29+02:00</time>
      </trkpt>
      <trkpt lat="43.50504" lon="6.90177">
        <ele>228.450439</ele>
        <time>2012-03-25T10:32:49+02:00</time>
      </trkpt>
      <trkpt lat="43.505" lon="6.90175">
        <ele>227.969727</ele>
        <time>2012-03-25T10:32:53+02:00</time>
      </trkpt>
      <trkpt lat="43.50483" lon="6.90172">
        <ele>225.085938</ele>
        <time>2012-03-25T10:32:58+02:00</time>
      </trkpt>
      <trkpt lat="43.50462" lon="6.9017">
        <ele>220.279175</ele>
        <time>2012-03-25T10:33:03+02:00</time>
      </trkpt>
      <trkpt lat="43.50454" lon="6.90166">
        <ele>218.83728</ele>
        <time>2012-03-25T10:33:05+02:00</time>
      </trkpt>
      <trkpt lat="43.50437" lon="6.90139">
        <ele>214.51123</ele>
        <time>2012-03-25T10:33:10+02:00</time>
      </trkpt>
      <trkpt lat="43.5043" lon="6.90128">
        <ele>214.03064</ele>
        <time>2012-03-25T10:33:12+02:00</time>
      </trkpt>
      <trkpt lat="43.50412" lon="6.90087">
        <ele>211.146729</ele>
        <time>2012-03-25T10:33:18+02:00</time>
      </trkpt>
      <trkpt lat="43.50393" lon="6.90036">
        <ele>208.743408</ele>
        <time>2012-03-25T10:33:25+02:00</time>
      </trkpt>
      <trkpt lat="43.50377" lon="6.9001">
        <ele>206.820679</ele>
        <time>2012-03-25T10:33:29+02:00</time>
      </trkpt>
      <trkpt lat="43.50359" lon="6.89999">
        <ele>205.378784</ele>
        <time>2012-03-25T10:33:33+02:00</time>
      </trkpt>
      <trkpt lat="43.5033" lon="6.89977">
        <ele>201.533569</ele>
        <time>2012-03-25T10:33:39+02:00</time>
      </trkpt>
      <trkpt lat="43.50323" lon="6.89962">
        <ele>200.091675</ele>
        <time>2012-03-25T10:33:41+02:00</time>
      </trkpt>
      <trkpt lat="43.50312" lon="6.89949">
        <ele>198.168945</ele>
        <time>2012-03-25T10:33:45+02:00</time>
      </trkpt>
      <trkpt lat="43.50304" lon="6.89964">
        <ele>197.20752</ele>
        <time>2012-03-25T10:33:49+02:00</time>
      </trkpt>
      <trkpt lat="43.50286" lon="6.89988">
        <ele>199.130127</ele>
        <time>2012-03-25T10:33:55+02:00</time>
      </trkpt>
      <trkpt lat="43.50292" lon="6.90004">
        <ele>196.726929</ele>
        <time>2012-03-25T10:33:59+02:00</time>
      </trkpt>
      <trkpt lat="43.50311" lon="6.90047">
        <ele>192.881714</ele>
        <time>2012-03-25T10:34:05+02:00</time>
      </trkpt>
      <trkpt lat="43.50318" lon="6.90067">
        <ele>190.478394</ele>
        <time>2012-03-25T10:34:07+02:00</time>
      </trkpt>
      <trkpt lat="43.50325" lon="6.90103">
        <ele>187.11377</ele>
        <time>2012-03-25T10:34:11+02:00</time>
      </trkpt>
      <trkpt lat="43.50324" lon="6.90111">
        <ele>186.633179</ele>
        <time>2012-03-25T10:34:12+02:00</time>
      </trkpt>
      <trkpt lat="43.5032" lon="6.90162">
        <ele>181.826416</ele>
        <time>2012-03-25T10:34:17+02:00</time>
      </trkpt>
      <trkpt lat="43.50323" lon="6.90182">
        <ele>179.423218</ele>
        <time>2012-03-25T10:34:19+02:00</time>
      </trkpt>
      <trkpt lat="43.50335" lon="6.90213">
        <ele>174.616577</ele>
        <time>2012-03-25T10:34:23+02:00</time>
      </trkpt>
      <trkpt lat="43.50338" lon="6.9023">
        <ele>172.213257</ele>
        <time>2012-03-25T10:34:26+02:00</time>
      </trkpt>
      <trkpt lat="43.50342" lon="6.90257">
        <ele>169.329468</ele>
        <time>2012-03-25T10:34:30+02:00</time>
      </trkpt>
      <trkpt lat="43.50353" lon="6.903">
        <ele>164.522705</ele>
        <time>2012-03-25T10:34:36+02:00</time>
      </trkpt>
      <trkpt lat="43.5035" lon="6.90312">
        <ele>162.600098</ele>
        <time>2012-03-25T10:34:38+02:00</time>
      </trkpt>
      <trkpt lat="43.50347" lon="6.90322">
        <ele>161.158203</ele>
        <time>2012-03-25T10:34:40+02:00</time>
      </trkpt>
      <trkpt lat="43.5035" lon="6.90328">
        <ele>158.27417</ele>
        <time>2012-03-25T10:34:44+02:00</time>
      </trkpt>
      <trkpt lat="43.50357" lon="6.90321">
        <ele>154.428955</ele>
        <time>2012-03-25T10:34:48+02:00</time>
      </trkpt>
      <trkpt lat="43.50359" lon="6.90315">
        <ele>152.986938</ele>
        <time>2012-03-25T10:34:49+02:00</time>
      </trkpt>
      <trkpt lat="43.50365" lon="6.90308">
        <ele>150.103027</ele>
        <time>2012-03-25T10:34:51+02:00</time>
      </trkpt>
      <trkpt lat="43.50379" lon="6.90319">
        <ele>148.18042</ele>
        <time>2012-03-25T10:34:55+02:00</time>
      </trkpt>
      <trkpt lat="43.50375" lon="6.90343">
        <ele>147.699707</ele>
        <time>2012-03-25T10:34:58+02:00</time>
      </trkpt>
      <trkpt lat="43.50372" lon="6.90349">
        <ele>146.738403</ele>
        <time>2012-03-25T10:34:59+02:00</time>
      </trkpt>
      <trkpt lat="43.50367" lon="6.90359">
        <ele>144.335205</ele>
        <time>2012-03-25T10:35:01+02:00</time>
      </trkpt>
      <trkpt lat="43.50354" lon="6.90387">
        <ele>140.009155</ele>
        <time>2012-03-25T10:35:06+02:00</time>
      </trkpt>
      <trkpt lat="43.5035" lon="6.90399">
        <ele>139.047852</ele>
        <time>2012-03-25T10:35:08+02:00</time>
      </trkpt>
      <trkpt lat="43.50348" lon="6.90414">
        <ele>138.086548</ele>
        <time>2012-03-25T10:35:12+02:00</time>
      </trkpt>
      <trkpt lat="43.50348" lon="6.90416">
        <ele>139.047852</ele>
        <time>2012-03-25T10:35:17+02:00</time>
      </trkpt>
      <trkpt lat="43.50351" lon="6.9042">
        <ele>139.528442</ele>
        <time>2012-03-25T10:35:22+02:00</time>
      </trkpt>
      <trkpt lat="43.50351" lon="6.90425">
        <ele>139.528442</ele>
        <time>2012-03-25T10:35:28+02:00</time>
      </trkpt>
      <trkpt lat="43.5035" lon="6.90429">
        <ele>141.931763</ele>
        <time>2012-03-25T10:35:36+02:00</time>
      </trkpt>
      <trkpt lat="43.50352" lon="6.90427">
        <ele>138.086548</ele>
        <time>2012-03-25T10:35:46+02:00</time>
      </trkpt>
      <trkpt lat="43.50351" lon="6.90428">
        <ele>137.605835</ele>
        <time>2012-03-25T10:35:55+02:00</time>
      </trkpt>
      <trkpt lat="43.5035" lon="6.90431">
        <ele>138.086548</ele>
        <time>2012-03-25T10:35:57+02:00</time>
      </trkpt>
      <trkpt lat="43.50341" lon="6.90453">
        <ele>138.567261</ele>
        <time>2012-03-25T10:36:03+02:00</time>
      </trkpt>
      <trkpt lat="43.5033" lon="6.90479">
        <ele>137.605835</ele>
        <time>2012-03-25T10:36:08+02:00</time>
      </trkpt>
      <trkpt lat="43.50326" lon="6.90513">
        <ele>136.16394</ele>
        <time>2012-03-25T10:36:12+02:00</time>
      </trkpt>
      <trkpt lat="43.5032" lon="6.90558">
        <ele>135.202515</ele>
        <time>2012-03-25T10:36:17+02:00</time>
      </trkpt>
      <trkpt lat="43.50319" lon="6.90584">
        <ele>134.721924</ele>
        <time>2012-03-25T10:36:21+02:00</time>
      </trkpt>
      <trkpt lat="43.50321" lon="6.90606">
        <ele>136.16394</ele>
        <time>2012-03-25T10:36:26+02:00</time>
      </trkpt>
      <trkpt lat="43.50328" lon="6.90628">
        <ele>136.644653</ele>
        <time>2012-03-25T10:36:32+02:00</time>
      </trkpt>
      <trkpt lat="43.50332" lon="6.90644">
        <ele>138.567261</ele>
        <time>2012-03-25T10:36:37+02:00</time>
      </trkpt>
      <trkpt lat="43.50336" lon="6.90664">
        <ele>142.412476</ele>
        <time>2012-03-25T10:36:43+02:00</time>
      </trkpt>
      <trkpt lat="43.50339" lon="6.90683">
        <ele>143.85437</ele>
        <time>2012-03-25T10:36:48+02:00</time>
      </trkpt>
      <trkpt lat="43.50343" lon="6.90713">
        <ele>144.815796</ele>
        <time>2012-03-25T10:36:56+02:00</time>
      </trkpt>
      <trkpt lat="43.50349" lon="6.90724">
        <ele>143.373657</ele>
        <time>2012-03-25T10:37:01+02:00</time>
      </trkpt>
      <trkpt lat="43.50362" lon="6.90731">
        <ele>143.85437</ele>
        <time>2012-03-25T10:37:06+02:00</time>
      </trkpt>
      <trkpt lat="43.50381" lon="6.90747">
        <ele>141.931763</ele>
        <time>2012-03-25T10:37:12+02:00</time>
      </trkpt>
      <trkpt lat="43.50392" lon="6.90768">
        <ele>141.45105</ele>
        <time>2012-03-25T10:37:16+02:00</time>
      </trkpt>
      <trkpt lat="43.50398" lon="6.90785">
        <ele>142.412476</ele>
        <time>2012-03-25T10:37:19+02:00</time>
      </trkpt>
      <trkpt lat="43.50409" lon="6.90819">
        <ele>139.047852</ele>
        <time>2012-03-25T10:37:24+02:00</time>
      </trkpt>
      <trkpt lat="43.50417" lon="6.90831">
        <ele>137.125244</ele>
        <time>2012-03-25T10:37:26+02:00</time>
      </trkpt>
      <trkpt lat="43.50452" lon="6.90854">
        <ele>134.721924</ele>
        <time>2012-03-25T10:37:31+02:00</time>
      </trkpt>
      <trkpt lat="43.50487" lon="6.90872">
        <ele>131.3573</ele>
        <time>2012-03-25T10:37:35+02:00</time>
      </trkpt>
      <trkpt lat="43.50518" lon="6.90895">
        <ele>125.108765</ele>
        <time>2012-03-25T10:37:40+02:00</time>
      </trkpt>
      <trkpt lat="43.50533" lon="6.90903">
        <ele>121.26355</ele>
        <time>2012-03-25T10:37:43+02:00</time>
      </trkpt>
      <trkpt lat="43.50547" lon="6.90905">
        <ele>118.379395</ele>
        <time>2012-03-25T10:37:45+02:00</time>
      </trkpt>
      <trkpt lat="43.50569" lon="6.909">
        <ele>115.014893</ele>
        <time>2012-03-25T10:37:48+02:00</time>
      </trkpt>
      <trkpt lat="43.50599" lon="6.90876">
        <ele>107.805054</ele>
        <time>2012-03-25T10:37:53+02:00</time>
      </trkpt>
      <trkpt lat="43.50618" lon="6.90868">
        <ele>102.5177</ele>
        <time>2012-03-25T10:37:57+02:00</time>
      </trkpt>
      <trkpt lat="43.50638" lon="6.9088">
        <ele>95.7884521</ele>
        <time>2012-03-25T10:38:02+02:00</time>
      </trkpt>
      <trkpt lat="43.50673" lon="6.90907">
        <ele>93.3851318</ele>
        <time>2012-03-25T10:38:08+02:00</time>
      </trkpt>
      <trkpt lat="43.50695" lon="6.90905">
        <ele>91.4625244</ele>
        <time>2012-03-25T10:38:12+02:00</time>
      </trkpt>
      <trkpt lat="43.50718" lon="6.90898">
        <ele>90.0206299</ele>
        <time>2012-03-25T10:38:16+02:00</time>
      </trkpt>
      <trkpt lat="43.50748" lon="6.90909">
        <ele>87.6171875</ele>
        <time>2012-03-25T10:38:20+02:00</time>
      </trkpt>
      <trkpt lat="43.50762" lon="6.90914">
        <ele>86.175293</ele>
        <time>2012-03-25T10:38:22+02:00</time>
      </trkpt>
      <trkpt lat="43.5079" lon="6.90923">
        <ele>83.2913818</ele>
        <time>2012-03-25T10:38:27+02:00</time>
      </trkpt>
      <trkpt lat="43.50811" lon="6.90918">
        <ele>81.8493652</ele>
        <time>2012-03-25T10:38:31+02:00</time>
      </trkpt>
      <trkpt lat="43.50836" lon="6.90928">
        <ele>78.4847412</ele>
        <time>2012-03-25T10:38:36+02:00</time>
      </trkpt>
      <trkpt lat="43.50839" lon="6.90944">
        <ele>77.0428467</ele>
        <time>2012-03-25T10:38:39+02:00</time>
      </trkpt>
      <trkpt lat="43.50842" lon="6.90967">
        <ele>71.2749023</ele>
        <time>2012-03-25T10:38:43+02:00</time>
      </trkpt>
      <trkpt lat="43.50857" lon="6.90982">
        <ele>65.5070801</ele>
        <time>2012-03-25T10:38:47+02:00</time>
      </trkpt>
      <trkpt lat="43.50855" lon="6.90995">
        <ele>61.6617432</ele>
        <time>2012-03-25T10:38:49+02:00</time>
      </trkpt>
      <trkpt lat="43.50845" lon="6.91003">
        <ele>60.7003174</ele>
        <time>2012-03-25T10:38:51+02:00</time>
      </trkpt>
      <trkpt lat="43.50836" lon="6.91007">
        <ele>58.77771</ele>
        <time>2012-03-25T10:38:53+02:00</time>
      </trkpt>
      <trkpt lat="43.50834" lon="6.91021">
        <ele>54.932373</ele>
        <time>2012-03-25T10:38:57+02:00</time>
      </trkpt>
      <trkpt lat="43.5084" lon="6.9103">
        <ele>53.4904785</ele>
        <time>2012-03-25T10:39:00+02:00</time>
      </trkpt>
      <trkpt lat="43.50841" lon="6.91032">
        <ele>53.9711914</ele>
        <time>2012-03-25T10:39:03+02:00</time>
      </trkpt>
      <trkpt lat="43.50839" lon="6.9104">
        <ele>54.4517822</ele>
        <time>2012-03-25T10:39:07+02:00</time>
      </trkpt>
      <trkpt lat="43.5084" lon="6.91048">
        <ele>55.8937988</ele>
        <time>2012-03-25T10:39:13+02:00</time>
      </trkpt>
      <trkpt lat="43.5084" lon="6.9105">
        <ele>57.8165283</ele>
        <time>2012-03-25T10:39:22+02:00</time>
      </trkpt>
      <trkpt lat="43.50842" lon="6.91049">
        <ele>57.8165283</ele>
        <time>2012-03-25T10:39:24+02:00</time>
      </trkpt>
      <trkpt lat="43.50844" lon="6.91047">
        <ele>58.2971191</ele>
        <time>2012-03-25T10:39:26+02:00</time>
      </trkpt>
      <trkpt lat="43.50843" lon="6.91045">
        <ele>57.8165283</ele>
        <time>2012-03-25T10:39:32+02:00</time>
      </trkpt>
      <trkpt lat="43.50841" lon="6.91042">
        <ele>57.3358154</ele>
        <time>2012-03-25T10:39:36+02:00</time>
      </trkpt>
      <trkpt lat="43.50841" lon="6.91041">
        <ele>57.8165283</ele>
        <time>2012-03-25T10:39:42+02:00</time>
      </trkpt>
      <trkpt lat="43.50841" lon="6.91044">
        <ele>58.77771</ele>
        <time>2012-03-25T10:39:45+02:00</time>
      </trkpt>
      <trkpt lat="43.5084" lon="6.91049">
        <ele>59.2584229</ele>
        <time>2012-03-25T10:39:49+02:00</time>
      </trkpt>
      <trkpt lat="43.50841" lon="6.91051">
        <ele>59.2584229</ele>
        <time>2012-03-25T10:39:54+02:00</time>
      </trkpt>
      <trkpt lat="43.50843" lon="6.91056">
        <ele>60.7003174</ele>
        <time>2012-03-25T10:39:58+02:00</time>
      </trkpt>
      <trkpt lat="43.50842" lon="6.91058">
        <ele>60.2197266</ele>
        <time>2012-03-25T10:40:11+02:00</time>
      </trkpt>
      <trkpt lat="43.50842" lon="6.91059">
        <ele>61.1810303</ele>
        <time>2012-03-25T10:40:25+02:00</time>
      </trkpt>
      <trkpt lat="43.50843" lon="6.91064">
        <ele>61.1810303</ele>
        <time>2012-03-25T10:40:32+02:00</time>
      </trkpt>
      <trkpt lat="43.50842" lon="6.91072">
        <ele>62.142334</ele>
        <time>2012-03-25T10:40:38+02:00</time>
      </trkpt>
      <trkpt lat="43.50841" lon="6.91071">
        <ele>62.6229248</ele>
        <time>2012-03-25T10:40:44+02:00</time>
      </trkpt>
      <trkpt lat="43.50841" lon="6.91071">
        <ele>62.6229248</ele>
        <time>2012-03-25T10:40:54+02:00</time>
      </trkpt>
      <trkpt lat="43.50841" lon="6.91071">
        <ele>62.6229248</ele>
        <time>2012-03-25T10:41:06+02:00</time>
      </trkpt>
      <trkpt lat="43.50836" lon="6.91071">
        <ele>62.142334</ele>
        <time>2012-03-25T10:41:10+02:00</time>
      </trkpt>
      <trkpt lat="43.50823" lon="6.91074">
        <ele>62.6229248</ele>
        <time>2012-03-25T10:41:16+02:00</time>
      </trkpt>
      <trkpt lat="43.50802" lon="6.9108">
        <ele>63.5843506</ele>
        <time>2012-03-25T10:41:23+02:00</time>
      </trkpt>
      <trkpt lat="43.50788" lon="6.91085">
        <ele>64.0650635</ele>
        <time>2012-03-25T10:41:28+02:00</time>
      </trkpt>
      <trkpt lat="43.50761" lon="6.91093">
        <ele>65.0263672</ele>
        <time>2012-03-25T10:41:36+02:00</time>
      </trkpt>
      <trkpt lat="43.5074" lon="6.91101">
        <ele>66.4682617</ele>
        <time>2012-03-25T10:41:43+02:00</time>
      </trkpt>
      <trkpt lat="43.50725" lon="6.91108">
        <ele>67.4296875</ele>
        <time>2012-03-25T10:41:49+02:00</time>
      </trkpt>
      <trkpt lat="43.5071" lon="6.91111">
        <ele>68.871582</ele>
        <time>2012-03-25T10:41:55+02:00</time>
      </trkpt>
      <trkpt lat="43.50693" lon="6.91112">
        <ele>70.3134766</ele>
        <time>2012-03-25T10:42:02+02:00</time>
      </trkpt>
      <trkpt lat="43.5068" lon="6.91112">
        <ele>70.7941895</ele>
        <time>2012-03-25T10:42:07+02:00</time>
      </trkpt>
      <trkpt lat="43.50662" lon="6.91115">
        <ele>71.7554932</ele>
        <time>2012-03-25T10:42:14+02:00</time>
      </trkpt>
      <trkpt lat="43.50644" lon="6.91111">
        <ele>73.6782227</ele>
        <time>2012-03-25T10:42:22+02:00</time>
      </trkpt>
      <trkpt lat="43.50631" lon="6.9111">
        <ele>74.6395264</ele>
        <time>2012-03-25T10:42:28+02:00</time>
      </trkpt>
      <trkpt lat="43.50614" lon="6.91111">
        <ele>75.1202393</ele>
        <time>2012-03-25T10:42:35+02:00</time>
      </trkpt>
      <trkpt lat="43.50598" lon="6.91112">
        <ele>77.0428467</ele>
        <time>2012-03-25T10:42:42+02:00</time>
      </trkpt>
      <trkpt lat="43.5058" lon="6.91114">
        <ele>79.9266357</ele>
        <time>2012-03-25T10:42:50+02:00</time>
      </trkpt>
      <trkpt lat="43.50566" lon="6.91116">
        <ele>81.8493652</ele>
        <time>2012-03-25T10:42:56+02:00</time>
      </trkpt>
      <trkpt lat="43.50548" lon="6.91119">
        <ele>83.2913818</ele>
        <time>2012-03-25T10:43:04+02:00</time>
      </trkpt>
      <trkpt lat="43.50535" lon="6.9112">
        <ele>84.2526855</ele>
        <time>2012-03-25T10:43:10+02:00</time>
      </trkpt>
      <trkpt lat="43.50524" lon="6.91129">
        <ele>84.7333984</ele>
        <time>2012-03-25T10:43:17+02:00</time>
      </trkpt>
      <trkpt lat="43.50512" lon="6.91149">
        <ele>86.6560059</ele>
        <time>2012-03-25T10:43:26+02:00</time>
      </trkpt>
      <trkpt lat="43.50504" lon="6.91148">
        <ele>87.6171875</ele>
        <time>2012-03-25T10:43:30+02:00</time>
      </trkpt>
      <trkpt lat="43.50497" lon="6.91135">
        <ele>90.0206299</ele>
        <time>2012-03-25T10:43:36+02:00</time>
      </trkpt>
      <trkpt lat="43.50486" lon="6.91128">
        <ele>91.9432373</ele>
        <time>2012-03-25T10:43:42+02:00</time>
      </trkpt>
      <trkpt lat="43.50472" lon="6.91118">
        <ele>92.904541</ele>
        <time>2012-03-25T10:43:50+02:00</time>
      </trkpt>
      <trkpt lat="43.50462" lon="6.91112">
        <ele>93.3851318</ele>
        <time>2012-03-25T10:43:56+02:00</time>
      </trkpt>
      <trkpt lat="43.50462" lon="6.91121">
        <ele>94.8271484</ele>
        <time>2012-03-25T10:44:01+02:00</time>
      </trkpt>
      <trkpt lat="43.50475" lon="6.9113">
        <ele>95.7884521</ele>
        <time>2012-03-25T10:44:08+02:00</time>
      </trkpt>
      <trkpt lat="43.50488" lon="6.91144">
        <ele>96.2692871</ele>
        <time>2012-03-25T10:44:15+02:00</time>
      </trkpt>
      <trkpt lat="43.50501" lon="6.91167">
        <ele>94.8271484</ele>
        <time>2012-03-25T10:44:21+02:00</time>
      </trkpt>
      <trkpt lat="43.50507" lon="6.91173">
        <ele>94.8271484</ele>
        <time>2012-03-25T10:44:23+02:00</time>
      </trkpt>
      <trkpt lat="43.50525" lon="6.91164">
        <ele>95.7884521</ele>
        <time>2012-03-25T10:44:28+02:00</time>
      </trkpt>
      <trkpt lat="43.5054" lon="6.91165">
        <ele>97.2304688</ele>
        <time>2012-03-25T10:44:32+02:00</time>
      </trkpt>
      <trkpt lat="43.50548" lon="6.91172">
        <ele>98.1918945</ele>
        <time>2012-03-25T10:44:35+02:00</time>
      </trkpt>
      <trkpt lat="43.50561" lon="6.91187">
        <ele>99.6337891</ele>
        <time>2012-03-25T10:44:41+02:00</time>
      </trkpt>
      <trkpt lat="43.50576" lon="6.91201">
        <ele>99.6337891</ele>
        <time>2012-03-25T10:44:48+02:00</time>
      </trkpt>
      <trkpt lat="43.50602" lon="6.9122">
        <ele>100.595093</ele>
        <time>2012-03-25T10:44:56+02:00</time>
      </trkpt>
      <trkpt lat="43.50615" lon="6.9124">
        <ele>101.075684</ele>
        <time>2012-03-25T10:45:02+02:00</time>
      </trkpt>
      <trkpt lat="43.50625" lon="6.91257">
        <ele>102.5177</ele>
        <time>2012-03-25T10:45:08+02:00</time>
      </trkpt>
      <trkpt lat="43.50627" lon="6.91267">
        <ele>102.998291</ele>
        <time>2012-03-25T10:45:12+02:00</time>
      </trkpt>
      <trkpt lat="43.50625" lon="6.91274">
        <ele>103.479004</ele>
        <time>2012-03-25T10:45:19+02:00</time>
      </trkpt>
      <trkpt lat="43.50622" lon="6.91278">
        <ele>103.479004</ele>
        <time>2012-03-25T10:45:36+02:00</time>
      </trkpt>
      <trkpt lat="43.50609" lon="6.91294">
        <ele>102.998291</ele>
        <time>2012-03-25T10:45:42+02:00</time>
      </trkpt>
      <trkpt lat="43.50608" lon="6.9131">
        <ele>102.998291</ele>
        <time>2012-03-25T10:45:45+02:00</time>
      </trkpt>
      <trkpt lat="43.50618" lon="6.91326">
        <ele>103.479004</ele>
        <time>2012-03-25T10:45:49+02:00</time>
      </trkpt>
      <trkpt lat="43.50631" lon="6.91356">
        <ele>104.44043</ele>
        <time>2012-03-25T10:45:56+02:00</time>
      </trkpt>
      <trkpt lat="43.50632" lon="6.91379">
        <ele>105.401733</ele>
        <time>2012-03-25T10:46:02+02:00</time>
      </trkpt>
      <trkpt lat="43.50627" lon="6.91395">
        <ele>106.363037</ele>
        <time>2012-03-25T10:46:07+02:00</time>
      </trkpt>
      <trkpt lat="43.50619" lon="6.91419">
        <ele>104.921021</ele>
        <time>2012-03-25T10:46:12+02:00</time>
      </trkpt>
      <trkpt lat="43.50616" lon="6.91452">
        <ele>103.959717</ele>
        <time>2012-03-25T10:46:17+02:00</time>
      </trkpt>
      <trkpt lat="43.50624" lon="6.91472">
        <ele>102.998291</ele>
        <time>2012-03-25T10:46:21+02:00</time>
      </trkpt>
      <trkpt lat="43.50637" lon="6.91484">
        <ele>102.998291</ele>
        <time>2012-03-25T10:46:25+02:00</time>
      </trkpt>
      <trkpt lat="43.50647" lon="6.915">
        <ele>103.479004</ele>
        <time>2012-03-25T10:46:31+02:00</time>
      </trkpt>
      <trkpt lat="43.50646" lon="6.91501">
        <ele>104.921021</ele>
        <time>2012-03-25T10:46:36+02:00</time>
      </trkpt>
      <trkpt lat="43.50647" lon="6.91501">
        <ele>105.401733</ele>
        <time>2012-03-25T10:46:44+02:00</time>
      </trkpt>
      <trkpt lat="43.50648" lon="6.91501">
        <ele>105.882446</ele>
        <time>2012-03-25T10:46:55+02:00</time>
      </trkpt>
      <trkpt lat="43.50648" lon="6.91502">
        <ele>106.843628</ele>
        <time>2012-03-25T10:46:59+02:00</time>
      </trkpt>
      <trkpt lat="43.50645" lon="6.91521">
        <ele>105.401733</ele>
        <time>2012-03-25T10:47:03+02:00</time>
      </trkpt>
      <trkpt lat="43.50644" lon="6.91549">
        <ele>101.556396</ele>
        <time>2012-03-25T10:47:06+02:00</time>
      </trkpt>
      <trkpt lat="43.50657" lon="6.91579">
        <ele>96.2692871</ele>
        <time>2012-03-25T10:47:10+02:00</time>
      </trkpt>
      <trkpt lat="43.50671" lon="6.9159">
        <ele>93.3851318</ele>
        <time>2012-03-25T10:47:12+02:00</time>
      </trkpt>
      <trkpt lat="43.50722" lon="6.91632">
        <ele>84.7333984</ele>
        <time>2012-03-25T10:47:18+02:00</time>
      </trkpt>
      <trkpt lat="43.50729" lon="6.91638">
        <ele>84.2526855</ele>
        <time>2012-03-25T10:47:19+02:00</time>
      </trkpt>
      <trkpt lat="43.50744" lon="6.9167">
        <ele>81.8493652</ele>
        <time>2012-03-25T10:47:23+02:00</time>
      </trkpt>
      <trkpt lat="43.50742" lon="6.91716">
        <ele>79.9266357</ele>
        <time>2012-03-25T10:47:28+02:00</time>
      </trkpt>
      <trkpt lat="43.50747" lon="6.9173">
        <ele>78.9654541</ele>
        <time>2012-03-25T10:47:31+02:00</time>
      </trkpt>
      <trkpt lat="43.50759" lon="6.91724">
        <ele>78.4847412</ele>
        <time>2012-03-25T10:47:34+02:00</time>
      </trkpt>
      <trkpt lat="43.50772" lon="6.91712">
        <ele>78.0040283</ele>
        <time>2012-03-25T10:47:37+02:00</time>
      </trkpt>
      <trkpt lat="43.50782" lon="6.91696">
        <ele>78.0040283</ele>
        <time>2012-03-25T10:47:40+02:00</time>
      </trkpt>
      <trkpt lat="43.50792" lon="6.91671">
        <ele>78.4847412</ele>
        <time>2012-03-25T10:47:43+02:00</time>
      </trkpt>
      <trkpt lat="43.50814" lon="6.91622">
        <ele>78.4847412</ele>
        <time>2012-03-25T10:47:49+02:00</time>
      </trkpt>
      <trkpt lat="43.50841" lon="6.91591">
        <ele>79.9266357</ele>
        <time>2012-03-25T10:47:55+02:00</time>
      </trkpt>
      <trkpt lat="43.50849" lon="6.91583">
        <ele>80.8881836</ele>
        <time>2012-03-25T10:47:57+02:00</time>
      </trkpt>
      <trkpt lat="43.50871" lon="6.91554">
        <ele>81.8493652</ele>
        <time>2012-03-25T10:48:03+02:00</time>
      </trkpt>
      <trkpt lat="43.50889" lon="6.91538">
        <ele>81.3687744</ele>
        <time>2012-03-25T10:48:06+02:00</time>
      </trkpt>
      <trkpt lat="43.50901" lon="6.91523">
        <ele>80.4074707</ele>
        <time>2012-03-25T10:48:08+02:00</time>
      </trkpt>
      <trkpt lat="43.50931" lon="6.91505">
        <ele>78.4847412</ele>
        <time>2012-03-25T10:48:12+02:00</time>
      </trkpt>
      <trkpt lat="43.50981" lon="6.91484">
        <ele>74.6395264</ele>
        <time>2012-03-25T10:48:18+02:00</time>
      </trkpt>
      <trkpt lat="43.5099" lon="6.91481">
        <ele>73.1976318</ele>
        <time>2012-03-25T10:48:19+02:00</time>
      </trkpt>
      <trkpt lat="43.51044" lon="6.91476">
        <ele>69.8328857</ele>
        <time>2012-03-25T10:48:25+02:00</time>
      </trkpt>
      <trkpt lat="43.51095" lon="6.91459">
        <ele>69.3522949</ele>
        <time>2012-03-25T10:48:32+02:00</time>
      </trkpt>
      <trkpt lat="43.51136" lon="6.91444">
        <ele>67.9102783</ele>
        <time>2012-03-25T10:48:38+02:00</time>
      </trkpt>
      <trkpt lat="43.51151" lon="6.9144">
        <ele>68.3908691</ele>
        <time>2012-03-25T10:48:40+02:00</time>
      </trkpt>
      <trkpt lat="43.51188" lon="6.91446">
        <ele>67.9102783</ele>
        <time>2012-03-25T10:48:45+02:00</time>
      </trkpt>
      <trkpt lat="43.51212" lon="6.91451">
        <ele>68.3908691</ele>
        <time>2012-03-25T10:48:49+02:00</time>
      </trkpt>
      <trkpt lat="43.51233" lon="6.91462">
        <ele>68.3908691</ele>
        <time>2012-03-25T10:48:53+02:00</time>
      </trkpt>
      <trkpt lat="43.51265" lon="6.91487">
        <ele>69.8328857</ele>
        <time>2012-03-25T10:49:00+02:00</time>
      </trkpt>
      <trkpt lat="43.51277" lon="6.91497">
        <ele>70.3134766</ele>
        <time>2012-03-25T10:49:03+02:00</time>
      </trkpt>
      <trkpt lat="43.51293" lon="6.91516">
        <ele>69.8328857</ele>
        <time>2012-03-25T10:49:07+02:00</time>
      </trkpt>
      <trkpt lat="43.5132" lon="6.91555">
        <ele>66.9489746</ele>
        <time>2012-03-25T10:49:13+02:00</time>
      </trkpt>
      <trkpt lat="43.51324" lon="6.91562">
        <ele>66.4682617</ele>
        <time>2012-03-25T10:49:14+02:00</time>
      </trkpt>
      <trkpt lat="43.51343" lon="6.9159">
        <ele>64.5456543</ele>
        <time>2012-03-25T10:49:18+02:00</time>
      </trkpt>
      <trkpt lat="43.51358" lon="6.91601">
        <ele>62.6229248</ele>
        <time>2012-03-25T10:49:22+02:00</time>
      </trkpt>
      <trkpt lat="43.51361" lon="6.91598">
        <ele>62.142334</ele>
        <time>2012-03-25T10:49:23+02:00</time>
      </trkpt>
      <trkpt lat="43.51367" lon="6.91577">
        <ele>61.6617432</ele>
        <time>2012-03-25T10:49:28+02:00</time>
      </trkpt>
      <trkpt lat="43.51364" lon="6.91566">
        <ele>61.1810303</ele>
        <time>2012-03-25T10:49:30+02:00</time>
      </trkpt>
      <trkpt lat="43.51353" lon="6.91525">
        <ele>61.1810303</ele>
        <time>2012-03-25T10:49:37+02:00</time>
      </trkpt>
      <trkpt lat="43.51351" lon="6.91516">
        <ele>60.7003174</ele>
        <time>2012-03-25T10:49:39+02:00</time>
      </trkpt>
      <trkpt lat="43.51347" lon="6.91507">
        <ele>61.6617432</ele>
        <time>2012-03-25T10:49:43+02:00</time>
      </trkpt>
      <trkpt lat="43.51347" lon="6.91508">
        <ele>61.6617432</ele>
        <time>2012-03-25T10:49:45+02:00</time>
      </trkpt>
      <trkpt lat="43.51344" lon="6.91511">
        <ele>64.0650635</ele>
        <time>2012-03-25T10:49:50+02:00</time>
      </trkpt>
      <trkpt lat="43.51344" lon="6.91507">
        <ele>65.0263672</ele>
        <time>2012-03-25T10:49:54+02:00</time>
      </trkpt>
      <trkpt lat="43.51344" lon="6.91507">
        <ele>65.5070801</ele>
        <time>2012-03-25T10:50:01+02:00</time>
      </trkpt>
      <trkpt lat="43.51344" lon="6.9151">
        <ele>68.3908691</ele>
        <time>2012-03-25T10:50:10+02:00</time>
      </trkpt>
      <trkpt lat="43.51344" lon="6.91511">
        <ele>69.8328857</ele>
        <time>2012-03-25T10:50:16+02:00</time>
      </trkpt>
      <trkpt lat="43.51345" lon="6.91512">
        <ele>67.9102783</ele>
        <time>2012-03-25T10:50:23+02:00</time>
      </trkpt>
      <trkpt lat="43.51345" lon="6.91511">
        <ele>66.9489746</ele>
        <time>2012-03-25T10:50:30+02:00</time>
      </trkpt>
      <trkpt lat="43.51346" lon="6.91511">
        <ele>66.4682617</ele>
        <time>2012-03-25T10:50:45+02:00</time>
      </trkpt>
      <trkpt lat="43.51347" lon="6.9151">
        <ele>65.9876709</ele>
        <time>2012-03-25T10:50:53+02:00</time>
      </trkpt>
      <trkpt lat="43.51346" lon="6.91507">
        <ele>65.9876709</ele>
        <time>2012-03-25T10:50:59+02:00</time>
      </trkpt>
      <trkpt lat="43.51345" lon="6.91507">
        <ele>64.0650635</ele>
        <time>2012-03-25T10:51:05+02:00</time>
      </trkpt>
      <trkpt lat="43.51344" lon="6.91506">
        <ele>63.1036377</ele>
        <time>2012-03-25T10:51:17+02:00</time>
      </trkpt>
      <trkpt lat="43.51345" lon="6.91505">
        <ele>63.1036377</ele>
        <time>2012-03-25T10:51:21+02:00</time>
      </trkpt>
      <trkpt lat="43.51347" lon="6.91505">
        <ele>63.1036377</ele>
        <time>2012-03-25T10:51:29+02:00</time>
      </trkpt>
      <trkpt lat="43.51347" lon="6.91505">
        <ele>65.0263672</ele>
        <time>2012-03-25T10:51:37+02:00</time>
      </trkpt>
      <trkpt lat="43.51347" lon="6.91505">
        <ele>65.9876709</ele>
        <time>2012-03-25T10:51:44+02:00</time>
      </trkpt>
      <trkpt lat="43.51347" lon="6.91505">
        <ele>65.9876709</ele>
        <time>2012-03-25T10:51:48+02:00</time>
      </trkpt>
      <trkpt lat="43.51347" lon="6.91505">
        <ele>66.4682617</ele>
        <time>2012-03-25T10:51:59+02:00</time>
      </trkpt>
      <trkpt lat="43.51346" lon="6.91506">
        <ele>66.9489746</ele>
        <time>2012-03-25T10:52:07+02:00</time>
      </trkpt>
      <trkpt lat="43.51345" lon="6.91508">
        <ele>68.871582</ele>
        <time>2012-03-25T10:52:18+02:00</time>
      </trkpt>
      <trkpt lat="43.51345" lon="6.91508">
        <ele>68.871582</ele>
        <time>2012-03-25T10:52:27+02:00</time>
      </trkpt>
      <trkpt lat="43.51344" lon="6.91509">
        <ele>69.3522949</ele>
        <time>2012-03-25T10:52:33+02:00</time>
      </trkpt>
      <trkpt lat="43.51345" lon="6.91508">
        <ele>70.3134766</ele>
        <time>2012-03-25T10:52:41+02:00</time>
      </trkpt>
      <trkpt lat="43.51346" lon="6.91508">
        <ele>70.3134766</ele>
        <time>2012-03-25T10:52:49+02:00</time>
      </trkpt>
      <trkpt lat="43.51345" lon="6.91505">
        <ele>68.3908691</ele>
        <time>2012-03-25T10:52:59+02:00</time>
      </trkpt>
      <trkpt lat="43.51345" lon="6.91504">
        <ele>69.3522949</ele>
        <time>2012-03-25T10:53:09+02:00</time>
      </trkpt>
      <trkpt lat="43.51345" lon="6.91502">
        <ele>69.3522949</ele>
        <time>2012-03-25T10:53:18+02:00</time>
      </trkpt>
      <trkpt lat="43.51345" lon="6.91498">
        <ele>68.871582</ele>
        <time>2012-03-25T10:53:21+02:00</time>
      </trkpt>
      <trkpt lat="43.51345" lon="6.91495">
        <ele>68.3908691</ele>
        <time>2012-03-25T10:53:23+02:00</time>
      </trkpt>
      <trkpt lat="43.51346" lon="6.9149">
        <ele>67.4296875</ele>
        <time>2012-03-25T10:53:29+02:00</time>
      </trkpt>
      <trkpt lat="43.51348" lon="6.91484">
        <ele>66.9489746</ele>
        <time>2012-03-25T10:53:32+02:00</time>
      </trkpt>
      <trkpt lat="43.51351" lon="6.91481">
        <ele>67.9102783</ele>
        <time>2012-03-25T10:53:36+02:00</time>
      </trkpt>
      <trkpt lat="43.51351" lon="6.91481">
        <ele>67.9102783</ele>
        <time>2012-03-25T10:53:37+02:00</time>
      </trkpt>
      <trkpt lat="43.51347" lon="6.91481">
        <ele>67.9102783</ele>
        <time>2012-03-25T10:53:40+02:00</time>
      </trkpt>
      <trkpt lat="43.51344" lon="6.91471">
        <ele>67.9102783</ele>
        <time>2012-03-25T10:53:46+02:00</time>
      </trkpt>
      <trkpt lat="43.51344" lon="6.91469">
        <ele>67.9102783</ele>
        <time>2012-03-25T10:53:56+02:00</time>
      </trkpt>
      <trkpt lat="43.51347" lon="6.91466">
        <ele>67.4296875</ele>
        <time>2012-03-25T10:54:06+02:00</time>
      </trkpt>
      <trkpt lat="43.51348" lon="6.91466">
        <ele>67.4296875</ele>
        <time>2012-03-25T10:54:10+02:00</time>
      </trkpt>
      <trkpt lat="43.51349" lon="6.91466">
        <ele>67.4296875</ele>
        <time>2012-03-25T10:54:16+02:00</time>
      </trkpt>
      <trkpt lat="43.51352" lon="6.91464">
        <ele>69.3522949</ele>
        <time>2012-03-25T10:54:21+02:00</time>
      </trkpt>
      <trkpt lat="43.51355" lon="6.91463">
        <ele>71.2749023</ele>
        <time>2012-03-25T10:54:26+02:00</time>
      </trkpt>
      <trkpt lat="43.51358" lon="6.91462">
        <ele>72.2362061</ele>
        <time>2012-03-25T10:54:31+02:00</time>
      </trkpt>
      <trkpt lat="43.51361" lon="6.91459">
        <ele>74.1588135</ele>
        <time>2012-03-25T10:54:38+02:00</time>
      </trkpt>
      <trkpt lat="43.51364" lon="6.91457">
        <ele>76.5621338</ele>
        <time>2012-03-25T10:54:44+02:00</time>
      </trkpt>
      <trkpt lat="43.51367" lon="6.91457">
        <ele>78.9654541</ele>
        <time>2012-03-25T10:54:51+02:00</time>
      </trkpt>
      <trkpt lat="43.51371" lon="6.91454">
        <ele>83.2913818</ele>
        <time>2012-03-25T10:54:58+02:00</time>
      </trkpt>
      <trkpt lat="43.51374" lon="6.91452">
        <ele>86.175293</ele>
        <time>2012-03-25T10:55:04+02:00</time>
      </trkpt>
      <trkpt lat="43.51377" lon="6.91451">
        <ele>89.0593262</ele>
        <time>2012-03-25T10:55:11+02:00</time>
      </trkpt>
      <trkpt lat="43.51379" lon="6.91448">
        <ele>90.5013428</ele>
        <time>2012-03-25T10:55:16+02:00</time>
      </trkpt>
      <trkpt lat="43.51382" lon="6.91446">
        <ele>92.4239502</ele>
        <time>2012-03-25T10:55:23+02:00</time>
      </trkpt>
      <trkpt lat="43.51385" lon="6.91446">
        <ele>95.3077393</ele>
        <time>2012-03-25T10:55:32+02:00</time>
      </trkpt>
      <trkpt lat="43.51387" lon="6.91447">
        <ele>96.2692871</ele>
        <time>2012-03-25T10:55:37+02:00</time>
      </trkpt>
      <trkpt lat="43.5139" lon="6.91446">
        <ele>97.7111816</ele>
        <time>2012-03-25T10:55:43+02:00</time>
      </trkpt>
      <trkpt lat="43.51392" lon="6.91446">
        <ele>100.114502</ele>
        <time>2012-03-25T10:55:49+02:00</time>
      </trkpt>
      <trkpt lat="43.51392" lon="6.91446">
        <ele>102.5177</ele>
        <time>2012-03-25T10:55:55+02:00</time>
      </trkpt>
      <trkpt lat="43.51395" lon="6.9144">
        <ele>102.5177</ele>
        <time>2012-03-25T10:56:01+02:00</time>
      </trkpt>
      <trkpt lat="43.51396" lon="6.91438">
        <ele>102.037109</ele>
        <time>2012-03-25T10:56:08+02:00</time>
      </trkpt>
      <trkpt lat="43.51397" lon="6.91438">
        <ele>102.5177</ele>
        <time>2012-03-25T10:56:13+02:00</time>
      </trkpt>
      <trkpt lat="43.51397" lon="6.91439">
        <ele>102.5177</ele>
        <time>2012-03-25T10:56:15+02:00</time>
      </trkpt>
      <trkpt lat="43.51402" lon="6.91443">
        <ele>102.5177</ele>
        <time>2012-03-25T10:56:22+02:00</time>
      </trkpt>
      <trkpt lat="43.51403" lon="6.91446">
        <ele>104.44043</ele>
        <time>2012-03-25T10:56:28+02:00</time>
      </trkpt>
      <trkpt lat="43.51404" lon="6.91451">
        <ele>105.401733</ele>
        <time>2012-03-25T10:56:35+02:00</time>
      </trkpt>
      <trkpt lat="43.51406" lon="6.91454">
        <ele>106.843628</ele>
        <time>2012-03-25T10:56:40+02:00</time>
      </trkpt>
      <trkpt lat="43.51408" lon="6.91457">
        <ele>109.246948</ele>
        <time>2012-03-25T10:56:47+02:00</time>
      </trkpt>
      <trkpt lat="43.5141" lon="6.91458">
        <ele>110.208252</ele>
        <time>2012-03-25T10:56:53+02:00</time>
      </trkpt>
      <trkpt lat="43.51413" lon="6.9146">
        <ele>111.650269</ele>
        <time>2012-03-25T10:56:58+02:00</time>
      </trkpt>
      <trkpt lat="43.51414" lon="6.91461">
        <ele>112.611572</ele>
        <time>2012-03-25T10:57:03+02:00</time>
      </trkpt>
      <trkpt lat="43.51416" lon="6.91462">
        <ele>115.014893</ele>
        <time>2012-03-25T10:57:09+02:00</time>
      </trkpt>
      <trkpt lat="43.51418" lon="6.9146">
        <ele>116.456787</ele>
        <time>2012-03-25T10:57:14+02:00</time>
      </trkpt>
      <trkpt lat="43.5142" lon="6.91462">
        <ele>117.418213</ele>
        <time>2012-03-25T10:57:18+02:00</time>
      </trkpt>
      <trkpt lat="43.51422" lon="6.9146">
        <ele>119.34082</ele>
        <time>2012-03-25T10:57:22+02:00</time>
      </trkpt>
      <trkpt lat="43.51424" lon="6.9146">
        <ele>120.302124</ele>
        <time>2012-03-25T10:57:26+02:00</time>
      </trkpt>
      <trkpt lat="43.51425" lon="6.91459">
        <ele>119.821411</ele>
        <time>2012-03-25T10:57:31+02:00</time>
      </trkpt>
      <trkpt lat="43.51427" lon="6.91459">
        <ele>120.302124</ele>
        <time>2012-03-25T10:57:37+02:00</time>
      </trkpt>
      <trkpt lat="43.51428" lon="6.91457">
        <ele>120.782837</ele>
        <time>2012-03-25T10:57:41+02:00</time>
      </trkpt>
      <trkpt lat="43.51431" lon="6.91454">
        <ele>123.666748</ele>
        <time>2012-03-25T10:57:47+02:00</time>
      </trkpt>
      <trkpt lat="43.51433" lon="6.91452">
        <ele>125.108765</ele>
        <time>2012-03-25T10:57:52+02:00</time>
      </trkpt>
      <trkpt lat="43.51435" lon="6.9145">
        <ele>126.069946</ele>
        <time>2012-03-25T10:57:59+02:00</time>
      </trkpt>
      <trkpt lat="43.51437" lon="6.9145">
        <ele>128.473389</ele>
        <time>2012-03-25T10:58:04+02:00</time>
      </trkpt>
      <trkpt lat="43.51437" lon="6.91452">
        <ele>129.434692</ele>
        <time>2012-03-25T10:58:08+02:00</time>
      </trkpt>
      <trkpt lat="43.51439" lon="6.91454">
        <ele>131.837891</ele>
        <time>2012-03-25T10:58:15+02:00</time>
      </trkpt>
      <trkpt lat="43.5144" lon="6.91452">
        <ele>132.799316</ele>
        <time>2012-03-25T10:58:21+02:00</time>
      </trkpt>
      <trkpt lat="43.51441" lon="6.91449">
        <ele>133.279907</ele>
        <time>2012-03-25T10:58:26+02:00</time>
      </trkpt>
      <trkpt lat="43.51444" lon="6.91451">
        <ele>133.760498</ele>
        <time>2012-03-25T10:58:31+02:00</time>
      </trkpt>
      <trkpt lat="43.51444" lon="6.91452">
        <ele>134.721924</ele>
        <time>2012-03-25T10:58:42+02:00</time>
      </trkpt>
      <trkpt lat="43.51446" lon="6.91449">
        <ele>135.202515</ele>
        <time>2012-03-25T10:58:48+02:00</time>
      </trkpt>
      <trkpt lat="43.51446" lon="6.91448">
        <ele>135.202515</ele>
        <time>2012-03-25T10:58:53+02:00</time>
      </trkpt>
      <trkpt lat="43.51446" lon="6.91446">
        <ele>135.202515</ele>
        <time>2012-03-25T10:59:07+02:00</time>
      </trkpt>
      <trkpt lat="43.51449" lon="6.91443">
        <ele>135.683105</ele>
        <time>2012-03-25T10:59:13+02:00</time>
      </trkpt>
      <trkpt lat="43.51452" lon="6.91446">
        <ele>135.683105</ele>
        <time>2012-03-25T10:59:19+02:00</time>
      </trkpt>
      <trkpt lat="43.51453" lon="6.91443">
        <ele>136.16394</ele>
        <time>2012-03-25T10:59:23+02:00</time>
      </trkpt>
      <trkpt lat="43.51455" lon="6.9144">
        <ele>137.605835</ele>
        <time>2012-03-25T10:59:29+02:00</time>
      </trkpt>
      <trkpt lat="43.51458" lon="6.91437">
        <ele>139.047852</ele>
        <time>2012-03-25T10:59:34+02:00</time>
      </trkpt>
      <trkpt lat="43.5146" lon="6.91437">
        <ele>140.009155</ele>
        <time>2012-03-25T10:59:40+02:00</time>
      </trkpt>
      <trkpt lat="43.5146" lon="6.91439">
        <ele>140.489868</ele>
        <time>2012-03-25T10:59:51+02:00</time>
      </trkpt>
      <trkpt lat="43.51459" lon="6.9144">
        <ele>141.931763</ele>
        <time>2012-03-25T11:00:04+02:00</time>
      </trkpt>
      <trkpt lat="43.51457" lon="6.91437">
        <ele>141.45105</ele>
        <time>2012-03-25T11:00:12+02:00</time>
      </trkpt>
      <trkpt lat="43.51457" lon="6.91437">
        <ele>141.45105</ele>
        <time>2012-03-25T11:00:25+02:00</time>
      </trkpt>
      <trkpt lat="43.51458" lon="6.91438">
        <ele>142.412476</ele>
        <time>2012-03-25T11:00:38+02:00</time>
      </trkpt>
      <trkpt lat="43.5146" lon="6.91435">
        <ele>142.893066</ele>
        <time>2012-03-25T11:00:45+02:00</time>
      </trkpt>
      <trkpt lat="43.51463" lon="6.91434">
        <ele>144.335205</ele>
        <time>2012-03-25T11:00:51+02:00</time>
      </trkpt>
      <trkpt lat="43.51465" lon="6.91433">
        <ele>145.296387</ele>
        <time>2012-03-25T11:00:55+02:00</time>
      </trkpt>
      <trkpt lat="43.51468" lon="6.91433">
        <ele>146.738403</ele>
        <time>2012-03-25T11:00:59+02:00</time>
      </trkpt>
      <trkpt lat="43.51471" lon="6.91433">
        <ele>148.18042</ele>
        <time>2012-03-25T11:01:06+02:00</time>
      </trkpt>
      <trkpt lat="43.51472" lon="6.91429">
        <ele>149.141602</ele>
        <time>2012-03-25T11:01:13+02:00</time>
      </trkpt>
      <trkpt lat="43.51474" lon="6.91425">
        <ele>150.103027</ele>
        <time>2012-03-25T11:01:18+02:00</time>
      </trkpt>
      <trkpt lat="43.51478" lon="6.91424">
        <ele>151.544922</ele>
        <time>2012-03-25T11:01:25+02:00</time>
      </trkpt>
      <trkpt lat="43.51485" lon="6.91424">
        <ele>152.025757</ele>
        <time>2012-03-25T11:01:31+02:00</time>
      </trkpt>
      <trkpt lat="43.51486" lon="6.91424">
        <ele>152.025757</ele>
        <time>2012-03-25T11:01:32+02:00</time>
      </trkpt>
      <trkpt lat="43.5149" lon="6.91416">
        <ele>153.948364</ele>
        <time>2012-03-25T11:01:39+02:00</time>
      </trkpt>
      <trkpt lat="43.5149" lon="6.91415">
        <ele>153.948364</ele>
        <time>2012-03-25T11:01:40+02:00</time>
      </trkpt>
      <trkpt lat="43.51492" lon="6.91413">
        <ele>154.428955</ele>
        <time>2012-03-25T11:01:43+02:00</time>
      </trkpt>
      <trkpt lat="43.51498" lon="6.91411">
        <ele>154.909546</ele>
        <time>2012-03-25T11:01:49+02:00</time>
      </trkpt>
      <trkpt lat="43.51501" lon="6.9141">
        <ele>155.870972</ele>
        <time>2012-03-25T11:01:52+02:00</time>
      </trkpt>
      <trkpt lat="43.51508" lon="6.91413">
        <ele>156.832153</ele>
        <time>2012-03-25T11:01:59+02:00</time>
      </trkpt>
      <trkpt lat="43.51511" lon="6.91414">
        <ele>157.312866</ele>
        <time>2012-03-25T11:02:04+02:00</time>
      </trkpt>
      <trkpt lat="43.51512" lon="6.91414">
        <ele>157.793579</ele>
        <time>2012-03-25T11:02:10+02:00</time>
      </trkpt>
      <trkpt lat="43.51515" lon="6.91414">
        <ele>158.27417</ele>
        <time>2012-03-25T11:02:16+02:00</time>
      </trkpt>
      <trkpt lat="43.51519" lon="6.91415">
        <ele>158.27417</ele>
        <time>2012-03-25T11:02:19+02:00</time>
      </trkpt>
      <trkpt lat="43.51523" lon="6.91413">
        <ele>158.754761</ele>
        <time>2012-03-25T11:02:23+02:00</time>
      </trkpt>
      <trkpt lat="43.51526" lon="6.91407">
        <ele>159.235474</ele>
        <time>2012-03-25T11:02:30+02:00</time>
      </trkpt>
      <trkpt lat="43.51529" lon="6.91408">
        <ele>159.716187</ele>
        <time>2012-03-25T11:02:34+02:00</time>
      </trkpt>
      <trkpt lat="43.51531" lon="6.91406">
        <ele>160.196899</ele>
        <time>2012-03-25T11:02:40+02:00</time>
      </trkpt>
      <trkpt lat="43.51532" lon="6.91404">
        <ele>160.67749</ele>
        <time>2012-03-25T11:02:46+02:00</time>
      </trkpt>
      <trkpt lat="43.51531" lon="6.91407">
        <ele>160.67749</ele>
        <time>2012-03-25T11:02:54+02:00</time>
      </trkpt>
      <trkpt lat="43.51528" lon="6.91408">
        <ele>160.196899</ele>
        <time>2012-03-25T11:02:57+02:00</time>
      </trkpt>
      <trkpt lat="43.51521" lon="6.91414">
        <ele>159.235474</ele>
        <time>2012-03-25T11:03:02+02:00</time>
      </trkpt>
      <trkpt lat="43.51522" lon="6.91413">
        <ele>159.716187</ele>
        <time>2012-03-25T11:03:12+02:00</time>
      </trkpt>
      <trkpt lat="43.51524" lon="6.91412">
        <ele>160.196899</ele>
        <time>2012-03-25T11:03:17+02:00</time>
      </trkpt>
      <trkpt lat="43.51525" lon="6.91407">
        <ele>160.67749</ele>
        <time>2012-03-25T11:03:22+02:00</time>
      </trkpt>
      <trkpt lat="43.51524" lon="6.91404">
        <ele>160.196899</ele>
        <time>2012-03-25T11:03:27+02:00</time>
      </trkpt>
      <trkpt lat="43.51522" lon="6.91401">
        <ele>160.196899</ele>
        <time>2012-03-25T11:03:30+02:00</time>
      </trkpt>
      <trkpt lat="43.51523" lon="6.91397">
        <ele>159.235474</ele>
        <time>2012-03-25T11:03:32+02:00</time>
      </trkpt>
      <trkpt lat="43.51535" lon="6.9139">
        <ele>156.832153</ele>
        <time>2012-03-25T11:03:37+02:00</time>
      </trkpt>
      <trkpt lat="43.5154" lon="6.91381">
        <ele>155.390259</ele>
        <time>2012-03-25T11:03:42+02:00</time>
      </trkpt>
      <trkpt lat="43.51543" lon="6.91379">
        <ele>154.428955</ele>
        <time>2012-03-25T11:03:44+02:00</time>
      </trkpt>
      <trkpt lat="43.51548" lon="6.91376">
        <ele>155.390259</ele>
        <time>2012-03-25T11:03:48+02:00</time>
      </trkpt>
      <trkpt lat="43.51551" lon="6.91378">
        <ele>156.351562</ele>
        <time>2012-03-25T11:03:53+02:00</time>
      </trkpt>
      <trkpt lat="43.51553" lon="6.91381">
        <ele>156.351562</ele>
        <time>2012-03-25T11:03:59+02:00</time>
      </trkpt>
      <trkpt lat="43.51546" lon="6.91372">
        <ele>157.312866</ele>
        <time>2012-03-25T11:04:07+02:00</time>
      </trkpt>
      <trkpt lat="43.51544" lon="6.91373">
        <ele>157.312866</ele>
        <time>2012-03-25T11:04:12+02:00</time>
      </trkpt>
      <trkpt lat="43.51542" lon="6.91375">
        <ele>156.351562</ele>
        <time>2012-03-25T11:04:18+02:00</time>
      </trkpt>
      <trkpt lat="43.51539" lon="6.91384">
        <ele>156.351562</ele>
        <time>2012-03-25T11:04:21+02:00</time>
      </trkpt>
      <trkpt lat="43.51526" lon="6.91391">
        <ele>158.27417</ele>
        <time>2012-03-25T11:04:26+02:00</time>
      </trkpt>
      <trkpt lat="43.51524" lon="6.91398">
        <ele>159.235474</ele>
        <time>2012-03-25T11:04:30+02:00</time>
      </trkpt>
      <trkpt lat="43.51526" lon="6.91401">
        <ele>159.716187</ele>
        <time>2012-03-25T11:04:34+02:00</time>
      </trkpt>
      <trkpt lat="43.51526" lon="6.91403">
        <ele>160.196899</ele>
        <time>2012-03-25T11:04:44+02:00</time>
      </trkpt>
      <trkpt lat="43.51526" lon="6.91403">
        <ele>159.235474</ele>
        <time>2012-03-25T11:05:10+02:00</time>
      </trkpt>
      <trkpt lat="43.51526" lon="6.91406">
        <ele>158.27417</ele>
        <time>2012-03-25T11:05:33+02:00</time>
      </trkpt>
      <trkpt lat="43.51525" lon="6.9141">
        <ele>157.793579</ele>
        <time>2012-03-25T11:05:38+02:00</time>
      </trkpt>
      <trkpt lat="43.51528" lon="6.91413">
        <ele>157.793579</ele>
        <time>2012-03-25T11:05:43+02:00</time>
      </trkpt>
      <trkpt lat="43.51533" lon="6.91413">
        <ele>158.27417</ele>
        <time>2012-03-25T11:05:49+02:00</time>
      </trkpt>
      <trkpt lat="43.51538" lon="6.91414">
        <ele>159.235474</ele>
        <time>2012-03-25T11:05:56+02:00</time>
      </trkpt>
      <trkpt lat="43.51542" lon="6.91412">
        <ele>160.67749</ele>
        <time>2012-03-25T11:06:02+02:00</time>
      </trkpt>
      <trkpt lat="43.51546" lon="6.91416">
        <ele>161.158203</ele>
        <time>2012-03-25T11:06:07+02:00</time>
      </trkpt>
      <trkpt lat="43.5155" lon="6.91421">
        <ele>161.638916</ele>
        <time>2012-03-25T11:06:13+02:00</time>
      </trkpt>
      <trkpt lat="43.51554" lon="6.91421">
        <ele>162.600098</ele>
        <time>2012-03-25T11:06:18+02:00</time>
      </trkpt>
      <trkpt lat="43.51557" lon="6.9142">
        <ele>163.561523</ele>
        <time>2012-03-25T11:06:23+02:00</time>
      </trkpt>
      <trkpt lat="43.51563" lon="6.91429">
        <ele>163.080811</ele>
        <time>2012-03-25T11:06:32+02:00</time>
      </trkpt>
      <trkpt lat="43.51566" lon="6.91432">
        <ele>162.600098</ele>
        <time>2012-03-25T11:06:36+02:00</time>
      </trkpt>
      <trkpt lat="43.51569" lon="6.91441">
        <ele>161.638916</ele>
        <time>2012-03-25T11:06:43+02:00</time>
      </trkpt>
      <trkpt lat="43.51571" lon="6.91453">
        <ele>160.196899</ele>
        <time>2012-03-25T11:06:47+02:00</time>
      </trkpt>
      <trkpt lat="43.51571" lon="6.91465">
        <ele>159.235474</ele>
        <time>2012-03-25T11:06:52+02:00</time>
      </trkpt>
      <trkpt lat="43.5157" lon="6.9147">
        <ele>158.27417</ele>
        <time>2012-03-25T11:06:57+02:00</time>
      </trkpt>
      <trkpt lat="43.51571" lon="6.91472">
        <ele>157.793579</ele>
        <time>2012-03-25T11:07:01+02:00</time>
      </trkpt>
      <trkpt lat="43.51573" lon="6.91485">
        <ele>156.832153</ele>
        <time>2012-03-25T11:07:05+02:00</time>
      </trkpt>
      <trkpt lat="43.51573" lon="6.91488">
        <ele>156.351562</ele>
        <time>2012-03-25T11:07:06+02:00</time>
      </trkpt>
      <trkpt lat="43.51572" lon="6.91504">
        <ele>154.909546</ele>
        <time>2012-03-25T11:07:11+02:00</time>
      </trkpt>
      <trkpt lat="43.51571" lon="6.91521">
        <ele>153.948364</ele>
        <time>2012-03-25T11:07:16+02:00</time>
      </trkpt>
      <trkpt lat="43.51572" lon="6.91542">
        <ele>153.467651</ele>
        <time>2012-03-25T11:07:22+02:00</time>
      </trkpt>
      <trkpt lat="43.51575" lon="6.91559">
        <ele>153.467651</ele>
        <time>2012-03-25T11:07:27+02:00</time>
      </trkpt>
      <trkpt lat="43.51579" lon="6.91577">
        <ele>153.467651</ele>
        <time>2012-03-25T11:07:32+02:00</time>
      </trkpt>
      <trkpt lat="43.51585" lon="6.91596">
        <ele>152.506348</ele>
        <time>2012-03-25T11:07:38+02:00</time>
      </trkpt>
      <trkpt lat="43.51588" lon="6.9161">
        <ele>152.025757</ele>
        <time>2012-03-25T11:07:42+02:00</time>
      </trkpt>
      <trkpt lat="43.5159" lon="6.91621">
        <ele>151.064209</ele>
        <time>2012-03-25T11:07:45+02:00</time>
      </trkpt>
      <trkpt lat="43.51591" lon="6.91632">
        <ele>150.103027</ele>
        <time>2012-03-25T11:07:48+02:00</time>
      </trkpt>
      <trkpt lat="43.51589" lon="6.91645">
        <ele>147.699707</ele>
        <time>2012-03-25T11:07:52+02:00</time>
      </trkpt>
      <trkpt lat="43.51587" lon="6.91662">
        <ele>145.296387</ele>
        <time>2012-03-25T11:07:57+02:00</time>
      </trkpt>
      <trkpt lat="43.51586" lon="6.91672">
        <ele>143.373657</ele>
        <time>2012-03-25T11:08:01+02:00</time>
      </trkpt>
      <trkpt lat="43.5159" lon="6.91685">
        <ele>141.931763</ele>
        <time>2012-03-25T11:08:05+02:00</time>
      </trkpt>
      <trkpt lat="43.51595" lon="6.91696">
        <ele>140.489868</ele>
        <time>2012-03-25T11:08:09+02:00</time>
      </trkpt>
      <trkpt lat="43.51596" lon="6.91704">
        <ele>140.009155</ele>
        <time>2012-03-25T11:08:11+02:00</time>
      </trkpt>
      <trkpt lat="43.51596" lon="6.91722">
        <ele>139.047852</ele>
        <time>2012-03-25T11:08:16+02:00</time>
      </trkpt>
      <trkpt lat="43.51599" lon="6.9174">
        <ele>137.605835</ele>
        <time>2012-03-25T11:08:22+02:00</time>
      </trkpt>
      <trkpt lat="43.51602" lon="6.91758">
        <ele>135.683105</ele>
        <time>2012-03-25T11:08:28+02:00</time>
      </trkpt>
      <trkpt lat="43.51603" lon="6.91762">
        <ele>135.683105</ele>
        <time>2012-03-25T11:08:29+02:00</time>
      </trkpt>
      <trkpt lat="43.51605" lon="6.91775">
        <ele>134.721924</ele>
        <time>2012-03-25T11:08:33+02:00</time>
      </trkpt>
      <trkpt lat="43.5161" lon="6.91796">
        <ele>133.760498</ele>
        <time>2012-03-25T11:08:39+02:00</time>
      </trkpt>
      <trkpt lat="43.51616" lon="6.91815">
        <ele>134.241211</ele>
        <time>2012-03-25T11:08:45+02:00</time>
      </trkpt>
      <trkpt lat="43.51619" lon="6.91827">
        <ele>134.721924</ele>
        <time>2012-03-25T11:08:49+02:00</time>
      </trkpt>
      <trkpt lat="43.51621" lon="6.91845">
        <ele>135.202515</ele>
        <time>2012-03-25T11:08:54+02:00</time>
      </trkpt>
      <trkpt lat="43.51623" lon="6.91863">
        <ele>135.202515</ele>
        <time>2012-03-25T11:08:59+02:00</time>
      </trkpt>
      <trkpt lat="43.51626" lon="6.9188">
        <ele>134.241211</ele>
        <time>2012-03-25T11:09:04+02:00</time>
      </trkpt>
      <trkpt lat="43.51626" lon="6.919">
        <ele>133.279907</ele>
        <time>2012-03-25T11:09:09+02:00</time>
      </trkpt>
      <trkpt lat="43.51629" lon="6.91915">
        <ele>132.318604</ele>
        <time>2012-03-25T11:09:13+02:00</time>
      </trkpt>
      <trkpt lat="43.51633" lon="6.91933">
        <ele>130.876709</ele>
        <time>2012-03-25T11:09:18+02:00</time>
      </trkpt>
      <trkpt lat="43.51639" lon="6.9195">
        <ele>130.395996</ele>
        <time>2012-03-25T11:09:23+02:00</time>
      </trkpt>
      <trkpt lat="43.51644" lon="6.91964">
        <ele>129.434692</ele>
        <time>2012-03-25T11:09:27+02:00</time>
      </trkpt>
      <trkpt lat="43.51651" lon="6.91982">
        <ele>128.473389</ele>
        <time>2012-03-25T11:09:32+02:00</time>
      </trkpt>
      <trkpt lat="43.51661" lon="6.92">
        <ele>125.589355</ele>
        <time>2012-03-25T11:09:38+02:00</time>
      </trkpt>
      <trkpt lat="43.51669" lon="6.92017">
        <ele>123.186157</ele>
        <time>2012-03-25T11:09:43+02:00</time>
      </trkpt>
      <trkpt lat="43.51675" lon="6.92035">
        <ele>120.782837</ele>
        <time>2012-03-25T11:09:49+02:00</time>
      </trkpt>
      <trkpt lat="43.5168" lon="6.92057">
        <ele>116.456787</ele>
        <time>2012-03-25T11:09:56+02:00</time>
      </trkpt>
      <trkpt lat="43.5168" lon="6.92064">
        <ele>115.014893</ele>
        <time>2012-03-25T11:09:58+02:00</time>
      </trkpt>
      <trkpt lat="43.51675" lon="6.92078">
        <ele>111.650269</ele>
        <time>2012-03-25T11:10:03+02:00</time>
      </trkpt>
      <trkpt lat="43.51671" lon="6.9209">
        <ele>109.727661</ele>
        <time>2012-03-25T11:10:07+02:00</time>
      </trkpt>
      <trkpt lat="43.5167" lon="6.92096">
        <ele>108.766235</ele>
        <time>2012-03-25T11:10:09+02:00</time>
      </trkpt>
      <trkpt lat="43.51665" lon="6.92119">
        <ele>105.882446</ele>
        <time>2012-03-25T11:10:15+02:00</time>
      </trkpt>
      <trkpt lat="43.51659" lon="6.9213">
        <ele>103.479004</ele>
        <time>2012-03-25T11:10:20+02:00</time>
      </trkpt>
      <trkpt lat="43.51657" lon="6.92137">
        <ele>102.5177</ele>
        <time>2012-03-25T11:10:27+02:00</time>
      </trkpt>
      <trkpt lat="43.51658" lon="6.92152">
        <ele>99.6337891</ele>
        <time>2012-03-25T11:10:31+02:00</time>
      </trkpt>
      <trkpt lat="43.5166" lon="6.92168">
        <ele>98.1918945</ele>
        <time>2012-03-25T11:10:34+02:00</time>
      </trkpt>
      <trkpt lat="43.5166" lon="6.92191">
        <ele>96.2692871</ele>
        <time>2012-03-25T11:10:39+02:00</time>
      </trkpt>
      <trkpt lat="43.51659" lon="6.92206">
        <ele>96.2692871</ele>
        <time>2012-03-25T11:10:43+02:00</time>
      </trkpt>
      <trkpt lat="43.51659" lon="6.92226">
        <ele>97.2304688</ele>
        <time>2012-03-25T11:10:48+02:00</time>
      </trkpt>
      <trkpt lat="43.51657" lon="6.92247">
        <ele>94.8271484</ele>
        <time>2012-03-25T11:10:54+02:00</time>
      </trkpt>
      <trkpt lat="43.51658" lon="6.92265">
        <ele>94.3465576</ele>
        <time>2012-03-25T11:10:59+02:00</time>
      </trkpt>
      <trkpt lat="43.51659" lon="6.92283">
        <ele>95.3077393</ele>
        <time>2012-03-25T11:11:04+02:00</time>
      </trkpt>
      <trkpt lat="43.51664" lon="6.923">
        <ele>96.7498779</ele>
        <time>2012-03-25T11:11:09+02:00</time>
      </trkpt>
      <trkpt lat="43.51669" lon="6.92318">
        <ele>98.1918945</ele>
        <time>2012-03-25T11:11:15+02:00</time>
      </trkpt>
      <trkpt lat="43.51672" lon="6.92335">
        <ele>99.1530762</ele>
        <time>2012-03-25T11:11:21+02:00</time>
      </trkpt>
      <trkpt lat="43.51675" lon="6.92344">
        <ele>100.595093</ele>
        <time>2012-03-25T11:11:26+02:00</time>
      </trkpt>
      <trkpt lat="43.51678" lon="6.92351">
        <ele>102.037109</ele>
        <time>2012-03-25T11:11:31+02:00</time>
      </trkpt>
      <trkpt lat="43.51682" lon="6.92358">
        <ele>102.5177</ele>
        <time>2012-03-25T11:11:36+02:00</time>
      </trkpt>
      <trkpt lat="43.51686" lon="6.92372">
        <ele>105.401733</ele>
        <time>2012-03-25T11:11:44+02:00</time>
      </trkpt>
      <trkpt lat="43.51689" lon="6.92383">
        <ele>106.843628</ele>
        <time>2012-03-25T11:11:50+02:00</time>
      </trkpt>
      <trkpt lat="43.51689" lon="6.92385">
        <ele>106.843628</ele>
        <time>2012-03-25T11:11:52+02:00</time>
      </trkpt>
      <trkpt lat="43.51689" lon="6.92384">
        <ele>106.363037</ele>
        <time>2012-03-25T11:11:57+02:00</time>
      </trkpt>
      <trkpt lat="43.5169" lon="6.92386">
        <ele>106.363037</ele>
        <time>2012-03-25T11:12:02+02:00</time>
      </trkpt>
      <trkpt lat="43.51693" lon="6.92398">
        <ele>106.363037</ele>
        <time>2012-03-25T11:12:09+02:00</time>
      </trkpt>
      <trkpt lat="43.51693" lon="6.924">
        <ele>106.363037</ele>
        <time>2012-03-25T11:12:10+02:00</time>
      </trkpt>
      <trkpt lat="43.51697" lon="6.92412">
        <ele>106.843628</ele>
        <time>2012-03-25T11:12:18+02:00</time>
      </trkpt>
      <trkpt lat="43.51698" lon="6.92415">
        <ele>106.843628</ele>
        <time>2012-03-25T11:12:20+02:00</time>
      </trkpt>
      <trkpt lat="43.51703" lon="6.92433">
        <ele>106.843628</ele>
        <time>2012-03-25T11:12:26+02:00</time>
      </trkpt>
      <trkpt lat="43.51708" lon="6.92451">
        <ele>107.324341</ele>
        <time>2012-03-25T11:12:32+02:00</time>
      </trkpt>
      <trkpt lat="43.51714" lon="6.92466">
        <ele>108.285645</ele>
        <time>2012-03-25T11:12:37+02:00</time>
      </trkpt>
      <trkpt lat="43.51717" lon="6.92472">
        <ele>108.285645</ele>
        <time>2012-03-25T11:12:40+02:00</time>
      </trkpt>
      <trkpt lat="43.51719" lon="6.92473">
        <ele>107.805054</ele>
        <time>2012-03-25T11:12:43+02:00</time>
      </trkpt>
      <trkpt lat="43.51719" lon="6.92473">
        <ele>106.843628</ele>
        <time>2012-03-25T11:13:03+02:00</time>
      </trkpt>
      <trkpt lat="43.51718" lon="6.92473">
        <ele>106.363037</ele>
        <time>2012-03-25T11:13:19+02:00</time>
      </trkpt>
      <trkpt lat="43.51719" lon="6.92476">
        <ele>106.363037</ele>
        <time>2012-03-25T11:13:21+02:00</time>
      </trkpt>
      <trkpt lat="43.51724" lon="6.92488">
        <ele>106.363037</ele>
        <time>2012-03-25T11:13:25+02:00</time>
      </trkpt>
      <trkpt lat="43.51727" lon="6.92495">
        <ele>106.363037</ele>
        <time>2012-03-25T11:13:29+02:00</time>
      </trkpt>
      <trkpt lat="43.51733" lon="6.92504">
        <ele>105.401733</ele>
        <time>2012-03-25T11:13:36+02:00</time>
      </trkpt>
      <trkpt lat="43.51738" lon="6.92515">
        <ele>104.44043</ele>
        <time>2012-03-25T11:13:41+02:00</time>
      </trkpt>
      <trkpt lat="43.51744" lon="6.92526">
        <ele>103.479004</ele>
        <time>2012-03-25T11:13:45+02:00</time>
      </trkpt>
      <trkpt lat="43.51752" lon="6.92543">
        <ele>102.998291</ele>
        <time>2012-03-25T11:13:51+02:00</time>
      </trkpt>
      <trkpt lat="43.51757" lon="6.92553">
        <ele>102.5177</ele>
        <time>2012-03-25T11:13:55+02:00</time>
      </trkpt>
      <trkpt lat="43.51765" lon="6.92559">
        <ele>101.556396</ele>
        <time>2012-03-25T11:13:59+02:00</time>
      </trkpt>
      <trkpt lat="43.51767" lon="6.92568">
        <ele>100.595093</ele>
        <time>2012-03-25T11:14:01+02:00</time>
      </trkpt>
      <trkpt lat="43.51771" lon="6.92578">
        <ele>99.1530762</ele>
        <time>2012-03-25T11:14:05+02:00</time>
      </trkpt>
      <trkpt lat="43.51773" lon="6.92586">
        <ele>97.2304688</ele>
        <time>2012-03-25T11:14:08+02:00</time>
      </trkpt>
      <trkpt lat="43.5178" lon="6.92598">
        <ele>94.8271484</ele>
        <time>2012-03-25T11:14:13+02:00</time>
      </trkpt>
      <trkpt lat="43.51785" lon="6.92612">
        <ele>93.8658447</ele>
        <time>2012-03-25T11:14:17+02:00</time>
      </trkpt>
      <trkpt lat="43.51786" lon="6.92615">
        <ele>93.8658447</ele>
        <time>2012-03-25T11:14:18+02:00</time>
      </trkpt>
      <trkpt lat="43.51794" lon="6.92624">
        <ele>92.904541</ele>
        <time>2012-03-25T11:14:23+02:00</time>
      </trkpt>
      <trkpt lat="43.51802" lon="6.92638">
        <ele>91.9432373</ele>
        <time>2012-03-25T11:14:28+02:00</time>
      </trkpt>
      <trkpt lat="43.51808" lon="6.92653">
        <ele>90.0206299</ele>
        <time>2012-03-25T11:14:33+02:00</time>
      </trkpt>
      <trkpt lat="43.51809" lon="6.92666">
        <ele>90.0206299</ele>
        <time>2012-03-25T11:14:37+02:00</time>
      </trkpt>
      <trkpt lat="43.51809" lon="6.92668">
        <ele>89.539917</ele>
        <time>2012-03-25T11:14:38+02:00</time>
      </trkpt>
      <trkpt lat="43.51811" lon="6.92679">
        <ele>90.0206299</ele>
        <time>2012-03-25T11:14:44+02:00</time>
      </trkpt>
      <trkpt lat="43.51813" lon="6.92685">
        <ele>90.0206299</ele>
        <time>2012-03-25T11:14:46+02:00</time>
      </trkpt>
      <trkpt lat="43.51819" lon="6.92702">
        <ele>89.539917</ele>
        <time>2012-03-25T11:14:51+02:00</time>
      </trkpt>
      <trkpt lat="43.5182" lon="6.92712">
        <ele>89.0593262</ele>
        <time>2012-03-25T11:14:55+02:00</time>
      </trkpt>
      <trkpt lat="43.51818" lon="6.9272">
        <ele>89.0593262</ele>
        <time>2012-03-25T11:14:58+02:00</time>
      </trkpt>
      <trkpt lat="43.51821" lon="6.92731">
        <ele>88.0980225</ele>
        <time>2012-03-25T11:15:02+02:00</time>
      </trkpt>
      <trkpt lat="43.51831" lon="6.92748">
        <ele>85.2139893</ele>
        <time>2012-03-25T11:15:08+02:00</time>
      </trkpt>
      <trkpt lat="43.51837" lon="6.92761">
        <ele>85.2139893</ele>
        <time>2012-03-25T11:15:12+02:00</time>
      </trkpt>
      <trkpt lat="43.51841" lon="6.92772">
        <ele>86.175293</ele>
        <time>2012-03-25T11:15:18+02:00</time>
      </trkpt>
      <trkpt lat="43.51842" lon="6.9278">
        <ele>87.6171875</ele>
        <time>2012-03-25T11:15:22+02:00</time>
      </trkpt>
      <trkpt lat="43.51842" lon="6.92792">
        <ele>90.0206299</ele>
        <time>2012-03-25T11:15:26+02:00</time>
      </trkpt>
      <trkpt lat="43.51846" lon="6.92805">
        <ele>90.9819336</ele>
        <time>2012-03-25T11:15:31+02:00</time>
      </trkpt>
      <trkpt lat="43.51848" lon="6.92813">
        <ele>91.9432373</ele>
        <time>2012-03-25T11:15:35+02:00</time>
      </trkpt>
      <trkpt lat="43.51852" lon="6.92821">
        <ele>93.8658447</ele>
        <time>2012-03-25T11:15:40+02:00</time>
      </trkpt>
      <trkpt lat="43.51855" lon="6.92829">
        <ele>94.8271484</ele>
        <time>2012-03-25T11:15:45+02:00</time>
      </trkpt>
      <trkpt lat="43.51856" lon="6.92841">
        <ele>94.8271484</ele>
        <time>2012-03-25T11:15:51+02:00</time>
      </trkpt>
      <trkpt lat="43.51865" lon="6.92855">
        <ele>94.8271484</ele>
        <time>2012-03-25T11:16:00+02:00</time>
      </trkpt>
      <trkpt lat="43.51865" lon="6.92865">
        <ele>95.7884521</ele>
        <time>2012-03-25T11:16:06+02:00</time>
      </trkpt>
      <trkpt lat="43.51865" lon="6.9287">
        <ele>95.7884521</ele>
        <time>2012-03-25T11:16:11+02:00</time>
      </trkpt>
      <trkpt lat="43.51866" lon="6.92873">
        <ele>95.7884521</ele>
        <time>2012-03-25T11:16:16+02:00</time>
      </trkpt>
      <trkpt lat="43.51867" lon="6.92875">
        <ele>96.2692871</ele>
        <time>2012-03-25T11:16:17+02:00</time>
      </trkpt>
      <trkpt lat="43.51873" lon="6.92896">
        <ele>96.2692871</ele>
        <time>2012-03-25T11:16:28+02:00</time>
      </trkpt>
      <trkpt lat="43.51878" lon="6.92907">
        <ele>95.3077393</ele>
        <time>2012-03-25T11:16:34+02:00</time>
      </trkpt>
      <trkpt lat="43.51887" lon="6.92901">
        <ele>93.8658447</ele>
        <time>2012-03-25T11:16:39+02:00</time>
      </trkpt>
      <trkpt lat="43.5189" lon="6.92901">
        <ele>93.3851318</ele>
        <time>2012-03-25T11:16:44+02:00</time>
      </trkpt>
      <trkpt lat="43.51889" lon="6.92897">
        <ele>92.4239502</ele>
        <time>2012-03-25T11:16:48+02:00</time>
      </trkpt>
      <trkpt lat="43.5189" lon="6.92897">
        <ele>92.4239502</ele>
        <time>2012-03-25T11:16:54+02:00</time>
      </trkpt>
      <trkpt lat="43.51889" lon="6.92896">
        <ele>91.9432373</ele>
        <time>2012-03-25T11:16:58+02:00</time>
      </trkpt>
      <trkpt lat="43.51889" lon="6.92882">
        <ele>91.9432373</ele>
        <time>2012-03-25T11:17:03+02:00</time>
      </trkpt>
      <trkpt lat="43.51894" lon="6.92865">
        <ele>89.539917</ele>
        <time>2012-03-25T11:17:08+02:00</time>
      </trkpt>
      <trkpt lat="43.51896" lon="6.9285">
        <ele>88.0980225</ele>
        <time>2012-03-25T11:17:12+02:00</time>
      </trkpt>
      <trkpt lat="43.51896" lon="6.92842">
        <ele>87.1365967</ele>
        <time>2012-03-25T11:17:14+02:00</time>
      </trkpt>
      <trkpt lat="43.51898" lon="6.92818">
        <ele>84.2526855</ele>
        <time>2012-03-25T11:17:20+02:00</time>
      </trkpt>
      <trkpt lat="43.51899" lon="6.92809">
        <ele>82.810791</ele>
        <time>2012-03-25T11:17:23+02:00</time>
      </trkpt>
      <trkpt lat="43.51899" lon="6.92799">
        <ele>80.8881836</ele>
        <time>2012-03-25T11:17:26+02:00</time>
      </trkpt>
      <trkpt lat="43.51894" lon="6.92778">
        <ele>78.0040283</ele>
        <time>2012-03-25T11:17:32+02:00</time>
      </trkpt>
      <trkpt lat="43.519" lon="6.92771">
        <ele>76.5621338</ele>
        <time>2012-03-25T11:17:35+02:00</time>
      </trkpt>
      <trkpt lat="43.51907" lon="6.92776">
        <ele>74.6395264</ele>
        <time>2012-03-25T11:17:38+02:00</time>
      </trkpt>
      <trkpt lat="43.51916" lon="6.92785">
        <ele>72.7169189</ele>
        <time>2012-03-25T11:17:42+02:00</time>
      </trkpt>
      <trkpt lat="43.5192" lon="6.92791">
        <ele>71.2749023</ele>
        <time>2012-03-25T11:17:44+02:00</time>
      </trkpt>
      <trkpt lat="43.51932" lon="6.928">
        <ele>68.3908691</ele>
        <time>2012-03-25T11:17:49+02:00</time>
      </trkpt>
      <trkpt lat="43.51942" lon="6.92805">
        <ele>65.5070801</ele>
        <time>2012-03-25T11:17:53+02:00</time>
      </trkpt>
      <trkpt lat="43.51943" lon="6.92807">
        <ele>65.0263672</ele>
        <time>2012-03-25T11:17:59+02:00</time>
      </trkpt>
      <trkpt lat="43.51944" lon="6.92813">
        <ele>65.9876709</ele>
        <time>2012-03-25T11:18:07+02:00</time>
      </trkpt>
      <trkpt lat="43.51942" lon="6.92828">
        <ele>66.4682617</ele>
        <time>2012-03-25T11:18:14+02:00</time>
      </trkpt>
      <trkpt lat="43.51939" lon="6.9284">
        <ele>66.9489746</ele>
        <time>2012-03-25T11:18:18+02:00</time>
      </trkpt>
      <trkpt lat="43.5194" lon="6.92858">
        <ele>66.9489746</ele>
        <time>2012-03-25T11:18:23+02:00</time>
      </trkpt>
      <trkpt lat="43.51943" lon="6.92875">
        <ele>67.4296875</ele>
        <time>2012-03-25T11:18:28+02:00</time>
      </trkpt>
      <trkpt lat="43.51952" lon="6.92901">
        <ele>65.5070801</ele>
        <time>2012-03-25T11:18:35+02:00</time>
      </trkpt>
      <trkpt lat="43.51957" lon="6.92917">
        <ele>63.1036377</ele>
        <time>2012-03-25T11:18:39+02:00</time>
      </trkpt>
      <trkpt lat="43.51959" lon="6.92928">
        <ele>61.6617432</ele>
        <time>2012-03-25T11:18:42+02:00</time>
      </trkpt>
      <trkpt lat="43.51963" lon="6.92952">
        <ele>59.7391357</ele>
        <time>2012-03-25T11:18:48+02:00</time>
      </trkpt>
      <trkpt lat="43.51966" lon="6.92963">
        <ele>58.77771</ele>
        <time>2012-03-25T11:18:51+02:00</time>
      </trkpt>
      <trkpt lat="43.51968" lon="6.92979">
        <ele>57.3358154</ele>
        <time>2012-03-25T11:18:56+02:00</time>
      </trkpt>
      <trkpt lat="43.51969" lon="6.92982">
        <ele>56.8551025</ele>
        <time>2012-03-25T11:18:57+02:00</time>
      </trkpt>
      <trkpt lat="43.51972" lon="6.92998">
        <ele>54.932373</ele>
        <time>2012-03-25T11:19:02+02:00</time>
      </trkpt>
      <trkpt lat="43.51976" lon="6.93014">
        <ele>51.5678711</ele>
        <time>2012-03-25T11:19:07+02:00</time>
      </trkpt>
      <trkpt lat="43.51976" lon="6.9303">
        <ele>49.1645508</ele>
        <time>2012-03-25T11:19:12+02:00</time>
      </trkpt>
      <trkpt lat="43.51977" lon="6.93042">
        <ele>46.7612305</ele>
        <time>2012-03-25T11:19:16+02:00</time>
      </trkpt>
      <trkpt lat="43.51976" lon="6.93046">
        <ele>46.7612305</ele>
        <time>2012-03-25T11:19:17+02:00</time>
      </trkpt>
      <trkpt lat="43.51975" lon="6.93054">
        <ele>44.838623</ele>
        <time>2012-03-25T11:19:20+02:00</time>
      </trkpt>
      <trkpt lat="43.51971" lon="6.93061">
        <ele>43.3966064</ele>
        <time>2012-03-25T11:19:25+02:00</time>
      </trkpt>
      <trkpt lat="43.51972" lon="6.93064">
        <ele>43.8773193</ele>
        <time>2012-03-25T11:19:27+02:00</time>
      </trkpt>
      <trkpt lat="43.51972" lon="6.93067">
        <ele>44.838623</ele>
        <time>2012-03-25T11:19:33+02:00</time>
      </trkpt>
      <trkpt lat="43.51972" lon="6.93075">
        <ele>45.3192139</ele>
        <time>2012-03-25T11:19:37+02:00</time>
      </trkpt>
      <trkpt lat="43.51976" lon="6.93098">
        <ele>46.2806396</ele>
        <time>2012-03-25T11:19:44+02:00</time>
      </trkpt>
      <trkpt lat="43.51978" lon="6.93107">
        <ele>47.2418213</ele>
        <time>2012-03-25T11:19:48+02:00</time>
      </trkpt>
      <trkpt lat="43.51983" lon="6.93118">
        <ele>48.2033691</ele>
        <time>2012-03-25T11:19:52+02:00</time>
      </trkpt>
      <trkpt lat="43.5199" lon="6.93134">
        <ele>47.7225342</ele>
        <time>2012-03-25T11:19:58+02:00</time>
      </trkpt>
      <trkpt lat="43.51991" lon="6.9314">
        <ele>48.2033691</ele>
        <time>2012-03-25T11:20:03+02:00</time>
      </trkpt>
      <trkpt lat="43.51991" lon="6.93141">
        <ele>48.68396</ele>
        <time>2012-03-25T11:20:04+02:00</time>
      </trkpt>
      <trkpt lat="43.51996" lon="6.9315">
        <ele>48.2033691</ele>
        <time>2012-03-25T11:20:10+02:00</time>
      </trkpt>
      <trkpt lat="43.52" lon="6.93159">
        <ele>47.7225342</ele>
        <time>2012-03-25T11:20:16+02:00</time>
      </trkpt>
      <trkpt lat="43.52004" lon="6.93168">
        <ele>48.2033691</ele>
        <time>2012-03-25T11:20:21+02:00</time>
      </trkpt>
      <trkpt lat="43.52008" lon="6.93175">
        <ele>48.2033691</ele>
        <time>2012-03-25T11:20:25+02:00</time>
      </trkpt>
      <trkpt lat="43.52007" lon="6.93183">
        <ele>47.2418213</ele>
        <time>2012-03-25T11:20:29+02:00</time>
      </trkpt>
      <trkpt lat="43.52007" lon="6.93192">
        <ele>46.2806396</ele>
        <time>2012-03-25T11:20:36+02:00</time>
      </trkpt>
      <trkpt lat="43.52009" lon="6.93202">
        <ele>46.7612305</ele>
        <time>2012-03-25T11:20:42+02:00</time>
      </trkpt>
      <trkpt lat="43.5201" lon="6.93212">
        <ele>46.7612305</ele>
        <time>2012-03-25T11:20:48+02:00</time>
      </trkpt>
      <trkpt lat="43.52012" lon="6.93222">
        <ele>46.7612305</ele>
        <time>2012-03-25T11:20:54+02:00</time>
      </trkpt>
      <trkpt lat="43.52012" lon="6.93236">
        <ele>44.838623</ele>
        <time>2012-03-25T11:20:59+02:00</time>
      </trkpt>
      <trkpt lat="43.52011" lon="6.93254">
        <ele>44.838623</ele>
        <time>2012-03-25T11:21:05+02:00</time>
      </trkpt>
      <trkpt lat="43.52018" lon="6.93274">
        <ele>44.838623</ele>
        <time>2012-03-25T11:21:11+02:00</time>
      </trkpt>
      <trkpt lat="43.52023" lon="6.93291">
        <ele>46.2806396</ele>
        <time>2012-03-25T11:21:16+02:00</time>
      </trkpt>
      <trkpt lat="43.52027" lon="6.93312">
        <ele>47.7225342</ele>
        <time>2012-03-25T11:21:21+02:00</time>
      </trkpt>
      <trkpt lat="43.52027" lon="6.93316">
        <ele>47.2418213</ele>
        <time>2012-03-25T11:21:22+02:00</time>
      </trkpt>
      <trkpt lat="43.52031" lon="6.93335">
        <ele>45.7999268</ele>
        <time>2012-03-25T11:21:28+02:00</time>
      </trkpt>
      <trkpt lat="43.52037" lon="6.93345">
        <ele>44.838623</ele>
        <time>2012-03-25T11:21:32+02:00</time>
      </trkpt>
      <trkpt lat="43.52039" lon="6.93348">
        <ele>44.838623</ele>
        <time>2012-03-25T11:21:33+02:00</time>
      </trkpt>
      <trkpt lat="43.52047" lon="6.93364">
        <ele>44.3580322</ele>
        <time>2012-03-25T11:21:39+02:00</time>
      </trkpt>
      <trkpt lat="43.52053" lon="6.93367">
        <ele>43.3966064</ele>
        <time>2012-03-25T11:21:42+02:00</time>
      </trkpt>
      <trkpt lat="43.52066" lon="6.93368">
        <ele>43.3966064</ele>
        <time>2012-03-25T11:21:47+02:00</time>
      </trkpt>
      <trkpt lat="43.52072" lon="6.93362">
        <ele>42.9160156</ele>
        <time>2012-03-25T11:21:50+02:00</time>
      </trkpt>
      <trkpt lat="43.52085" lon="6.93358">
        <ele>42.9160156</ele>
        <time>2012-03-25T11:21:55+02:00</time>
      </trkpt>
      <trkpt lat="43.52094" lon="6.93359">
        <ele>40.9934082</ele>
        <time>2012-03-25T11:21:59+02:00</time>
      </trkpt>
      <trkpt lat="43.52096" lon="6.93363">
        <ele>39.5512695</ele>
        <time>2012-03-25T11:22:01+02:00</time>
      </trkpt>
      <trkpt lat="43.52104" lon="6.93371">
        <ele>37.6286621</ele>
        <time>2012-03-25T11:22:05+02:00</time>
      </trkpt>
      <trkpt lat="43.52113" lon="6.93381">
        <ele>34.2641602</ele>
        <time>2012-03-25T11:22:10+02:00</time>
      </trkpt>
      <trkpt lat="43.52116" lon="6.93388">
        <ele>29.9381104</ele>
        <time>2012-03-25T11:22:15+02:00</time>
      </trkpt>
      <trkpt lat="43.52119" lon="6.93403">
        <ele>25.1317139</ele>
        <time>2012-03-25T11:22:21+02:00</time>
      </trkpt>
      <trkpt lat="43.52125" lon="6.93415">
        <ele>21.7669678</ele>
        <time>2012-03-25T11:22:25+02:00</time>
      </trkpt>
      <trkpt lat="43.52137" lon="6.93419">
        <ele>17.4411621</ele>
        <time>2012-03-25T11:22:30+02:00</time>
      </trkpt>
      <trkpt lat="43.52149" lon="6.93415">
        <ele>14.5570068</ele>
        <time>2012-03-25T11:22:35+02:00</time>
      </trkpt>
      <trkpt lat="43.52157" lon="6.93414">
        <ele>11.1925049</ele>
        <time>2012-03-25T11:22:39+02:00</time>
      </trkpt>
      <trkpt lat="43.52161" lon="6.93416">
        <ele>10.2312012</ele>
        <time>2012-03-25T11:22:41+02:00</time>
      </trkpt>
      <trkpt lat="43.52165" lon="6.93408">
        <ele>9.75061035</ele>
        <time>2012-03-25T11:22:45+02:00</time>
      </trkpt>
      <trkpt lat="43.52166" lon="6.93396">
        <ele>10.2312012</ele>
        <time>2012-03-25T11:22:50+02:00</time>
      </trkpt>
      <trkpt lat="43.52169" lon="6.93391">
        <ele>11.6732178</ele>
        <time>2012-03-25T11:22:52+02:00</time>
      </trkpt>
      <trkpt lat="43.52172" lon="6.93388">
        <ele>12.6343994</ele>
        <time>2012-03-25T11:22:54+02:00</time>
      </trkpt>
      <trkpt lat="43.52177" lon="6.93388">
        <ele>15.9990234</ele>
        <time>2012-03-25T11:23:00+02:00</time>
      </trkpt>
      <trkpt lat="43.52178" lon="6.9339">
        <ele>18.4023438</ele>
        <time>2012-03-25T11:23:07+02:00</time>
      </trkpt>
      <trkpt lat="43.5218" lon="6.93395">
        <ele>18.8830566</ele>
        <time>2012-03-25T11:23:13+02:00</time>
      </trkpt>
      <trkpt lat="43.52182" lon="6.93396">
        <ele>22.2475586</ele>
        <time>2012-03-25T11:23:19+02:00</time>
      </trkpt>
      <trkpt lat="43.52184" lon="6.93399">
        <ele>23.6895752</ele>
        <time>2012-03-25T11:23:24+02:00</time>
      </trkpt>
      <trkpt lat="43.52189" lon="6.93401">
        <ele>25.1317139</ele>
        <time>2012-03-25T11:23:30+02:00</time>
      </trkpt>
      <trkpt lat="43.52192" lon="6.93398">
        <ele>25.6123047</ele>
        <time>2012-03-25T11:23:33+02:00</time>
      </trkpt>
      <trkpt lat="43.52198" lon="6.93386">
        <ele>27.5349121</ele>
        <time>2012-03-25T11:23:41+02:00</time>
      </trkpt>
      <trkpt lat="43.52204" lon="6.9338">
        <ele>28.9769287</ele>
        <time>2012-03-25T11:23:46+02:00</time>
      </trkpt>
      <trkpt lat="43.52206" lon="6.93376">
        <ele>28.4962158</ele>
        <time>2012-03-25T11:23:48+02:00</time>
      </trkpt>
      <trkpt lat="43.52208" lon="6.93369">
        <ele>28.0155029</ele>
        <time>2012-03-25T11:23:52+02:00</time>
      </trkpt>
      <trkpt lat="43.52209" lon="6.93368">
        <ele>29.4575195</ele>
        <time>2012-03-25T11:24:00+02:00</time>
      </trkpt>
      <trkpt lat="43.52208" lon="6.93368">
        <ele>29.9381104</ele>
        <time>2012-03-25T11:24:08+02:00</time>
      </trkpt>
      <trkpt lat="43.52208" lon="6.93369">
        <ele>29.9381104</ele>
        <time>2012-03-25T11:24:19+02:00</time>
      </trkpt>
      <trkpt lat="43.52208" lon="6.9337">
        <ele>29.9381104</ele>
        <time>2012-03-25T11:24:29+02:00</time>
      </trkpt>
      <trkpt lat="43.52209" lon="6.93369">
        <ele>32.8222656</ele>
        <time>2012-03-25T11:24:44+02:00</time>
      </trkpt>
      <trkpt lat="43.52209" lon="6.93368">
        <ele>33.3028564</ele>
        <time>2012-03-25T11:24:57+02:00</time>
      </trkpt>
      <trkpt lat="43.52211" lon="6.93366">
        <ele>37.6286621</ele>
        <time>2012-03-25T11:25:11+02:00</time>
      </trkpt>
      <trkpt lat="43.52212" lon="6.93365">
        <ele>39.5512695</ele>
        <time>2012-03-25T11:25:31+02:00</time>
      </trkpt>
      <trkpt lat="43.52212" lon="6.93366">
        <ele>38.5900879</ele>
        <time>2012-03-25T11:25:37+02:00</time>
      </trkpt>
      <trkpt lat="43.5221" lon="6.93367">
        <ele>36.1867676</ele>
        <time>2012-03-25T11:25:51+02:00</time>
      </trkpt>
      <trkpt lat="43.52209" lon="6.93366">
        <ele>33.7834473</ele>
        <time>2012-03-25T11:25:59+02:00</time>
      </trkpt>
      <trkpt lat="43.52208" lon="6.93365">
        <ele>35.2254639</ele>
        <time>2012-03-25T11:26:19+02:00</time>
      </trkpt>
      <trkpt lat="43.52211" lon="6.93364">
        <ele>34.744873</ele>
        <time>2012-03-25T11:26:25+02:00</time>
      </trkpt>
      <trkpt lat="43.5221" lon="6.9336">
        <ele>33.7834473</ele>
        <time>2012-03-25T11:26:30+02:00</time>
      </trkpt>
      <trkpt lat="43.5221" lon="6.93356">
        <ele>33.3028564</ele>
        <time>2012-03-25T11:26:32+02:00</time>
      </trkpt>
      <trkpt lat="43.52212" lon="6.93349">
        <ele>33.3028564</ele>
        <time>2012-03-25T11:26:35+02:00</time>
      </trkpt>
      <trkpt lat="43.52213" lon="6.93329">
        <ele>30.8995361</ele>
        <time>2012-03-25T11:26:42+02:00</time>
      </trkpt>
      <trkpt lat="43.52214" lon="6.93326">
        <ele>30.8995361</ele>
        <time>2012-03-25T11:26:43+02:00</time>
      </trkpt>
      <trkpt lat="43.52221" lon="6.93313">
        <ele>30.4188232</ele>
        <time>2012-03-25T11:26:48+02:00</time>
      </trkpt>
      <trkpt lat="43.52229" lon="6.93299">
        <ele>29.9381104</ele>
        <time>2012-03-25T11:26:53+02:00</time>
      </trkpt>
      <trkpt lat="43.52236" lon="6.93295">
        <ele>29.9381104</ele>
        <time>2012-03-25T11:26:56+02:00</time>
      </trkpt>
      <trkpt lat="43.5225" lon="6.93296">
        <ele>29.9381104</ele>
        <time>2012-03-25T11:27:02+02:00</time>
      </trkpt>
      <trkpt lat="43.52257" lon="6.93299">
        <ele>28.4962158</ele>
        <time>2012-03-25T11:27:05+02:00</time>
      </trkpt>
      <trkpt lat="43.52269" lon="6.93285">
        <ele>23.6895752</ele>
        <time>2012-03-25T11:27:11+02:00</time>
      </trkpt>
      <trkpt lat="43.52283" lon="6.93274">
        <ele>20.8056641</ele>
        <time>2012-03-25T11:27:17+02:00</time>
      </trkpt>
      <trkpt lat="43.52292" lon="6.93277">
        <ele>18.8830566</ele>
        <time>2012-03-25T11:27:21+02:00</time>
      </trkpt>
      <trkpt lat="43.52301" lon="6.93282">
        <ele>19.3637695</ele>
        <time>2012-03-25T11:27:26+02:00</time>
      </trkpt>
      <trkpt lat="43.52307" lon="6.93286">
        <ele>18.4023438</ele>
        <time>2012-03-25T11:27:29+02:00</time>
      </trkpt>
      <trkpt lat="43.52316" lon="6.93289">
        <ele>18.8830566</ele>
        <time>2012-03-25T11:27:34+02:00</time>
      </trkpt>
      <trkpt lat="43.52319" lon="6.93287">
        <ele>18.8830566</ele>
        <time>2012-03-25T11:27:43+02:00</time>
      </trkpt>
      <trkpt lat="43.52328" lon="6.93282">
        <ele>20.3249512</ele>
        <time>2012-03-25T11:27:49+02:00</time>
      </trkpt>
      <trkpt lat="43.5234" lon="6.93276">
        <ele>19.8443604</ele>
        <time>2012-03-25T11:27:54+02:00</time>
      </trkpt>
      <trkpt lat="43.52353" lon="6.93268">
        <ele>20.3249512</ele>
        <time>2012-03-25T11:27:59+02:00</time>
      </trkpt>
      <trkpt lat="43.52364" lon="6.93258">
        <ele>26.0928955</ele>
        <time>2012-03-25T11:28:03+02:00</time>
      </trkpt>
      <trkpt lat="43.52376" lon="6.93249">
        <ele>23.2089844</ele>
        <time>2012-03-25T11:28:08+02:00</time>
      </trkpt>
      <trkpt lat="43.52383" lon="6.93246">
        <ele>20.8056641</ele>
        <time>2012-03-25T11:28:12+02:00</time>
      </trkpt>
      <trkpt lat="43.52387" lon="6.93238">
        <ele>16.9604492</ele>
        <time>2012-03-25T11:28:17+02:00</time>
      </trkpt>
      <trkpt lat="43.52392" lon="6.93233">
        <ele>15.0377197</ele>
        <time>2012-03-25T11:28:20+02:00</time>
      </trkpt>
      <trkpt lat="43.52397" lon="6.93232">
        <ele>11.6732178</ele>
        <time>2012-03-25T11:28:24+02:00</time>
      </trkpt>
      <trkpt lat="43.52404" lon="6.93232">
        <ele>8.78918457</ele>
        <time>2012-03-25T11:28:28+02:00</time>
      </trkpt>
      <trkpt lat="43.52411" lon="6.93238">
        <ele>6.38586426</ele>
        <time>2012-03-25T11:28:32+02:00</time>
      </trkpt>
      <trkpt lat="43.52419" lon="6.93247">
        <ele>7.82788086</ele>
        <time>2012-03-25T11:28:37+02:00</time>
      </trkpt>
      <trkpt lat="43.52425" lon="6.93256">
        <ele>6.86645508</ele>
        <time>2012-03-25T11:28:42+02:00</time>
      </trkpt>
      <trkpt lat="43.52426" lon="6.93259">
        <ele>6.38586426</ele>
        <time>2012-03-25T11:28:43+02:00</time>
      </trkpt>
      <trkpt lat="43.52432" lon="6.93275">
        <ele>5.90527344</ele>
        <time>2012-03-25T11:28:47+02:00</time>
      </trkpt>
      <trkpt lat="43.52435" lon="6.93282">
        <ele>8.30859375</ele>
        <time>2012-03-25T11:28:52+02:00</time>
      </trkpt>
      <trkpt lat="43.52438" lon="6.93284">
        <ele>10.2312012</ele>
        <time>2012-03-25T11:28:57+02:00</time>
      </trkpt>
      <trkpt lat="43.52436" lon="6.93283">
        <ele>10.711792</ele>
        <time>2012-03-25T11:29:04+02:00</time>
      </trkpt>
      <trkpt lat="43.52438" lon="6.93282">
        <ele>12.1538086</ele>
        <time>2012-03-25T11:29:13+02:00</time>
      </trkpt>
      <trkpt lat="43.52442" lon="6.93285">
        <ele>11.6732178</ele>
        <time>2012-03-25T11:29:17+02:00</time>
      </trkpt>
      <trkpt lat="43.5244" lon="6.93289">
        <ele>10.711792</ele>
        <time>2012-03-25T11:29:22+02:00</time>
      </trkpt>
      <trkpt lat="43.52442" lon="6.9329">
        <ele>10.711792</ele>
        <time>2012-03-25T11:29:28+02:00</time>
      </trkpt>
      <trkpt lat="43.52444" lon="6.93288">
        <ele>10.711792</ele>
        <time>2012-03-25T11:29:30+02:00</time>
      </trkpt>
      <trkpt lat="43.52452" lon="6.93288">
        <ele>9.75061035</ele>
        <time>2012-03-25T11:29:34+02:00</time>
      </trkpt>
      <trkpt lat="43.52462" lon="6.93296">
        <ele>9.26989746</ele>
        <time>2012-03-25T11:29:38+02:00</time>
      </trkpt>
      <trkpt lat="43.52473" lon="6.93302">
        <ele>8.78918457</ele>
        <time>2012-03-25T11:29:43+02:00</time>
      </trkpt>
      <trkpt lat="43.52488" lon="6.9331">
        <ele>8.30859375</ele>
        <time>2012-03-25T11:29:49+02:00</time>
      </trkpt>
      <trkpt lat="43.52497" lon="6.93323">
        <ele>8.30859375</ele>
        <time>2012-03-25T11:29:54+02:00</time>
      </trkpt>
      <trkpt lat="43.52501" lon="6.93335">
        <ele>7.82788086</ele>
        <time>2012-03-25T11:29:58+02:00</time>
      </trkpt>
      <trkpt lat="43.525" lon="6.93349">
        <ele>9.26989746</ele>
        <time>2012-03-25T11:30:04+02:00</time>
      </trkpt>
      <trkpt lat="43.52498" lon="6.93358">
        <ele>9.26989746</ele>
        <time>2012-03-25T11:30:08+02:00</time>
      </trkpt>
      <trkpt lat="43.52493" lon="6.93371">
        <ele>9.26989746</ele>
        <time>2012-03-25T11:30:13+02:00</time>
      </trkpt>
      <trkpt lat="43.52492" lon="6.93374">
        <ele>9.75061035</ele>
        <time>2012-03-25T11:30:14+02:00</time>
      </trkpt>
      <trkpt lat="43.52488" lon="6.93383">
        <ele>13.5958252</ele>
        <time>2012-03-25T11:30:22+02:00</time>
      </trkpt>
      <trkpt lat="43.52487" lon="6.93386">
        <ele>15.5184326</ele>
        <time>2012-03-25T11:30:26+02:00</time>
      </trkpt>
      <trkpt lat="43.52483" lon="6.9339">
        <ele>17.9217529</ele>
        <time>2012-03-25T11:30:32+02:00</time>
      </trkpt>
      <trkpt lat="43.52479" lon="6.93391">
        <ele>18.8830566</ele>
        <time>2012-03-25T11:30:36+02:00</time>
      </trkpt>
      <trkpt lat="43.52475" lon="6.9339">
        <ele>21.7669678</ele>
        <time>2012-03-25T11:30:42+02:00</time>
      </trkpt>
      <trkpt lat="43.52475" lon="6.9339">
        <ele>22.7282715</ele>
        <time>2012-03-25T11:30:47+02:00</time>
      </trkpt>
      <trkpt lat="43.52477" lon="6.93386">
        <ele>22.2475586</ele>
        <time>2012-03-25T11:30:51+02:00</time>
      </trkpt>
      <trkpt lat="43.52485" lon="6.93383">
        <ele>19.3637695</ele>
        <time>2012-03-25T11:30:56+02:00</time>
      </trkpt>
      <trkpt lat="43.52489" lon="6.93381">
        <ele>18.4023438</ele>
        <time>2012-03-25T11:31:01+02:00</time>
      </trkpt>
      <trkpt lat="43.52491" lon="6.93377">
        <ele>16.4797363</ele>
        <time>2012-03-25T11:31:05+02:00</time>
      </trkpt>
      <trkpt lat="43.52498" lon="6.93365">
        <ele>12.1538086</ele>
        <time>2012-03-25T11:31:11+02:00</time>
      </trkpt>
      <trkpt lat="43.52505" lon="6.93363">
        <ele>10.711792</ele>
        <time>2012-03-25T11:31:14+02:00</time>
      </trkpt>
      <trkpt lat="43.52516" lon="6.93361">
        <ele>10.2312012</ele>
        <time>2012-03-25T11:31:18+02:00</time>
      </trkpt>
      <trkpt lat="43.5252" lon="6.93362">
        <ele>9.75061035</ele>
        <time>2012-03-25T11:31:20+02:00</time>
      </trkpt>
      <trkpt lat="43.52536" lon="6.93369">
        <ele>7.34716797</ele>
        <time>2012-03-25T11:31:26+02:00</time>
      </trkpt>
      <trkpt lat="43.52548" lon="6.93381">
        <ele>6.86645508</ele>
        <time>2012-03-25T11:31:31+02:00</time>
      </trkpt>
      <trkpt lat="43.52553" lon="6.93385">
        <ele>7.34716797</ele>
        <time>2012-03-25T11:31:33+02:00</time>
      </trkpt>
      <trkpt lat="43.52563" lon="6.93393">
        <ele>8.30859375</ele>
        <time>2012-03-25T11:31:38+02:00</time>
      </trkpt>
      <trkpt lat="43.52568" lon="6.934">
        <ele>8.78918457</ele>
        <time>2012-03-25T11:31:41+02:00</time>
      </trkpt>
      <trkpt lat="43.52567" lon="6.93408">
        <ele>9.75061035</ele>
        <time>2012-03-25T11:31:45+02:00</time>
      </trkpt>
      <trkpt lat="43.52569" lon="6.93416">
        <ele>11.1925049</ele>
        <time>2012-03-25T11:31:49+02:00</time>
      </trkpt>
      <trkpt lat="43.5257" lon="6.93422">
        <ele>11.6732178</ele>
        <time>2012-03-25T11:31:53+02:00</time>
      </trkpt>
      <trkpt lat="43.52572" lon="6.93427">
        <ele>15.5184326</ele>
        <time>2012-03-25T11:31:59+02:00</time>
      </trkpt>
      <trkpt lat="43.52567" lon="6.93427">
        <ele>16.4797363</ele>
        <time>2012-03-25T11:32:06+02:00</time>
      </trkpt>
      <trkpt lat="43.52562" lon="6.93426">
        <ele>16.4797363</ele>
        <time>2012-03-25T11:32:11+02:00</time>
      </trkpt>
      <trkpt lat="43.52556" lon="6.93423">
        <ele>15.9990234</ele>
        <time>2012-03-25T11:32:17+02:00</time>
      </trkpt>
      <trkpt lat="43.52558" lon="6.93423">
        <ele>15.9990234</ele>
        <time>2012-03-25T11:32:19+02:00</time>
      </trkpt>
      <trkpt lat="43.52563" lon="6.93424">
        <ele>15.5184326</ele>
        <time>2012-03-25T11:32:24+02:00</time>
      </trkpt>
      <trkpt lat="43.52565" lon="6.93425">
        <ele>15.0377197</ele>
        <time>2012-03-25T11:32:26+02:00</time>
      </trkpt>
      <trkpt lat="43.52568" lon="6.93427">
        <ele>15.0377197</ele>
        <time>2012-03-25T11:32:32+02:00</time>
      </trkpt>
      <trkpt lat="43.52566" lon="6.93426">
        <ele>15.5184326</ele>
        <time>2012-03-25T11:32:34+02:00</time>
      </trkpt>
      <trkpt lat="43.52561" lon="6.93427">
        <ele>16.4797363</ele>
        <time>2012-03-25T11:32:38+02:00</time>
      </trkpt>
      <trkpt lat="43.52556" lon="6.93432">
        <ele>17.9217529</ele>
        <time>2012-03-25T11:32:45+02:00</time>
      </trkpt>
      <trkpt lat="43.52553" lon="6.93437">
        <ele>20.8056641</ele>
        <time>2012-03-25T11:32:50+02:00</time>
      </trkpt>
      <trkpt lat="43.52551" lon="6.93441">
        <ele>23.6895752</ele>
        <time>2012-03-25T11:32:56+02:00</time>
      </trkpt>
      <trkpt lat="43.52551" lon="6.93442">
        <ele>24.1702881</ele>
        <time>2012-03-25T11:33:04+02:00</time>
      </trkpt>
      <trkpt lat="43.5255" lon="6.9344">
        <ele>23.6895752</ele>
        <time>2012-03-25T11:33:07+02:00</time>
      </trkpt>
      <trkpt lat="43.52555" lon="6.93433">
        <ele>22.2475586</ele>
        <time>2012-03-25T11:33:12+02:00</time>
      </trkpt>
      <trkpt lat="43.52559" lon="6.93429">
        <ele>19.3637695</ele>
        <time>2012-03-25T11:33:17+02:00</time>
      </trkpt>
      <trkpt lat="43.52568" lon="6.93427">
        <ele>16.9604492</ele>
        <time>2012-03-25T11:33:22+02:00</time>
      </trkpt>
      <trkpt lat="43.52578" lon="6.93424">
        <ele>14.076416</ele>
        <time>2012-03-25T11:33:27+02:00</time>
      </trkpt>
      <trkpt lat="43.52586" lon="6.93422">
        <ele>10.711792</ele>
        <time>2012-03-25T11:33:32+02:00</time>
      </trkpt>
      <trkpt lat="43.52591" lon="6.9342">
        <ele>8.30859375</ele>
        <time>2012-03-25T11:33:35+02:00</time>
      </trkpt>
      <trkpt lat="43.52597" lon="6.93429">
        <ele>7.82788086</ele>
        <time>2012-03-25T11:33:39+02:00</time>
      </trkpt>
      <trkpt lat="43.52603" lon="6.9344">
        <ele>9.26989746</ele>
        <time>2012-03-25T11:33:43+02:00</time>
      </trkpt>
      <trkpt lat="43.52609" lon="6.93446">
        <ele>11.1925049</ele>
        <time>2012-03-25T11:33:47+02:00</time>
      </trkpt>
      <trkpt lat="43.52619" lon="6.93459">
        <ele>11.1925049</ele>
        <time>2012-03-25T11:33:54+02:00</time>
      </trkpt>
      <trkpt lat="43.52628" lon="6.93474">
        <ele>10.711792</ele>
        <time>2012-03-25T11:33:59+02:00</time>
      </trkpt>
      <trkpt lat="43.52637" lon="6.93487">
        <ele>11.1925049</ele>
        <time>2012-03-25T11:34:04+02:00</time>
      </trkpt>
      <trkpt lat="43.52648" lon="6.93497">
        <ele>13.1151123</ele>
        <time>2012-03-25T11:34:09+02:00</time>
      </trkpt>
      <trkpt lat="43.52663" lon="6.93514">
        <ele>18.4023438</ele>
        <time>2012-03-25T11:34:16+02:00</time>
      </trkpt>
      <trkpt lat="43.5267" lon="6.93522">
        <ele>21.286377</ele>
        <time>2012-03-25T11:34:20+02:00</time>
      </trkpt>
      <trkpt lat="43.52677" lon="6.93532">
        <ele>21.286377</ele>
        <time>2012-03-25T11:34:24+02:00</time>
      </trkpt>
      <trkpt lat="43.52684" lon="6.93547">
        <ele>16.4797363</ele>
        <time>2012-03-25T11:34:30+02:00</time>
      </trkpt>
      <trkpt lat="43.52688" lon="6.93554">
        <ele>15.5184326</ele>
        <time>2012-03-25T11:34:33+02:00</time>
      </trkpt>
      <trkpt lat="43.52698" lon="6.93561">
        <ele>18.8830566</ele>
        <time>2012-03-25T11:34:39+02:00</time>
      </trkpt>
      <trkpt lat="43.52703" lon="6.93571">
        <ele>19.3637695</ele>
        <time>2012-03-25T11:34:44+02:00</time>
      </trkpt>
      <trkpt lat="43.52705" lon="6.93572">
        <ele>19.3637695</ele>
        <time>2012-03-25T11:34:45+02:00</time>
      </trkpt>
      <trkpt lat="43.52711" lon="6.93582">
        <ele>17.9217529</ele>
        <time>2012-03-25T11:34:52+02:00</time>
      </trkpt>
      <trkpt lat="43.52714" lon="6.93587">
        <ele>16.9604492</ele>
        <time>2012-03-25T11:34:56+02:00</time>
      </trkpt>
      <trkpt lat="43.52721" lon="6.93603">
        <ele>15.9990234</ele>
        <time>2012-03-25T11:35:01+02:00</time>
      </trkpt>
      <trkpt lat="43.52727" lon="6.93618">
        <ele>15.5184326</ele>
        <time>2012-03-25T11:35:05+02:00</time>
      </trkpt>
      <trkpt lat="43.52728" lon="6.93625">
        <ele>15.5184326</ele>
        <time>2012-03-25T11:35:07+02:00</time>
      </trkpt>
      <trkpt lat="43.52728" lon="6.93631">
        <ele>14.5570068</ele>
        <time>2012-03-25T11:35:11+02:00</time>
      </trkpt>
      <trkpt lat="43.5273" lon="6.93629">
        <ele>18.4023438</ele>
        <time>2012-03-25T11:35:20+02:00</time>
      </trkpt>
      <trkpt lat="43.52728" lon="6.93626">
        <ele>18.8830566</ele>
        <time>2012-03-25T11:35:22+02:00</time>
      </trkpt>
      <trkpt lat="43.52725" lon="6.93611">
        <ele>17.9217529</ele>
        <time>2012-03-25T11:35:28+02:00</time>
      </trkpt>
      <trkpt lat="43.52716" lon="6.93596">
        <ele>15.9990234</ele>
        <time>2012-03-25T11:35:33+02:00</time>
      </trkpt>
      <trkpt lat="43.52709" lon="6.93583">
        <ele>18.4023438</ele>
        <time>2012-03-25T11:35:38+02:00</time>
      </trkpt>
      <trkpt lat="43.52708" lon="6.93583">
        <ele>19.8443604</ele>
        <time>2012-03-25T11:35:42+02:00</time>
      </trkpt>
      <trkpt lat="43.52705" lon="6.93587">
        <ele>21.286377</ele>
        <time>2012-03-25T11:35:47+02:00</time>
      </trkpt>
      <trkpt lat="43.52703" lon="6.93591">
        <ele>22.7282715</ele>
        <time>2012-03-25T11:35:52+02:00</time>
      </trkpt>
      <trkpt lat="43.52699" lon="6.93595">
        <ele>24.1702881</ele>
        <time>2012-03-25T11:35:57+02:00</time>
      </trkpt>
      <trkpt lat="43.52698" lon="6.93597">
        <ele>25.1317139</ele>
        <time>2012-03-25T11:36:01+02:00</time>
      </trkpt>
      <trkpt lat="43.52695" lon="6.936">
        <ele>27.0543213</ele>
        <time>2012-03-25T11:36:06+02:00</time>
      </trkpt>
      <trkpt lat="43.52693" lon="6.93604">
        <ele>28.4962158</ele>
        <time>2012-03-25T11:36:11+02:00</time>
      </trkpt>
      <trkpt lat="43.52689" lon="6.93608">
        <ele>30.8995361</ele>
        <time>2012-03-25T11:36:18+02:00</time>
      </trkpt>
      <trkpt lat="43.52686" lon="6.93611">
        <ele>32.8222656</ele>
        <time>2012-03-25T11:36:24+02:00</time>
      </trkpt>
      <trkpt lat="43.52684" lon="6.93614">
        <ele>34.744873</ele>
        <time>2012-03-25T11:36:29+02:00</time>
      </trkpt>
      <trkpt lat="43.52681" lon="6.93617">
        <ele>36.6674805</ele>
        <time>2012-03-25T11:36:37+02:00</time>
      </trkpt>
      <trkpt lat="43.52678" lon="6.9362">
        <ele>37.6286621</ele>
        <time>2012-03-25T11:36:42+02:00</time>
      </trkpt>
      <trkpt lat="43.52674" lon="6.93622">
        <ele>39.0706787</ele>
        <time>2012-03-25T11:36:48+02:00</time>
      </trkpt>
      <trkpt lat="43.52672" lon="6.93626">
        <ele>41.473999</ele>
        <time>2012-03-25T11:36:55+02:00</time>
      </trkpt>
      <trkpt lat="43.52669" lon="6.93629">
        <ele>40.9934082</ele>
        <time>2012-03-25T11:37:01+02:00</time>
      </trkpt>
      <trkpt lat="43.52665" lon="6.93633">
        <ele>41.9547119</ele>
        <time>2012-03-25T11:37:07+02:00</time>
      </trkpt>
      <trkpt lat="43.52664" lon="6.9364">
        <ele>45.3192139</ele>
        <time>2012-03-25T11:37:14+02:00</time>
      </trkpt>
      <trkpt lat="43.52662" lon="6.93649">
        <ele>45.3192139</ele>
        <time>2012-03-25T11:37:20+02:00</time>
      </trkpt>
      <trkpt lat="43.52661" lon="6.93656">
        <ele>47.2418213</ele>
        <time>2012-03-25T11:37:24+02:00</time>
      </trkpt>
      <trkpt lat="43.5266" lon="6.93669">
        <ele>45.3192139</ele>
        <time>2012-03-25T11:37:29+02:00</time>
      </trkpt>
      <trkpt lat="43.52661" lon="6.93682">
        <ele>44.838623</ele>
        <time>2012-03-25T11:37:34+02:00</time>
      </trkpt>
      <trkpt lat="43.52658" lon="6.93689">
        <ele>44.838623</ele>
        <time>2012-03-25T11:37:37+02:00</time>
      </trkpt>
      <trkpt lat="43.52657" lon="6.93693">
        <ele>44.3580322</ele>
        <time>2012-03-25T11:37:39+02:00</time>
      </trkpt>
      <trkpt lat="43.52656" lon="6.93704">
        <ele>44.3580322</ele>
        <time>2012-03-25T11:37:44+02:00</time>
      </trkpt>
      <trkpt lat="43.52652" lon="6.93713">
        <ele>45.3192139</ele>
        <time>2012-03-25T11:37:50+02:00</time>
      </trkpt>
      <trkpt lat="43.52652" lon="6.93721">
        <ele>44.838623</ele>
        <time>2012-03-25T11:37:55+02:00</time>
      </trkpt>
      <trkpt lat="43.5265" lon="6.93737">
        <ele>44.3580322</ele>
        <time>2012-03-25T11:38:04+02:00</time>
      </trkpt>
      <trkpt lat="43.52651" lon="6.93746">
        <ele>45.7999268</ele>
        <time>2012-03-25T11:38:10+02:00</time>
      </trkpt>
      <trkpt lat="43.52651" lon="6.93751">
        <ele>45.7999268</ele>
        <time>2012-03-25T11:38:14+02:00</time>
      </trkpt>
      <trkpt lat="43.5265" lon="6.93755">
        <ele>46.2806396</ele>
        <time>2012-03-25T11:38:21+02:00</time>
      </trkpt>
      <trkpt lat="43.52649" lon="6.9375">
        <ele>48.68396</ele>
        <time>2012-03-25T11:38:26+02:00</time>
      </trkpt>
      <trkpt lat="43.52647" lon="6.93749">
        <ele>51.5678711</ele>
        <time>2012-03-25T11:38:32+02:00</time>
      </trkpt>
      <trkpt lat="43.52644" lon="6.9375">
        <ele>53.9711914</ele>
        <time>2012-03-25T11:38:37+02:00</time>
      </trkpt>
      <trkpt lat="43.52643" lon="6.93755">
        <ele>56.3745117</ele>
        <time>2012-03-25T11:38:43+02:00</time>
      </trkpt>
      <trkpt lat="43.52643" lon="6.9376">
        <ele>55.8937988</ele>
        <time>2012-03-25T11:38:47+02:00</time>
      </trkpt>
      <trkpt lat="43.52642" lon="6.93764">
        <ele>54.932373</ele>
        <time>2012-03-25T11:38:52+02:00</time>
      </trkpt>
      <trkpt lat="43.52641" lon="6.93763">
        <ele>53.0097656</ele>
        <time>2012-03-25T11:38:59+02:00</time>
      </trkpt>
      <trkpt lat="43.5264" lon="6.93763">
        <ele>51.5678711</ele>
        <time>2012-03-25T11:39:07+02:00</time>
      </trkpt>
      <trkpt lat="43.52639" lon="6.9376">
        <ele>51.0871582</ele>
        <time>2012-03-25T11:39:14+02:00</time>
      </trkpt>
      <trkpt lat="43.52637" lon="6.93757">
        <ele>52.5291748</ele>
        <time>2012-03-25T11:39:19+02:00</time>
      </trkpt>
      <trkpt lat="43.52634" lon="6.93753">
        <ele>55.8937988</ele>
        <time>2012-03-25T11:39:26+02:00</time>
      </trkpt>
      <trkpt lat="43.52632" lon="6.93754">
        <ele>59.2584229</ele>
        <time>2012-03-25T11:39:34+02:00</time>
      </trkpt>
      <trkpt lat="43.5263" lon="6.93753">
        <ele>62.142334</ele>
        <time>2012-03-25T11:39:40+02:00</time>
      </trkpt>
      <trkpt lat="43.52628" lon="6.93753">
        <ele>63.1036377</ele>
        <time>2012-03-25T11:39:47+02:00</time>
      </trkpt>
      <trkpt lat="43.52627" lon="6.93753">
        <ele>62.6229248</ele>
        <time>2012-03-25T11:39:48+02:00</time>
      </trkpt>
      <trkpt lat="43.52623" lon="6.93754">
        <ele>63.1036377</ele>
        <time>2012-03-25T11:39:53+02:00</time>
      </trkpt>
      <trkpt lat="43.52622" lon="6.93755">
        <ele>65.5070801</ele>
        <time>2012-03-25T11:39:58+02:00</time>
      </trkpt>
      <trkpt lat="43.52621" lon="6.93755">
        <ele>67.4296875</ele>
        <time>2012-03-25T11:40:03+02:00</time>
      </trkpt>
      <trkpt lat="43.52617" lon="6.93754">
        <ele>69.3522949</ele>
        <time>2012-03-25T11:40:12+02:00</time>
      </trkpt>
      <trkpt lat="43.52613" lon="6.93752">
        <ele>70.7941895</ele>
        <time>2012-03-25T11:40:18+02:00</time>
      </trkpt>
      <trkpt lat="43.52611" lon="6.93748">
        <ele>72.7169189</ele>
        <time>2012-03-25T11:40:25+02:00</time>
      </trkpt>
      <trkpt lat="43.5261" lon="6.93747">
        <ele>75.1202393</ele>
        <time>2012-03-25T11:40:29+02:00</time>
      </trkpt>
      <trkpt lat="43.5261" lon="6.93745">
        <ele>76.0814209</ele>
        <time>2012-03-25T11:40:40+02:00</time>
      </trkpt>
      <trkpt lat="43.52613" lon="6.93737">
        <ele>74.6395264</ele>
        <time>2012-03-25T11:40:48+02:00</time>
      </trkpt>
      <trkpt lat="43.52614" lon="6.93732">
        <ele>74.1588135</ele>
        <time>2012-03-25T11:40:51+02:00</time>
      </trkpt>
      <trkpt lat="43.52619" lon="6.93718">
        <ele>72.7169189</ele>
        <time>2012-03-25T11:40:57+02:00</time>
      </trkpt>
      <trkpt lat="43.52621" lon="6.93711">
        <ele>71.7554932</ele>
        <time>2012-03-25T11:40:59+02:00</time>
      </trkpt>
      <trkpt lat="43.52622" lon="6.93701">
        <ele>70.3134766</ele>
        <time>2012-03-25T11:41:02+02:00</time>
      </trkpt>
      <trkpt lat="43.52621" lon="6.93697">
        <ele>71.7554932</ele>
        <time>2012-03-25T11:41:07+02:00</time>
      </trkpt>
      <trkpt lat="43.52622" lon="6.93697">
        <ele>72.2362061</ele>
        <time>2012-03-25T11:41:08+02:00</time>
      </trkpt>
      <trkpt lat="43.52618" lon="6.93698">
        <ele>73.1976318</ele>
        <time>2012-03-25T11:41:12+02:00</time>
      </trkpt>
      <trkpt lat="43.52613" lon="6.93703">
        <ele>74.1588135</ele>
        <time>2012-03-25T11:41:18+02:00</time>
      </trkpt>
      <trkpt lat="43.52612" lon="6.93703">
        <ele>74.1588135</ele>
        <time>2012-03-25T11:41:19+02:00</time>
      </trkpt>
      <trkpt lat="43.5261" lon="6.93702">
        <ele>77.0428467</ele>
        <time>2012-03-25T11:41:26+02:00</time>
      </trkpt>
      <trkpt lat="43.52609" lon="6.93705">
        <ele>79.9266357</ele>
        <time>2012-03-25T11:41:35+02:00</time>
      </trkpt>
      <trkpt lat="43.52606" lon="6.93706">
        <ele>80.4074707</ele>
        <time>2012-03-25T11:41:40+02:00</time>
      </trkpt>
      <trkpt lat="43.52601" lon="6.93711">
        <ele>81.8493652</ele>
        <time>2012-03-25T11:41:46+02:00</time>
      </trkpt>
      <trkpt lat="43.52597" lon="6.93717">
        <ele>84.2526855</ele>
        <time>2012-03-25T11:41:52+02:00</time>
      </trkpt>
      <trkpt lat="43.52593" lon="6.93722">
        <ele>84.7333984</ele>
        <time>2012-03-25T11:41:57+02:00</time>
      </trkpt>
      <trkpt lat="43.52589" lon="6.93729">
        <ele>85.6945801</ele>
        <time>2012-03-25T11:42:03+02:00</time>
      </trkpt>
      <trkpt lat="43.52584" lon="6.93737">
        <ele>88.0980225</ele>
        <time>2012-03-25T11:42:10+02:00</time>
      </trkpt>
      <trkpt lat="43.52582" lon="6.93743">
        <ele>88.0980225</ele>
        <time>2012-03-25T11:42:15+02:00</time>
      </trkpt>
      <trkpt lat="43.52576" lon="6.93752">
        <ele>89.539917</ele>
        <time>2012-03-25T11:42:23+02:00</time>
      </trkpt>
      <trkpt lat="43.52576" lon="6.93754">
        <ele>90.0206299</ele>
        <time>2012-03-25T11:42:25+02:00</time>
      </trkpt>
      <trkpt lat="43.5257" lon="6.93762">
        <ele>91.9432373</ele>
        <time>2012-03-25T11:42:33+02:00</time>
      </trkpt>
      <trkpt lat="43.52567" lon="6.93766">
        <ele>92.904541</ele>
        <time>2012-03-25T11:42:38+02:00</time>
      </trkpt>
      <trkpt lat="43.52563" lon="6.93774">
        <ele>93.8658447</ele>
        <time>2012-03-25T11:42:45+02:00</time>
      </trkpt>
      <trkpt lat="43.52561" lon="6.93775">
        <ele>94.3465576</ele>
        <time>2012-03-25T11:42:46+02:00</time>
      </trkpt>
      <trkpt lat="43.52559" lon="6.93779">
        <ele>94.3465576</ele>
        <time>2012-03-25T11:42:50+02:00</time>
      </trkpt>
      <trkpt lat="43.52554" lon="6.93784">
        <ele>95.7884521</ele>
        <time>2012-03-25T11:42:57+02:00</time>
      </trkpt>
      <trkpt lat="43.52551" lon="6.93791">
        <ele>97.2304688</ele>
        <time>2012-03-25T11:43:03+02:00</time>
      </trkpt>
      <trkpt lat="43.52548" lon="6.93795">
        <ele>97.7111816</ele>
        <time>2012-03-25T11:43:07+02:00</time>
      </trkpt>
      <trkpt lat="43.52545" lon="6.93794">
        <ele>97.7111816</ele>
        <time>2012-03-25T11:43:10+02:00</time>
      </trkpt>
      <trkpt lat="43.52543" lon="6.93789">
        <ele>98.1918945</ele>
        <time>2012-03-25T11:43:16+02:00</time>
      </trkpt>
      <trkpt lat="43.52539" lon="6.93789">
        <ele>100.114502</ele>
        <time>2012-03-25T11:43:22+02:00</time>
      </trkpt>
      <trkpt lat="43.52536" lon="6.93789">
        <ele>101.556396</ele>
        <time>2012-03-25T11:43:27+02:00</time>
      </trkpt>
      <trkpt lat="43.52534" lon="6.93791">
        <ele>103.479004</ele>
        <time>2012-03-25T11:43:32+02:00</time>
      </trkpt>
      <trkpt lat="43.52533" lon="6.93791">
        <ele>105.401733</ele>
        <time>2012-03-25T11:43:39+02:00</time>
      </trkpt>
      <trkpt lat="43.52531" lon="6.9379">
        <ele>106.843628</ele>
        <time>2012-03-25T11:43:45+02:00</time>
      </trkpt>
      <trkpt lat="43.52529" lon="6.93788">
        <ele>108.285645</ele>
        <time>2012-03-25T11:43:49+02:00</time>
      </trkpt>
      <trkpt lat="43.52528" lon="6.93783">
        <ele>108.766235</ele>
        <time>2012-03-25T11:43:55+02:00</time>
      </trkpt>
      <trkpt lat="43.52526" lon="6.9378">
        <ele>109.727661</ele>
        <time>2012-03-25T11:44:02+02:00</time>
      </trkpt>
      <trkpt lat="43.52527" lon="6.93776">
        <ele>108.766235</ele>
        <time>2012-03-25T11:44:08+02:00</time>
      </trkpt>
      <trkpt lat="43.52526" lon="6.93773">
        <ele>109.727661</ele>
        <time>2012-03-25T11:44:14+02:00</time>
      </trkpt>
      <trkpt lat="43.52525" lon="6.9377">
        <ele>112.130981</ele>
        <time>2012-03-25T11:44:20+02:00</time>
      </trkpt>
      <trkpt lat="43.52523" lon="6.93769">
        <ele>114.53418</ele>
        <time>2012-03-25T11:44:25+02:00</time>
      </trkpt>
      <trkpt lat="43.52521" lon="6.93767">
        <ele>116.456787</ele>
        <time>2012-03-25T11:44:30+02:00</time>
      </trkpt>
      <trkpt lat="43.52519" lon="6.93764">
        <ele>118.860107</ele>
        <time>2012-03-25T11:44:38+02:00</time>
      </trkpt>
      <trkpt lat="43.52517" lon="6.93763">
        <ele>121.744141</ele>
        <time>2012-03-25T11:44:45+02:00</time>
      </trkpt>
      <trkpt lat="43.52517" lon="6.93761">
        <ele>123.666748</ele>
        <time>2012-03-25T11:44:52+02:00</time>
      </trkpt>
      <trkpt lat="43.52517" lon="6.93758">
        <ele>124.628052</ele>
        <time>2012-03-25T11:44:57+02:00</time>
      </trkpt>
      <trkpt lat="43.52515" lon="6.93757">
        <ele>126.069946</ele>
        <time>2012-03-25T11:45:03+02:00</time>
      </trkpt>
      <trkpt lat="43.52514" lon="6.93755">
        <ele>127.511963</ele>
        <time>2012-03-25T11:45:08+02:00</time>
      </trkpt>
      <trkpt lat="43.52514" lon="6.93752">
        <ele>128.473389</ele>
        <time>2012-03-25T11:45:13+02:00</time>
      </trkpt>
      <trkpt lat="43.52512" lon="6.93752">
        <ele>129.915283</ele>
        <time>2012-03-25T11:45:18+02:00</time>
      </trkpt>
      <trkpt lat="43.52512" lon="6.9375">
        <ele>130.395996</ele>
        <time>2012-03-25T11:45:24+02:00</time>
      </trkpt>
      <trkpt lat="43.52511" lon="6.93748">
        <ele>130.876709</ele>
        <time>2012-03-25T11:45:32+02:00</time>
      </trkpt>
      <trkpt lat="43.52509" lon="6.93747">
        <ele>132.799316</ele>
        <time>2012-03-25T11:45:38+02:00</time>
      </trkpt>
      <trkpt lat="43.52505" lon="6.93741">
        <ele>132.318604</ele>
        <time>2012-03-25T11:45:44+02:00</time>
      </trkpt>
      <trkpt lat="43.52506" lon="6.93738">
        <ele>132.318604</ele>
        <time>2012-03-25T11:45:46+02:00</time>
      </trkpt>
      <trkpt lat="43.52512" lon="6.93733">
        <ele>132.799316</ele>
        <time>2012-03-25T11:45:52+02:00</time>
      </trkpt>
      <trkpt lat="43.52512" lon="6.93737">
        <ele>133.279907</ele>
        <time>2012-03-25T11:45:55+02:00</time>
      </trkpt>
      <trkpt lat="43.52511" lon="6.93738">
        <ele>134.721924</ele>
        <time>2012-03-25T11:46:02+02:00</time>
      </trkpt>
      <trkpt lat="43.52511" lon="6.93735">
        <ele>133.279907</ele>
        <time>2012-03-25T11:46:09+02:00</time>
      </trkpt>
      <trkpt lat="43.5251" lon="6.93734">
        <ele>132.799316</ele>
        <time>2012-03-25T11:46:14+02:00</time>
      </trkpt>
      <trkpt lat="43.52511" lon="6.93734">
        <ele>132.318604</ele>
        <time>2012-03-25T11:46:26+02:00</time>
      </trkpt>
      <trkpt lat="43.52511" lon="6.93733">
        <ele>130.876709</ele>
        <time>2012-03-25T11:46:33+02:00</time>
      </trkpt>
      <trkpt lat="43.52508" lon="6.93734">
        <ele>131.3573</ele>
        <time>2012-03-25T11:46:39+02:00</time>
      </trkpt>
      <trkpt lat="43.52505" lon="6.93737">
        <ele>131.3573</ele>
        <time>2012-03-25T11:46:44+02:00</time>
      </trkpt>
      <trkpt lat="43.52503" lon="6.93738">
        <ele>131.3573</ele>
        <time>2012-03-25T11:46:50+02:00</time>
      </trkpt>
      <trkpt lat="43.525" lon="6.93737">
        <ele>130.876709</ele>
        <time>2012-03-25T11:46:56+02:00</time>
      </trkpt>
      <trkpt lat="43.525" lon="6.9373">
        <ele>129.915283</ele>
        <time>2012-03-25T11:47:00+02:00</time>
      </trkpt>
      <trkpt lat="43.52499" lon="6.93729">
        <ele>129.434692</ele>
        <time>2012-03-25T11:47:01+02:00</time>
      </trkpt>
      <trkpt lat="43.52496" lon="6.93725">
        <ele>127.992554</ele>
        <time>2012-03-25T11:47:05+02:00</time>
      </trkpt>
      <trkpt lat="43.52495" lon="6.93721">
        <ele>127.511963</ele>
        <time>2012-03-25T11:47:07+02:00</time>
      </trkpt>
      <trkpt lat="43.52495" lon="6.93716">
        <ele>126.550659</ele>
        <time>2012-03-25T11:47:10+02:00</time>
      </trkpt>
      <trkpt lat="43.5249" lon="6.93714">
        <ele>124.628052</ele>
        <time>2012-03-25T11:47:15+02:00</time>
      </trkpt>
      <trkpt lat="43.52483" lon="6.93715">
        <ele>122.705444</ele>
        <time>2012-03-25T11:47:18+02:00</time>
      </trkpt>
      <trkpt lat="43.52482" lon="6.93711">
        <ele>121.744141</ele>
        <time>2012-03-25T11:47:19+02:00</time>
      </trkpt>
      <trkpt lat="43.52482" lon="6.93697">
        <ele>116.456787</ele>
        <time>2012-03-25T11:47:24+02:00</time>
      </trkpt>
      <trkpt lat="43.52483" lon="6.93688">
        <ele>112.130981</ele>
        <time>2012-03-25T11:47:28+02:00</time>
      </trkpt>
      <trkpt lat="43.52478" lon="6.93691">
        <ele>110.208252</ele>
        <time>2012-03-25T11:47:32+02:00</time>
      </trkpt>
      <trkpt lat="43.52466" lon="6.93702">
        <ele>107.805054</ele>
        <time>2012-03-25T11:47:38+02:00</time>
      </trkpt>
      <trkpt lat="43.52461" lon="6.93716">
        <ele>106.843628</ele>
        <time>2012-03-25T11:47:42+02:00</time>
      </trkpt>
      <trkpt lat="43.52459" lon="6.93724">
        <ele>105.401733</ele>
        <time>2012-03-25T11:47:47+02:00</time>
      </trkpt>
      <trkpt lat="43.52457" lon="6.93733">
        <ele>105.401733</ele>
        <time>2012-03-25T11:47:52+02:00</time>
      </trkpt>
      <trkpt lat="43.52456" lon="6.93738">
        <ele>104.44043</ele>
        <time>2012-03-25T11:47:53+02:00</time>
      </trkpt>
      <trkpt lat="43.52454" lon="6.93742">
        <ele>102.5177</ele>
        <time>2012-03-25T11:47:57+02:00</time>
      </trkpt>
      <trkpt lat="43.52451" lon="6.93745">
        <ele>101.075684</ele>
        <time>2012-03-25T11:48:01+02:00</time>
      </trkpt>
      <trkpt lat="43.52446" lon="6.9375">
        <ele>98.6724854</ele>
        <time>2012-03-25T11:48:05+02:00</time>
      </trkpt>
      <trkpt lat="43.52441" lon="6.9376">
        <ele>96.7498779</ele>
        <time>2012-03-25T11:48:09+02:00</time>
      </trkpt>
      <trkpt lat="43.52442" lon="6.93765">
        <ele>96.2692871</ele>
        <time>2012-03-25T11:48:11+02:00</time>
      </trkpt>
      <trkpt lat="43.52442" lon="6.9377">
        <ele>96.7498779</ele>
        <time>2012-03-25T11:48:15+02:00</time>
      </trkpt>
      <trkpt lat="43.52445" lon="6.93779">
        <ele>98.1918945</ele>
        <time>2012-03-25T11:48:20+02:00</time>
      </trkpt>
      <trkpt lat="43.52447" lon="6.93783">
        <ele>99.1530762</ele>
        <time>2012-03-25T11:48:25+02:00</time>
      </trkpt>
      <trkpt lat="43.52447" lon="6.9379">
        <ele>98.1918945</ele>
        <time>2012-03-25T11:48:30+02:00</time>
      </trkpt>
      <trkpt lat="43.52448" lon="6.93791">
        <ele>98.1918945</ele>
        <time>2012-03-25T11:48:31+02:00</time>
      </trkpt>
      <trkpt lat="43.52448" lon="6.93798">
        <ele>98.1918945</ele>
        <time>2012-03-25T11:48:36+02:00</time>
      </trkpt>
      <trkpt lat="43.52449" lon="6.938">
        <ele>97.7111816</ele>
        <time>2012-03-25T11:48:41+02:00</time>
      </trkpt>
      <trkpt lat="43.52448" lon="6.93801">
        <ele>96.7498779</ele>
        <time>2012-03-25T11:48:45+02:00</time>
      </trkpt>
      <trkpt lat="43.52447" lon="6.93802">
        <ele>94.8271484</ele>
        <time>2012-03-25T11:48:47+02:00</time>
      </trkpt>
      <trkpt lat="43.5245" lon="6.93809">
        <ele>93.3851318</ele>
        <time>2012-03-25T11:48:51+02:00</time>
      </trkpt>
      <trkpt lat="43.52453" lon="6.93812">
        <ele>93.3851318</ele>
        <time>2012-03-25T11:48:57+02:00</time>
      </trkpt>
      <trkpt lat="43.52453" lon="6.93814">
        <ele>92.904541</ele>
        <time>2012-03-25T11:49:01+02:00</time>
      </trkpt>
      <trkpt lat="43.52452" lon="6.93811">
        <ele>92.904541</ele>
        <time>2012-03-25T11:49:08+02:00</time>
      </trkpt>
      <trkpt lat="43.5245" lon="6.93809">
        <ele>92.904541</ele>
        <time>2012-03-25T11:49:14+02:00</time>
      </trkpt>
      <trkpt lat="43.52448" lon="6.93806">
        <ele>93.8658447</ele>
        <time>2012-03-25T11:49:20+02:00</time>
      </trkpt>
      <trkpt lat="43.52447" lon="6.93803">
        <ele>94.8271484</ele>
        <time>2012-03-25T11:49:32+02:00</time>
      </trkpt>
      <trkpt lat="43.52447" lon="6.93792">
        <ele>95.7884521</ele>
        <time>2012-03-25T11:49:37+02:00</time>
      </trkpt>
      <trkpt lat="43.52447" lon="6.93783">
        <ele>96.7498779</ele>
        <time>2012-03-25T11:49:41+02:00</time>
      </trkpt>
      <trkpt lat="43.52446" lon="6.9378">
        <ele>96.2692871</ele>
        <time>2012-03-25T11:49:43+02:00</time>
      </trkpt>
      <trkpt lat="43.5244" lon="6.93769">
        <ele>96.7498779</ele>
        <time>2012-03-25T11:49:49+02:00</time>
      </trkpt>
      <trkpt lat="43.52437" lon="6.93762">
        <ele>97.2304688</ele>
        <time>2012-03-25T11:49:53+02:00</time>
      </trkpt>
      <trkpt lat="43.52432" lon="6.9375">
        <ele>94.8271484</ele>
        <time>2012-03-25T11:49:58+02:00</time>
      </trkpt>
      <trkpt lat="43.52431" lon="6.93747">
        <ele>94.3465576</ele>
        <time>2012-03-25T11:49:59+02:00</time>
      </trkpt>
      <trkpt lat="43.52427" lon="6.93749">
        <ele>92.4239502</ele>
        <time>2012-03-25T11:50:03+02:00</time>
      </trkpt>
      <trkpt lat="43.52422" lon="6.93746">
        <ele>90.5013428</ele>
        <time>2012-03-25T11:50:06+02:00</time>
      </trkpt>
      <trkpt lat="43.52421" lon="6.9374">
        <ele>89.539917</ele>
        <time>2012-03-25T11:50:08+02:00</time>
      </trkpt>
      <trkpt lat="43.52421" lon="6.9372">
        <ele>86.6560059</ele>
        <time>2012-03-25T11:50:15+02:00</time>
      </trkpt>
      <trkpt lat="43.52422" lon="6.93704">
        <ele>84.2526855</ele>
        <time>2012-03-25T11:50:21+02:00</time>
      </trkpt>
      <trkpt lat="43.52421" lon="6.93687">
        <ele>81.8493652</ele>
        <time>2012-03-25T11:50:26+02:00</time>
      </trkpt>
      <trkpt lat="43.52421" lon="6.93667">
        <ele>79.4460449</ele>
        <time>2012-03-25T11:50:31+02:00</time>
      </trkpt>
      <trkpt lat="43.52416" lon="6.93648">
        <ele>76.0814209</ele>
        <time>2012-03-25T11:50:37+02:00</time>
      </trkpt>
      <trkpt lat="43.52418" lon="6.93635">
        <ele>74.6395264</ele>
        <time>2012-03-25T11:50:41+02:00</time>
      </trkpt>
      <trkpt lat="43.52427" lon="6.93626">
        <ele>75.6008301</ele>
        <time>2012-03-25T11:50:47+02:00</time>
      </trkpt>
      <trkpt lat="43.5243" lon="6.93625">
        <ele>75.6008301</ele>
        <time>2012-03-25T11:50:48+02:00</time>
      </trkpt>
      <trkpt lat="43.52436" lon="6.9362">
        <ele>76.5621338</ele>
        <time>2012-03-25T11:50:53+02:00</time>
      </trkpt>
      <trkpt lat="43.52445" lon="6.93617">
        <ele>76.5621338</ele>
        <time>2012-03-25T11:50:58+02:00</time>
      </trkpt>
      <trkpt lat="43.52454" lon="6.93613">
        <ele>77.5234375</ele>
        <time>2012-03-25T11:51:02+02:00</time>
      </trkpt>
      <trkpt lat="43.52462" lon="6.93608">
        <ele>77.5234375</ele>
        <time>2012-03-25T11:51:06+02:00</time>
      </trkpt>
      <trkpt lat="43.52464" lon="6.93607">
        <ele>77.0428467</ele>
        <time>2012-03-25T11:51:07+02:00</time>
      </trkpt>
      <trkpt lat="43.52473" lon="6.93597">
        <ele>76.0814209</ele>
        <time>2012-03-25T11:51:12+02:00</time>
      </trkpt>
      <trkpt lat="43.52476" lon="6.93597">
        <ele>75.6008301</ele>
        <time>2012-03-25T11:51:16+02:00</time>
      </trkpt>
      <trkpt lat="43.52478" lon="6.93598">
        <ele>76.0814209</ele>
        <time>2012-03-25T11:51:19+02:00</time>
      </trkpt>
      <trkpt lat="43.52482" lon="6.93597">
        <ele>78.4847412</ele>
        <time>2012-03-25T11:51:25+02:00</time>
      </trkpt>
      <trkpt lat="43.52482" lon="6.93595">
        <ele>84.2526855</ele>
        <time>2012-03-25T11:51:37+02:00</time>
      </trkpt>
      <trkpt lat="43.5248" lon="6.93595">
        <ele>83.2913818</ele>
        <time>2012-03-25T11:51:42+02:00</time>
      </trkpt>
      <trkpt lat="43.52477" lon="6.93592">
        <ele>81.3687744</ele>
        <time>2012-03-25T11:51:46+02:00</time>
      </trkpt>
      <trkpt lat="43.52475" lon="6.93589">
        <ele>79.4460449</ele>
        <time>2012-03-25T11:51:52+02:00</time>
      </trkpt>
      <trkpt lat="43.52474" lon="6.93586">
        <ele>78.0040283</ele>
        <time>2012-03-25T11:51:56+02:00</time>
      </trkpt>
      <trkpt lat="43.52475" lon="6.93578">
        <ele>76.5621338</ele>
        <time>2012-03-25T11:52:01+02:00</time>
      </trkpt>
      <trkpt lat="43.52473" lon="6.93574">
        <ele>75.1202393</ele>
        <time>2012-03-25T11:52:03+02:00</time>
      </trkpt>
      <trkpt lat="43.52468" lon="6.9357">
        <ele>72.2362061</ele>
        <time>2012-03-25T11:52:07+02:00</time>
      </trkpt>
      <trkpt lat="43.52464" lon="6.93558">
        <ele>67.9102783</ele>
        <time>2012-03-25T11:52:13+02:00</time>
      </trkpt>
      <trkpt lat="43.5246" lon="6.9355">
        <ele>66.4682617</ele>
        <time>2012-03-25T11:52:17+02:00</time>
      </trkpt>
      <trkpt lat="43.52463" lon="6.93546">
        <ele>65.9876709</ele>
        <time>2012-03-25T11:52:21+02:00</time>
      </trkpt>
      <trkpt lat="43.52471" lon="6.93542">
        <ele>64.0650635</ele>
        <time>2012-03-25T11:52:28+02:00</time>
      </trkpt>
      <trkpt lat="43.52481" lon="6.93528">
        <ele>63.1036377</ele>
        <time>2012-03-25T11:52:34+02:00</time>
      </trkpt>
      <trkpt lat="43.52486" lon="6.93523">
        <ele>62.142334</ele>
        <time>2012-03-25T11:52:36+02:00</time>
      </trkpt>
      <trkpt lat="43.52501" lon="6.93524">
        <ele>60.7003174</ele>
        <time>2012-03-25T11:52:42+02:00</time>
      </trkpt>
      <trkpt lat="43.52517" lon="6.93529">
        <ele>58.2971191</ele>
        <time>2012-03-25T11:52:48+02:00</time>
      </trkpt>
      <trkpt lat="43.52523" lon="6.93531">
        <ele>57.8165283</ele>
        <time>2012-03-25T11:52:52+02:00</time>
      </trkpt>
      <trkpt lat="43.52524" lon="6.93534">
        <ele>58.77771</ele>
        <time>2012-03-25T11:52:57+02:00</time>
      </trkpt>
      <trkpt lat="43.52526" lon="6.93536">
        <ele>58.77771</ele>
        <time>2012-03-25T11:53:01+02:00</time>
      </trkpt>
      <trkpt lat="43.52525" lon="6.9354">
        <ele>60.2197266</ele>
        <time>2012-03-25T11:53:08+02:00</time>
      </trkpt>
      <trkpt lat="43.52525" lon="6.9354">
        <ele>60.7003174</ele>
        <time>2012-03-25T11:53:15+02:00</time>
      </trkpt>
      <trkpt lat="43.52522" lon="6.93538">
        <ele>62.142334</ele>
        <time>2012-03-25T11:53:24+02:00</time>
      </trkpt>
      <trkpt lat="43.52522" lon="6.93535">
        <ele>60.7003174</ele>
        <time>2012-03-25T11:53:29+02:00</time>
      </trkpt>
      <trkpt lat="43.52521" lon="6.93533">
        <ele>60.7003174</ele>
        <time>2012-03-25T11:53:31+02:00</time>
      </trkpt>
      <trkpt lat="43.52516" lon="6.93525">
        <ele>59.7391357</ele>
        <time>2012-03-25T11:53:35+02:00</time>
      </trkpt>
      <trkpt lat="43.52501" lon="6.93523">
        <ele>58.77771</ele>
        <time>2012-03-25T11:53:41+02:00</time>
      </trkpt>
      <trkpt lat="43.52488" lon="6.93522">
        <ele>59.2584229</ele>
        <time>2012-03-25T11:53:46+02:00</time>
      </trkpt>
      <trkpt lat="43.52473" lon="6.93525">
        <ele>59.2584229</ele>
        <time>2012-03-25T11:53:51+02:00</time>
      </trkpt>
      <trkpt lat="43.52461" lon="6.93525">
        <ele>60.7003174</ele>
        <time>2012-03-25T11:53:55+02:00</time>
      </trkpt>
      <trkpt lat="43.52447" lon="6.93527">
        <ele>63.1036377</ele>
        <time>2012-03-25T11:53:59+02:00</time>
      </trkpt>
      <trkpt lat="43.5243" lon="6.93532">
        <ele>62.142334</ele>
        <time>2012-03-25T11:54:05+02:00</time>
      </trkpt>
      <trkpt lat="43.52414" lon="6.93533">
        <ele>61.6617432</ele>
        <time>2012-03-25T11:54:10+02:00</time>
      </trkpt>
      <trkpt lat="43.52399" lon="6.93533">
        <ele>61.1810303</ele>
        <time>2012-03-25T11:54:16+02:00</time>
      </trkpt>
      <trkpt lat="43.52392" lon="6.93531">
        <ele>61.6617432</ele>
        <time>2012-03-25T11:54:20+02:00</time>
      </trkpt>
      <trkpt lat="43.52381" lon="6.93517">
        <ele>62.142334</ele>
        <time>2012-03-25T11:54:28+02:00</time>
      </trkpt>
      <trkpt lat="43.52373" lon="6.93506">
        <ele>62.6229248</ele>
        <time>2012-03-25T11:54:32+02:00</time>
      </trkpt>
      <trkpt lat="43.52363" lon="6.93488">
        <ele>63.1036377</ele>
        <time>2012-03-25T11:54:38+02:00</time>
      </trkpt>
      <trkpt lat="43.52353" lon="6.93477">
        <ele>63.1036377</ele>
        <time>2012-03-25T11:54:43+02:00</time>
      </trkpt>
      <trkpt lat="43.52347" lon="6.9347">
        <ele>63.5843506</ele>
        <time>2012-03-25T11:54:46+02:00</time>
      </trkpt>
      <trkpt lat="43.52337" lon="6.9345">
        <ele>62.6229248</ele>
        <time>2012-03-25T11:54:53+02:00</time>
      </trkpt>
      <trkpt lat="43.52333" lon="6.93441">
        <ele>63.1036377</ele>
        <time>2012-03-25T11:54:56+02:00</time>
      </trkpt>
      <trkpt lat="43.52323" lon="6.93427">
        <ele>62.6229248</ele>
        <time>2012-03-25T11:55:01+02:00</time>
      </trkpt>
      <trkpt lat="43.52316" lon="6.93418">
        <ele>63.1036377</ele>
        <time>2012-03-25T11:55:05+02:00</time>
      </trkpt>
      <trkpt lat="43.52311" lon="6.93415">
        <ele>63.5843506</ele>
        <time>2012-03-25T11:55:07+02:00</time>
      </trkpt>
      <trkpt lat="43.52307" lon="6.93413">
        <ele>65.5070801</ele>
        <time>2012-03-25T11:55:12+02:00</time>
      </trkpt>
      <trkpt lat="43.52306" lon="6.93412">
        <ele>66.4682617</ele>
        <time>2012-03-25T11:55:18+02:00</time>
      </trkpt>
      <trkpt lat="43.52304" lon="6.93406">
        <ele>65.0263672</ele>
        <time>2012-03-25T11:55:24+02:00</time>
      </trkpt>
      <trkpt lat="43.52305" lon="6.93404">
        <ele>64.5456543</ele>
        <time>2012-03-25T11:55:25+02:00</time>
      </trkpt>
      <trkpt lat="43.52301" lon="6.93393">
        <ele>60.2197266</ele>
        <time>2012-03-25T11:55:31+02:00</time>
      </trkpt>
      <trkpt lat="43.52294" lon="6.93388">
        <ele>57.8165283</ele>
        <time>2012-03-25T11:55:36+02:00</time>
      </trkpt>
      <trkpt lat="43.52288" lon="6.93383">
        <ele>53.0097656</ele>
        <time>2012-03-25T11:55:40+02:00</time>
      </trkpt>
      <trkpt lat="43.52281" lon="6.93377">
        <ele>46.7612305</ele>
        <time>2012-03-25T11:55:45+02:00</time>
      </trkpt>
      <trkpt lat="43.52276" lon="6.93378">
        <ele>41.9547119</ele>
        <time>2012-03-25T11:55:48+02:00</time>
      </trkpt>
      <trkpt lat="43.52263" lon="6.93378">
        <ele>35.7060547</ele>
        <time>2012-03-25T11:55:54+02:00</time>
      </trkpt>
      <trkpt lat="43.5226" lon="6.93378">
        <ele>35.2254639</ele>
        <time>2012-03-25T11:55:56+02:00</time>
      </trkpt>
      <trkpt lat="43.52252" lon="6.93374">
        <ele>35.7060547</ele>
        <time>2012-03-25T11:56:00+02:00</time>
      </trkpt>
      <trkpt lat="43.5224" lon="6.93367">
        <ele>32.8222656</ele>
        <time>2012-03-25T11:56:06+02:00</time>
      </trkpt>
      <trkpt lat="43.52227" lon="6.93366">
        <ele>28.4962158</ele>
        <time>2012-03-25T11:56:11+02:00</time>
      </trkpt>
      <trkpt lat="43.52218" lon="6.93366">
        <ele>24.651001</ele>
        <time>2012-03-25T11:56:16+02:00</time>
      </trkpt>
      <trkpt lat="43.52216" lon="6.93367">
        <ele>25.6123047</ele>
        <time>2012-03-25T11:56:23+02:00</time>
      </trkpt>
      <trkpt lat="43.52215" lon="6.93367">
        <ele>28.9769287</ele>
        <time>2012-03-25T11:56:39+02:00</time>
      </trkpt>
      <trkpt lat="43.52215" lon="6.93367">
        <ele>29.4575195</ele>
        <time>2012-03-25T11:56:55+02:00</time>
      </trkpt>
      <trkpt lat="43.52215" lon="6.93367">
        <ele>29.9381104</ele>
        <time>2012-03-25T11:57:03+02:00</time>
      </trkpt>
      <trkpt lat="43.52211" lon="6.93369">
        <ele>30.4188232</ele>
        <time>2012-03-25T11:57:10+02:00</time>
      </trkpt>
      <trkpt lat="43.5221" lon="6.9337">
        <ele>30.8995361</ele>
        <time>2012-03-25T11:57:12+02:00</time>
      </trkpt>
      <trkpt lat="43.522" lon="6.93376">
        <ele>31.380127</ele>
        <time>2012-03-25T11:57:18+02:00</time>
      </trkpt>
      <trkpt lat="43.52196" lon="6.93391">
        <ele>33.3028564</ele>
        <time>2012-03-25T11:57:23+02:00</time>
      </trkpt>
      <trkpt lat="43.52189" lon="6.93403">
        <ele>34.2641602</ele>
        <time>2012-03-25T11:57:27+02:00</time>
      </trkpt>
      <trkpt lat="43.52182" lon="6.93399">
        <ele>31.8607178</ele>
        <time>2012-03-25T11:57:32+02:00</time>
      </trkpt>
      <trkpt lat="43.52181" lon="6.93399">
        <ele>30.8995361</ele>
        <time>2012-03-25T11:57:33+02:00</time>
      </trkpt>
      <trkpt lat="43.52179" lon="6.93394">
        <ele>26.5736084</ele>
        <time>2012-03-25T11:57:37+02:00</time>
      </trkpt>
      <trkpt lat="43.52179" lon="6.93388">
        <ele>23.2089844</ele>
        <time>2012-03-25T11:57:40+02:00</time>
      </trkpt>
      <trkpt lat="43.52172" lon="6.93389">
        <ele>19.3637695</ele>
        <time>2012-03-25T11:57:45+02:00</time>
      </trkpt>
      <trkpt lat="43.5217" lon="6.93391">
        <ele>18.8830566</ele>
        <time>2012-03-25T11:57:46+02:00</time>
      </trkpt>
      <trkpt lat="43.52169" lon="6.93395">
        <ele>17.9217529</ele>
        <time>2012-03-25T11:57:48+02:00</time>
      </trkpt>
      <trkpt lat="43.52166" lon="6.93407">
        <ele>16.9604492</ele>
        <time>2012-03-25T11:57:53+02:00</time>
      </trkpt>
      <trkpt lat="43.5216" lon="6.93411">
        <ele>16.4797363</ele>
        <time>2012-03-25T11:57:57+02:00</time>
      </trkpt>
      <trkpt lat="43.52156" lon="6.93409">
        <ele>18.4023438</ele>
        <time>2012-03-25T11:58:00+02:00</time>
      </trkpt>
      <trkpt lat="43.5215" lon="6.9341">
        <ele>19.3637695</ele>
        <time>2012-03-25T11:58:04+02:00</time>
      </trkpt>
      <trkpt lat="43.52137" lon="6.93414">
        <ele>22.7282715</ele>
        <time>2012-03-25T11:58:12+02:00</time>
      </trkpt>
      <trkpt lat="43.52135" lon="6.93413">
        <ele>23.2089844</ele>
        <time>2012-03-25T11:58:13+02:00</time>
      </trkpt>
      <trkpt lat="43.52125" lon="6.93408">
        <ele>25.1317139</ele>
        <time>2012-03-25T11:58:18+02:00</time>
      </trkpt>
      <trkpt lat="43.52118" lon="6.93397">
        <ele>26.5736084</ele>
        <time>2012-03-25T11:58:24+02:00</time>
      </trkpt>
      <trkpt lat="43.52117" lon="6.93389">
        <ele>27.5349121</ele>
        <time>2012-03-25T11:58:30+02:00</time>
      </trkpt>
      <trkpt lat="43.52113" lon="6.93383">
        <ele>30.4188232</ele>
        <time>2012-03-25T11:58:36+02:00</time>
      </trkpt>
      <trkpt lat="43.52109" lon="6.93379">
        <ele>31.8607178</ele>
        <time>2012-03-25T11:58:40+02:00</time>
      </trkpt>
      <trkpt lat="43.52106" lon="6.93375">
        <ele>32.3415527</ele>
        <time>2012-03-25T11:58:44+02:00</time>
      </trkpt>
      <trkpt lat="43.52102" lon="6.9337">
        <ele>34.2641602</ele>
        <time>2012-03-25T11:58:51+02:00</time>
      </trkpt>
      <trkpt lat="43.52097" lon="6.93366">
        <ele>35.2254639</ele>
        <time>2012-03-25T11:58:57+02:00</time>
      </trkpt>
      <trkpt lat="43.52094" lon="6.93364">
        <ele>36.1867676</ele>
        <time>2012-03-25T11:59:00+02:00</time>
      </trkpt>
      <trkpt lat="43.52089" lon="6.93359">
        <ele>37.6286621</ele>
        <time>2012-03-25T11:59:05+02:00</time>
      </trkpt>
      <trkpt lat="43.52082" lon="6.93361">
        <ele>38.5900879</ele>
        <time>2012-03-25T11:59:12+02:00</time>
      </trkpt>
      <trkpt lat="43.52081" lon="6.93362">
        <ele>38.5900879</ele>
        <time>2012-03-25T11:59:13+02:00</time>
      </trkpt>
      <trkpt lat="43.52076" lon="6.93362">
        <ele>39.5512695</ele>
        <time>2012-03-25T11:59:19+02:00</time>
      </trkpt>
      <trkpt lat="43.52068" lon="6.93366">
        <ele>40.9934082</ele>
        <time>2012-03-25T11:59:25+02:00</time>
      </trkpt>
      <trkpt lat="43.52059" lon="6.93371">
        <ele>43.8773193</ele>
        <time>2012-03-25T11:59:31+02:00</time>
      </trkpt>
      <trkpt lat="43.5205" lon="6.93369">
        <ele>46.2806396</ele>
        <time>2012-03-25T11:59:38+02:00</time>
      </trkpt>
      <trkpt lat="43.52044" lon="6.93366">
        <ele>48.2033691</ele>
        <time>2012-03-25T11:59:44+02:00</time>
      </trkpt>
      <trkpt lat="43.52036" lon="6.93351">
        <ele>47.7225342</ele>
        <time>2012-03-25T11:59:50+02:00</time>
      </trkpt>
      <trkpt lat="43.52028" lon="6.93334">
        <ele>46.2806396</ele>
        <time>2012-03-25T11:59:56+02:00</time>
      </trkpt>
      <trkpt lat="43.52022" lon="6.93322">
        <ele>46.2806396</ele>
        <time>2012-03-25T12:00:00+02:00</time>
      </trkpt>
      <trkpt lat="43.52021" lon="6.93306">
        <ele>46.7612305</ele>
        <time>2012-03-25T12:00:04+02:00</time>
      </trkpt>
      <trkpt lat="43.52019" lon="6.93295">
        <ele>47.7225342</ele>
        <time>2012-03-25T12:00:07+02:00</time>
      </trkpt>
      <trkpt lat="43.52013" lon="6.93276">
        <ele>46.7612305</ele>
        <time>2012-03-25T12:00:13+02:00</time>
      </trkpt>
      <trkpt lat="43.52007" lon="6.9326">
        <ele>45.7999268</ele>
        <time>2012-03-25T12:00:18+02:00</time>
      </trkpt>
      <trkpt lat="43.52006" lon="6.93257">
        <ele>45.3192139</ele>
        <time>2012-03-25T12:00:19+02:00</time>
      </trkpt>
      <trkpt lat="43.52005" lon="6.93246">
        <ele>44.838623</ele>
        <time>2012-03-25T12:00:24+02:00</time>
      </trkpt>
      <trkpt lat="43.52005" lon="6.93244">
        <ele>45.3192139</ele>
        <time>2012-03-25T12:00:25+02:00</time>
      </trkpt>
      <trkpt lat="43.52006" lon="6.93234">
        <ele>44.3580322</ele>
        <time>2012-03-25T12:00:31+02:00</time>
      </trkpt>
      <trkpt lat="43.52006" lon="6.93233">
        <ele>43.8773193</ele>
        <time>2012-03-25T12:00:36+02:00</time>
      </trkpt>
      <trkpt lat="43.52006" lon="6.93228">
        <ele>44.3580322</ele>
        <time>2012-03-25T12:00:40+02:00</time>
      </trkpt>
      <trkpt lat="43.52004" lon="6.93215">
        <ele>43.3966064</ele>
        <time>2012-03-25T12:00:45+02:00</time>
      </trkpt>
      <trkpt lat="43.52004" lon="6.93208">
        <ele>42.4354248</ele>
        <time>2012-03-25T12:00:47+02:00</time>
      </trkpt>
      <trkpt lat="43.52002" lon="6.93181">
        <ele>41.9547119</ele>
        <time>2012-03-25T12:00:55+02:00</time>
      </trkpt>
      <trkpt lat="43.52" lon="6.93168">
        <ele>42.4354248</ele>
        <time>2012-03-25T12:00:59+02:00</time>
      </trkpt>
      <trkpt lat="43.51997" lon="6.93156">
        <ele>43.8773193</ele>
        <time>2012-03-25T12:01:03+02:00</time>
      </trkpt>
      <trkpt lat="43.51994" lon="6.93151">
        <ele>44.838623</ele>
        <time>2012-03-25T12:01:05+02:00</time>
      </trkpt>
      <trkpt lat="43.51987" lon="6.93129">
        <ele>46.2806396</ele>
        <time>2012-03-25T12:01:11+02:00</time>
      </trkpt>
      <trkpt lat="43.51978" lon="6.93112">
        <ele>48.2033691</ele>
        <time>2012-03-25T12:01:17+02:00</time>
      </trkpt>
      <trkpt lat="43.51975" lon="6.93104">
        <ele>48.68396</ele>
        <time>2012-03-25T12:01:20+02:00</time>
      </trkpt>
      <trkpt lat="43.51973" lon="6.9309">
        <ele>48.68396</ele>
        <time>2012-03-25T12:01:24+02:00</time>
      </trkpt>
      <trkpt lat="43.5197" lon="6.93072">
        <ele>48.68396</ele>
        <time>2012-03-25T12:01:29+02:00</time>
      </trkpt>
      <trkpt lat="43.51971" lon="6.93066">
        <ele>49.1645508</ele>
        <time>2012-03-25T12:01:31+02:00</time>
      </trkpt>
      <trkpt lat="43.51972" lon="6.93055">
        <ele>49.6452637</ele>
        <time>2012-03-25T12:01:36+02:00</time>
      </trkpt>
      <trkpt lat="43.51974" lon="6.93042">
        <ele>49.1645508</ele>
        <time>2012-03-25T12:01:41+02:00</time>
      </trkpt>
      <trkpt lat="43.51974" lon="6.9303">
        <ele>49.6452637</ele>
        <time>2012-03-25T12:01:46+02:00</time>
      </trkpt>
      <trkpt lat="43.51974" lon="6.93026">
        <ele>50.6065674</ele>
        <time>2012-03-25T12:01:52+02:00</time>
      </trkpt>
      <trkpt lat="43.51974" lon="6.93022">
        <ele>52.048584</ele>
        <time>2012-03-25T12:01:55+02:00</time>
      </trkpt>
      <trkpt lat="43.51975" lon="6.93014">
        <ele>54.4517822</ele>
        <time>2012-03-25T12:02:00+02:00</time>
      </trkpt>
      <trkpt lat="43.51973" lon="6.93011">
        <ele>55.4130859</ele>
        <time>2012-03-25T12:02:04+02:00</time>
      </trkpt>
      <trkpt lat="43.51971" lon="6.92999">
        <ele>57.3358154</ele>
        <time>2012-03-25T12:02:11+02:00</time>
      </trkpt>
      <trkpt lat="43.5197" lon="6.9299">
        <ele>59.2584229</ele>
        <time>2012-03-25T12:02:17+02:00</time>
      </trkpt>
      <trkpt lat="43.5197" lon="6.92987">
        <ele>59.7391357</ele>
        <time>2012-03-25T12:02:19+02:00</time>
      </trkpt>
      <trkpt lat="43.51967" lon="6.9298">
        <ele>60.2197266</ele>
        <time>2012-03-25T12:02:24+02:00</time>
      </trkpt>
      <trkpt lat="43.51966" lon="6.92972">
        <ele>61.1810303</ele>
        <time>2012-03-25T12:02:29+02:00</time>
      </trkpt>
      <trkpt lat="43.51965" lon="6.92965">
        <ele>61.1810303</ele>
        <time>2012-03-25T12:02:33+02:00</time>
      </trkpt>
      <trkpt lat="43.51962" lon="6.92956">
        <ele>61.6617432</ele>
        <time>2012-03-25T12:02:39+02:00</time>
      </trkpt>
      <trkpt lat="43.51959" lon="6.92947">
        <ele>62.6229248</ele>
        <time>2012-03-25T12:02:45+02:00</time>
      </trkpt>
      <trkpt lat="43.51959" lon="6.92945">
        <ele>63.1036377</ele>
        <time>2012-03-25T12:02:52+02:00</time>
      </trkpt>
      <trkpt lat="43.51958" lon="6.92939">
        <ele>63.1036377</ele>
        <time>2012-03-25T12:03:04+02:00</time>
      </trkpt>
      <trkpt lat="43.51957" lon="6.9293">
        <ele>63.1036377</ele>
        <time>2012-03-25T12:03:12+02:00</time>
      </trkpt>
      <trkpt lat="43.51957" lon="6.9293">
        <ele>62.6229248</ele>
        <time>2012-03-25T12:03:21+02:00</time>
      </trkpt>
      <trkpt lat="43.51957" lon="6.92925">
        <ele>62.6229248</ele>
        <time>2012-03-25T12:03:26+02:00</time>
      </trkpt>
      <trkpt lat="43.51954" lon="6.92912">
        <ele>63.1036377</ele>
        <time>2012-03-25T12:03:33+02:00</time>
      </trkpt>
      <trkpt lat="43.51948" lon="6.929">
        <ele>63.1036377</ele>
        <time>2012-03-25T12:03:39+02:00</time>
      </trkpt>
      <trkpt lat="43.51942" lon="6.92883">
        <ele>64.5456543</ele>
        <time>2012-03-25T12:03:44+02:00</time>
      </trkpt>
      <trkpt lat="43.5194" lon="6.92872">
        <ele>66.4682617</ele>
        <time>2012-03-25T12:03:48+02:00</time>
      </trkpt>
      <trkpt lat="43.51939" lon="6.92856">
        <ele>66.4682617</ele>
        <time>2012-03-25T12:03:53+02:00</time>
      </trkpt>
      <trkpt lat="43.51938" lon="6.92837">
        <ele>66.4682617</ele>
        <time>2012-03-25T12:03:59+02:00</time>
      </trkpt>
      <trkpt lat="43.51942" lon="6.92821">
        <ele>66.4682617</ele>
        <time>2012-03-25T12:04:04+02:00</time>
      </trkpt>
      <trkpt lat="43.51943" lon="6.92805">
        <ele>65.5070801</ele>
        <time>2012-03-25T12:04:09+02:00</time>
      </trkpt>
      <trkpt lat="43.51942" lon="6.928">
        <ele>65.5070801</ele>
        <time>2012-03-25T12:04:11+02:00</time>
      </trkpt>
      <trkpt lat="43.51941" lon="6.92794">
        <ele>65.5070801</ele>
        <time>2012-03-25T12:04:15+02:00</time>
      </trkpt>
      <trkpt lat="43.51936" lon="6.92777">
        <ele>65.5070801</ele>
        <time>2012-03-25T12:04:21+02:00</time>
      </trkpt>
      <trkpt lat="43.51929" lon="6.92768">
        <ele>64.5456543</ele>
        <time>2012-03-25T12:04:25+02:00</time>
      </trkpt>
      <trkpt lat="43.51918" lon="6.92755">
        <ele>64.5456543</ele>
        <time>2012-03-25T12:04:30+02:00</time>
      </trkpt>
      <trkpt lat="43.51908" lon="6.92738">
        <ele>62.6229248</ele>
        <time>2012-03-25T12:04:35+02:00</time>
      </trkpt>
      <trkpt lat="43.51897" lon="6.92725">
        <ele>61.1810303</ele>
        <time>2012-03-25T12:04:40+02:00</time>
      </trkpt>
      <trkpt lat="43.51892" lon="6.9271">
        <ele>59.7391357</ele>
        <time>2012-03-25T12:04:45+02:00</time>
      </trkpt>
      <trkpt lat="43.51889" lon="6.92691">
        <ele>60.2197266</ele>
        <time>2012-03-25T12:04:51+02:00</time>
      </trkpt>
      <trkpt lat="43.51889" lon="6.92677">
        <ele>60.7003174</ele>
        <time>2012-03-25T12:04:56+02:00</time>
      </trkpt>
      <trkpt lat="43.51886" lon="6.92662">
        <ele>62.142334</ele>
        <time>2012-03-25T12:05:01+02:00</time>
      </trkpt>
      <trkpt lat="43.51882" lon="6.92648">
        <ele>64.5456543</ele>
        <time>2012-03-25T12:05:07+02:00</time>
      </trkpt>
      <trkpt lat="43.51878" lon="6.92635">
        <ele>65.0263672</ele>
        <time>2012-03-25T12:05:15+02:00</time>
      </trkpt>
      <trkpt lat="43.51875" lon="6.9262">
        <ele>65.9876709</ele>
        <time>2012-03-25T12:05:20+02:00</time>
      </trkpt>
      <trkpt lat="43.5187" lon="6.92601">
        <ele>66.9489746</ele>
        <time>2012-03-25T12:05:26+02:00</time>
      </trkpt>
      <trkpt lat="43.51865" lon="6.92586">
        <ele>66.9489746</ele>
        <time>2012-03-25T12:05:31+02:00</time>
      </trkpt>
      <trkpt lat="43.51861" lon="6.92578">
        <ele>68.3908691</ele>
        <time>2012-03-25T12:05:35+02:00</time>
      </trkpt>
      <trkpt lat="43.51857" lon="6.92562">
        <ele>71.2749023</ele>
        <time>2012-03-25T12:05:41+02:00</time>
      </trkpt>
      <trkpt lat="43.51853" lon="6.92549">
        <ele>73.6782227</ele>
        <time>2012-03-25T12:05:46+02:00</time>
      </trkpt>
      <trkpt lat="43.51852" lon="6.92539">
        <ele>74.6395264</ele>
        <time>2012-03-25T12:05:50+02:00</time>
      </trkpt>
      <trkpt lat="43.51846" lon="6.92526">
        <ele>75.6008301</ele>
        <time>2012-03-25T12:05:55+02:00</time>
      </trkpt>
      <trkpt lat="43.51845" lon="6.92522">
        <ele>76.0814209</ele>
        <time>2012-03-25T12:05:58+02:00</time>
      </trkpt>
      <trkpt lat="43.51843" lon="6.9252">
        <ele>76.0814209</ele>
        <time>2012-03-25T12:06:06+02:00</time>
      </trkpt>
      <trkpt lat="43.51837" lon="6.92512">
        <ele>76.5621338</ele>
        <time>2012-03-25T12:06:13+02:00</time>
      </trkpt>
      <trkpt lat="43.51835" lon="6.92507">
        <ele>77.0428467</ele>
        <time>2012-03-25T12:06:16+02:00</time>
      </trkpt>
      <trkpt lat="43.51832" lon="6.92501">
        <ele>78.0040283</ele>
        <time>2012-03-25T12:06:21+02:00</time>
      </trkpt>
      <trkpt lat="43.51828" lon="6.92496">
        <ele>78.4847412</ele>
        <time>2012-03-25T12:06:28+02:00</time>
      </trkpt>
      <trkpt lat="43.51824" lon="6.92489">
        <ele>78.9654541</ele>
        <time>2012-03-25T12:06:33+02:00</time>
      </trkpt>
      <trkpt lat="43.51823" lon="6.92486">
        <ele>79.4460449</ele>
        <time>2012-03-25T12:06:35+02:00</time>
      </trkpt>
      <trkpt lat="43.51822" lon="6.92484">
        <ele>80.4074707</ele>
        <time>2012-03-25T12:06:41+02:00</time>
      </trkpt>
      <trkpt lat="43.51822" lon="6.92483">
        <ele>80.4074707</ele>
        <time>2012-03-25T12:06:54+02:00</time>
      </trkpt>
      <trkpt lat="43.51823" lon="6.92481">
        <ele>79.4460449</ele>
        <time>2012-03-25T12:07:02+02:00</time>
      </trkpt>
      <trkpt lat="43.51826" lon="6.92477">
        <ele>78.4847412</ele>
        <time>2012-03-25T12:07:07+02:00</time>
      </trkpt>
      <trkpt lat="43.51826" lon="6.92478">
        <ele>78.4847412</ele>
        <time>2012-03-25T12:07:10+02:00</time>
      </trkpt>
      <trkpt lat="43.51826" lon="6.92473">
        <ele>78.0040283</ele>
        <time>2012-03-25T12:07:15+02:00</time>
      </trkpt>
      <trkpt lat="43.51826" lon="6.92464">
        <ele>77.5234375</ele>
        <time>2012-03-25T12:07:21+02:00</time>
      </trkpt>
      <trkpt lat="43.51826" lon="6.92462">
        <ele>77.0428467</ele>
        <time>2012-03-25T12:07:22+02:00</time>
      </trkpt>
      <trkpt lat="43.51824" lon="6.92452">
        <ele>75.1202393</ele>
        <time>2012-03-25T12:07:27+02:00</time>
      </trkpt>
      <trkpt lat="43.51826" lon="6.92441">
        <ele>73.6782227</ele>
        <time>2012-03-25T12:07:31+02:00</time>
      </trkpt>
      <trkpt lat="43.51829" lon="6.92434">
        <ele>72.7169189</ele>
        <time>2012-03-25T12:07:35+02:00</time>
      </trkpt>
      <trkpt lat="43.51831" lon="6.92432">
        <ele>72.2362061</ele>
        <time>2012-03-25T12:07:36+02:00</time>
      </trkpt>
      <trkpt lat="43.51835" lon="6.92428">
        <ele>71.7554932</ele>
        <time>2012-03-25T12:07:39+02:00</time>
      </trkpt>
      <trkpt lat="43.51836" lon="6.92419">
        <ele>71.2749023</ele>
        <time>2012-03-25T12:07:43+02:00</time>
      </trkpt>
      <trkpt lat="43.51835" lon="6.92417">
        <ele>71.2749023</ele>
        <time>2012-03-25T12:07:44+02:00</time>
      </trkpt>
      <trkpt lat="43.51833" lon="6.92413">
        <ele>71.7554932</ele>
        <time>2012-03-25T12:07:47+02:00</time>
      </trkpt>
      <trkpt lat="43.51829" lon="6.92401">
        <ele>71.7554932</ele>
        <time>2012-03-25T12:07:54+02:00</time>
      </trkpt>
      <trkpt lat="43.51825" lon="6.92397">
        <ele>71.2749023</ele>
        <time>2012-03-25T12:07:57+02:00</time>
      </trkpt>
      <trkpt lat="43.51825" lon="6.92395">
        <ele>70.7941895</ele>
        <time>2012-03-25T12:08:06+02:00</time>
      </trkpt>
      <trkpt lat="43.51825" lon="6.92395">
        <ele>71.2749023</ele>
        <time>2012-03-25T12:08:13+02:00</time>
      </trkpt>
      <trkpt lat="43.51822" lon="6.92385">
        <ele>70.7941895</ele>
        <time>2012-03-25T12:08:19+02:00</time>
      </trkpt>
      <trkpt lat="43.51827" lon="6.92375">
        <ele>70.3134766</ele>
        <time>2012-03-25T12:08:24+02:00</time>
      </trkpt>
      <trkpt lat="43.5183" lon="6.92373">
        <ele>70.3134766</ele>
        <time>2012-03-25T12:08:25+02:00</time>
      </trkpt>
      <trkpt lat="43.51844" lon="6.92364">
        <ele>70.7941895</ele>
        <time>2012-03-25T12:08:31+02:00</time>
      </trkpt>
      <trkpt lat="43.51859" lon="6.92367">
        <ele>72.2362061</ele>
        <time>2012-03-25T12:08:37+02:00</time>
      </trkpt>
      <trkpt lat="43.51874" lon="6.92368">
        <ele>74.1588135</ele>
        <time>2012-03-25T12:08:44+02:00</time>
      </trkpt>
      <trkpt lat="43.51888" lon="6.92374">
        <ele>75.1202393</ele>
        <time>2012-03-25T12:08:50+02:00</time>
      </trkpt>
      <trkpt lat="43.51901" lon="6.92382">
        <ele>75.6008301</ele>
        <time>2012-03-25T12:08:56+02:00</time>
      </trkpt>
      <trkpt lat="43.51906" lon="6.92378">
        <ele>77.0428467</ele>
        <time>2012-03-25T12:09:00+02:00</time>
      </trkpt>
      <trkpt lat="43.51909" lon="6.92376">
        <ele>77.5234375</ele>
        <time>2012-03-25T12:09:09+02:00</time>
      </trkpt>
      <trkpt lat="43.51908" lon="6.92369">
        <ele>78.0040283</ele>
        <time>2012-03-25T12:09:14+02:00</time>
      </trkpt>
      <trkpt lat="43.51908" lon="6.92364">
        <ele>78.0040283</ele>
        <time>2012-03-25T12:09:18+02:00</time>
      </trkpt>
      <trkpt lat="43.51908" lon="6.92357">
        <ele>78.4847412</ele>
        <time>2012-03-25T12:09:22+02:00</time>
      </trkpt>
      <trkpt lat="43.51906" lon="6.92345">
        <ele>79.9266357</ele>
        <time>2012-03-25T12:09:29+02:00</time>
      </trkpt>
      <trkpt lat="43.51907" lon="6.92344">
        <ele>79.9266357</ele>
        <time>2012-03-25T12:09:39+02:00</time>
      </trkpt>
      <trkpt lat="43.51905" lon="6.92341">
        <ele>80.4074707</ele>
        <time>2012-03-25T12:09:43+02:00</time>
      </trkpt>
      <trkpt lat="43.51901" lon="6.92324">
        <ele>83.2913818</ele>
        <time>2012-03-25T12:09:50+02:00</time>
      </trkpt>
      <trkpt lat="43.51897" lon="6.92311">
        <ele>85.6945801</ele>
        <time>2012-03-25T12:09:55+02:00</time>
      </trkpt>
      <trkpt lat="43.51891" lon="6.92302">
        <ele>87.1365967</ele>
        <time>2012-03-25T12:09:59+02:00</time>
      </trkpt>
      <trkpt lat="43.51885" lon="6.92291">
        <ele>89.0593262</ele>
        <time>2012-03-25T12:10:04+02:00</time>
      </trkpt>
      <trkpt lat="43.51881" lon="6.92285">
        <ele>90.0206299</ele>
        <time>2012-03-25T12:10:07+02:00</time>
      </trkpt>
      <trkpt lat="43.51871" lon="6.92275">
        <ele>91.4625244</ele>
        <time>2012-03-25T12:10:12+02:00</time>
      </trkpt>
      <trkpt lat="43.51858" lon="6.92264">
        <ele>91.9432373</ele>
        <time>2012-03-25T12:10:19+02:00</time>
      </trkpt>
      <trkpt lat="43.51845" lon="6.92253">
        <ele>92.4239502</ele>
        <time>2012-03-25T12:10:26+02:00</time>
      </trkpt>
      <trkpt lat="43.51838" lon="6.92245">
        <ele>92.4239502</ele>
        <time>2012-03-25T12:10:30+02:00</time>
      </trkpt>
      <trkpt lat="43.51829" lon="6.9224">
        <ele>93.8658447</ele>
        <time>2012-03-25T12:10:35+02:00</time>
      </trkpt>
      <trkpt lat="43.5182" lon="6.92231">
        <ele>93.8658447</ele>
        <time>2012-03-25T12:10:40+02:00</time>
      </trkpt>
      <trkpt lat="43.51809" lon="6.92214">
        <ele>93.8658447</ele>
        <time>2012-03-25T12:10:47+02:00</time>
      </trkpt>
      <trkpt lat="43.51798" lon="6.922">
        <ele>94.8271484</ele>
        <time>2012-03-25T12:10:54+02:00</time>
      </trkpt>
      <trkpt lat="43.51792" lon="6.92189">
        <ele>94.8271484</ele>
        <time>2012-03-25T12:10:59+02:00</time>
      </trkpt>
      <trkpt lat="43.51787" lon="6.92184">
        <ele>95.3077393</ele>
        <time>2012-03-25T12:11:03+02:00</time>
      </trkpt>
      <trkpt lat="43.51782" lon="6.92178">
        <ele>95.7884521</ele>
        <time>2012-03-25T12:11:08+02:00</time>
      </trkpt>
      <trkpt lat="43.51774" lon="6.92167">
        <ele>97.2304688</ele>
        <time>2012-03-25T12:11:15+02:00</time>
      </trkpt>
      <trkpt lat="43.51764" lon="6.92153">
        <ele>98.6724854</ele>
        <time>2012-03-25T12:11:21+02:00</time>
      </trkpt>
      <trkpt lat="43.51755" lon="6.92139">
        <ele>100.595093</ele>
        <time>2012-03-25T12:11:27+02:00</time>
      </trkpt>
      <trkpt lat="43.51745" lon="6.92126">
        <ele>101.556396</ele>
        <time>2012-03-25T12:11:33+02:00</time>
      </trkpt>
      <trkpt lat="43.51737" lon="6.92119">
        <ele>102.998291</ele>
        <time>2012-03-25T12:11:38+02:00</time>
      </trkpt>
      <trkpt lat="43.51732" lon="6.92114">
        <ele>103.959717</ele>
        <time>2012-03-25T12:11:43+02:00</time>
      </trkpt>
      <trkpt lat="43.51721" lon="6.92103">
        <ele>106.363037</ele>
        <time>2012-03-25T12:11:53+02:00</time>
      </trkpt>
      <trkpt lat="43.51713" lon="6.92094">
        <ele>108.285645</ele>
        <time>2012-03-25T12:12:01+02:00</time>
      </trkpt>
      <trkpt lat="43.5171" lon="6.9209">
        <ele>108.766235</ele>
        <time>2012-03-25T12:12:04+02:00</time>
      </trkpt>
      <trkpt lat="43.51704" lon="6.92075">
        <ele>110.688843</ele>
        <time>2012-03-25T12:12:13+02:00</time>
      </trkpt>
      <trkpt lat="43.51703" lon="6.92062">
        <ele>112.611572</ele>
        <time>2012-03-25T12:12:20+02:00</time>
      </trkpt>
      <trkpt lat="43.51705" lon="6.92053">
        <ele>113.572998</ele>
        <time>2012-03-25T12:12:25+02:00</time>
      </trkpt>
      <trkpt lat="43.51706" lon="6.92042">
        <ele>114.053589</ele>
        <time>2012-03-25T12:12:31+02:00</time>
      </trkpt>
      <trkpt lat="43.51707" lon="6.92041">
        <ele>114.053589</ele>
        <time>2012-03-25T12:12:41+02:00</time>
      </trkpt>
      <trkpt lat="43.51707" lon="6.9204">
        <ele>113.572998</ele>
        <time>2012-03-25T12:12:49+02:00</time>
      </trkpt>
      <trkpt lat="43.51708" lon="6.92034">
        <ele>114.053589</ele>
        <time>2012-03-25T12:12:53+02:00</time>
      </trkpt>
      <trkpt lat="43.51706" lon="6.92018">
        <ele>114.053589</ele>
        <time>2012-03-25T12:13:01+02:00</time>
      </trkpt>
      <trkpt lat="43.51705" lon="6.92009">
        <ele>113.572998</ele>
        <time>2012-03-25T12:13:04+02:00</time>
      </trkpt>
      <trkpt lat="43.51703" lon="6.92004">
        <ele>112.611572</ele>
        <time>2012-03-25T12:13:08+02:00</time>
      </trkpt>
      <trkpt lat="43.51702" lon="6.91996">
        <ele>112.611572</ele>
        <time>2012-03-25T12:13:13+02:00</time>
      </trkpt>
      <trkpt lat="43.51699" lon="6.91982">
        <ele>112.130981</ele>
        <time>2012-03-25T12:13:17+02:00</time>
      </trkpt>
      <trkpt lat="43.51691" lon="6.91966">
        <ele>110.688843</ele>
        <time>2012-03-25T12:13:22+02:00</time>
      </trkpt>
      <trkpt lat="43.51682" lon="6.91948">
        <ele>109.246948</ele>
        <time>2012-03-25T12:13:27+02:00</time>
      </trkpt>
      <trkpt lat="43.51681" lon="6.91944">
        <ele>108.766235</ele>
        <time>2012-03-25T12:13:28+02:00</time>
      </trkpt>
      <trkpt lat="43.51675" lon="6.91927">
        <ele>106.843628</ele>
        <time>2012-03-25T12:13:33+02:00</time>
      </trkpt>
      <trkpt lat="43.51673" lon="6.9192">
        <ele>105.882446</ele>
        <time>2012-03-25T12:13:35+02:00</time>
      </trkpt>
      <trkpt lat="43.51675" lon="6.91904">
        <ele>103.479004</ele>
        <time>2012-03-25T12:13:39+02:00</time>
      </trkpt>
      <trkpt lat="43.51684" lon="6.91891">
        <ele>100.595093</ele>
        <time>2012-03-25T12:13:44+02:00</time>
      </trkpt>
      <trkpt lat="43.51691" lon="6.91881">
        <ele>99.6337891</ele>
        <time>2012-03-25T12:13:48+02:00</time>
      </trkpt>
      <trkpt lat="43.51697" lon="6.91865">
        <ele>100.114502</ele>
        <time>2012-03-25T12:13:53+02:00</time>
      </trkpt>
      <trkpt lat="43.51699" lon="6.91848">
        <ele>101.075684</ele>
        <time>2012-03-25T12:13:58+02:00</time>
      </trkpt>
      <trkpt lat="43.51698" lon="6.91825">
        <ele>102.5177</ele>
        <time>2012-03-25T12:14:04+02:00</time>
      </trkpt>
      <trkpt lat="43.51695" lon="6.91803">
        <ele>102.5177</ele>
        <time>2012-03-25T12:14:10+02:00</time>
      </trkpt>
      <trkpt lat="43.51692" lon="6.91794">
        <ele>102.998291</ele>
        <time>2012-03-25T12:14:13+02:00</time>
      </trkpt>
      <trkpt lat="43.51688" lon="6.9178">
        <ele>103.959717</ele>
        <time>2012-03-25T12:14:17+02:00</time>
      </trkpt>
      <trkpt lat="43.51681" lon="6.91762">
        <ele>103.959717</ele>
        <time>2012-03-25T12:14:22+02:00</time>
      </trkpt>
      <trkpt lat="43.51675" lon="6.91746">
        <ele>103.959717</ele>
        <time>2012-03-25T12:14:26+02:00</time>
      </trkpt>
      <trkpt lat="43.51671" lon="6.91734">
        <ele>102.998291</ele>
        <time>2012-03-25T12:14:30+02:00</time>
      </trkpt>
      <trkpt lat="43.51672" lon="6.9173">
        <ele>103.479004</ele>
        <time>2012-03-25T12:14:31+02:00</time>
      </trkpt>
      <trkpt lat="43.51672" lon="6.91713">
        <ele>103.479004</ele>
        <time>2012-03-25T12:14:36+02:00</time>
      </trkpt>
      <trkpt lat="43.51664" lon="6.91691">
        <ele>102.5177</ele>
        <time>2012-03-25T12:14:41+02:00</time>
      </trkpt>
      <trkpt lat="43.51664" lon="6.91687">
        <ele>102.037109</ele>
        <time>2012-03-25T12:14:42+02:00</time>
      </trkpt>
      <trkpt lat="43.51668" lon="6.9168">
        <ele>102.037109</ele>
        <time>2012-03-25T12:14:45+02:00</time>
      </trkpt>
      <trkpt lat="43.51684" lon="6.91669">
        <ele>101.075684</ele>
        <time>2012-03-25T12:14:52+02:00</time>
      </trkpt>
      <trkpt lat="43.51693" lon="6.91663">
        <ele>102.037109</ele>
        <time>2012-03-25T12:14:55+02:00</time>
      </trkpt>
      <trkpt lat="43.51694" lon="6.9166">
        <ele>102.037109</ele>
        <time>2012-03-25T12:14:56+02:00</time>
      </trkpt>
      <trkpt lat="43.51697" lon="6.91648">
        <ele>101.556396</ele>
        <time>2012-03-25T12:15:00+02:00</time>
      </trkpt>
      <trkpt lat="43.517" lon="6.91642">
        <ele>101.556396</ele>
        <time>2012-03-25T12:15:02+02:00</time>
      </trkpt>
      <trkpt lat="43.51701" lon="6.91623">
        <ele>99.1530762</ele>
        <time>2012-03-25T12:15:07+02:00</time>
      </trkpt>
      <trkpt lat="43.51704" lon="6.91606">
        <ele>98.1918945</ele>
        <time>2012-03-25T12:15:11+02:00</time>
      </trkpt>
      <trkpt lat="43.51707" lon="6.91583">
        <ele>99.6337891</ele>
        <time>2012-03-25T12:15:16+02:00</time>
      </trkpt>
      <trkpt lat="43.51707" lon="6.9158">
        <ele>100.114502</ele>
        <time>2012-03-25T12:15:17+02:00</time>
      </trkpt>
      <trkpt lat="43.51704" lon="6.91564">
        <ele>99.1530762</ele>
        <time>2012-03-25T12:15:22+02:00</time>
      </trkpt>
      <trkpt lat="43.51695" lon="6.91549">
        <ele>99.6337891</ele>
        <time>2012-03-25T12:15:27+02:00</time>
      </trkpt>
      <trkpt lat="43.51687" lon="6.91536">
        <ele>100.595093</ele>
        <time>2012-03-25T12:15:32+02:00</time>
      </trkpt>
      <trkpt lat="43.51678" lon="6.91527">
        <ele>101.556396</ele>
        <time>2012-03-25T12:15:37+02:00</time>
      </trkpt>
      <trkpt lat="43.51671" lon="6.91509">
        <ele>101.075684</ele>
        <time>2012-03-25T12:15:43+02:00</time>
      </trkpt>
      <trkpt lat="43.51675" lon="6.91494">
        <ele>100.114502</ele>
        <time>2012-03-25T12:15:48+02:00</time>
      </trkpt>
      <trkpt lat="43.51678" lon="6.91493">
        <ele>100.595093</ele>
        <time>2012-03-25T12:15:49+02:00</time>
      </trkpt>
      <trkpt lat="43.51693" lon="6.91478">
        <ele>101.556396</ele>
        <time>2012-03-25T12:15:55+02:00</time>
      </trkpt>
      <trkpt lat="43.51695" lon="6.91475">
        <ele>101.556396</ele>
        <time>2012-03-25T12:15:56+02:00</time>
      </trkpt>
      <trkpt lat="43.51699" lon="6.91457">
        <ele>100.114502</ele>
        <time>2012-03-25T12:16:01+02:00</time>
      </trkpt>
      <trkpt lat="43.51699" lon="6.91448">
        <ele>98.1918945</ele>
        <time>2012-03-25T12:16:04+02:00</time>
      </trkpt>
      <trkpt lat="43.51696" lon="6.9143">
        <ele>97.2304688</ele>
        <time>2012-03-25T12:16:09+02:00</time>
      </trkpt>
      <trkpt lat="43.51693" lon="6.91416">
        <ele>95.3077393</ele>
        <time>2012-03-25T12:16:13+02:00</time>
      </trkpt>
      <trkpt lat="43.51685" lon="6.91405">
        <ele>95.3077393</ele>
        <time>2012-03-25T12:16:18+02:00</time>
      </trkpt>
      <trkpt lat="43.51686" lon="6.91395">
        <ele>96.7498779</ele>
        <time>2012-03-25T12:16:21+02:00</time>
      </trkpt>
      <trkpt lat="43.51691" lon="6.9139">
        <ele>98.6724854</ele>
        <time>2012-03-25T12:16:24+02:00</time>
      </trkpt>
      <trkpt lat="43.51698" lon="6.91383">
        <ele>100.595093</ele>
        <time>2012-03-25T12:16:28+02:00</time>
      </trkpt>
      <trkpt lat="43.51703" lon="6.91379">
        <ele>101.556396</ele>
        <time>2012-03-25T12:16:30+02:00</time>
      </trkpt>
      <trkpt lat="43.51722" lon="6.91365">
        <ele>103.479004</ele>
        <time>2012-03-25T12:16:38+02:00</time>
      </trkpt>
      <trkpt lat="43.51725" lon="6.91364">
        <ele>103.959717</ele>
        <time>2012-03-25T12:16:39+02:00</time>
      </trkpt>
      <trkpt lat="43.51743" lon="6.9136">
        <ele>102.998291</ele>
        <time>2012-03-25T12:16:46+02:00</time>
      </trkpt>
      <trkpt lat="43.51745" lon="6.91359">
        <ele>102.998291</ele>
        <time>2012-03-25T12:16:47+02:00</time>
      </trkpt>
      <trkpt lat="43.51747" lon="6.91342">
        <ele>100.114502</ele>
        <time>2012-03-25T12:16:52+02:00</time>
      </trkpt>
      <trkpt lat="43.51743" lon="6.9133">
        <ele>98.6724854</ele>
        <time>2012-03-25T12:16:55+02:00</time>
      </trkpt>
      <trkpt lat="43.51745" lon="6.9131">
        <ele>95.7884521</ele>
        <time>2012-03-25T12:17:00+02:00</time>
      </trkpt>
      <trkpt lat="43.51749" lon="6.91303">
        <ele>94.8271484</ele>
        <time>2012-03-25T12:17:03+02:00</time>
      </trkpt>
      <trkpt lat="43.51751" lon="6.91302">
        <ele>93.8658447</ele>
        <time>2012-03-25T12:17:04+02:00</time>
      </trkpt>
      <trkpt lat="43.51759" lon="6.91298">
        <ele>96.2692871</ele>
        <time>2012-03-25T12:17:09+02:00</time>
      </trkpt>
      <trkpt lat="43.51761" lon="6.91296">
        <ele>96.7498779</ele>
        <time>2012-03-25T12:17:15+02:00</time>
      </trkpt>
      <trkpt lat="43.51765" lon="6.91293">
        <ele>97.2304688</ele>
        <time>2012-03-25T12:17:21+02:00</time>
      </trkpt>
      <trkpt lat="43.51768" lon="6.91288">
        <ele>96.7498779</ele>
        <time>2012-03-25T12:17:25+02:00</time>
      </trkpt>
      <trkpt lat="43.5177" lon="6.91287">
        <ele>97.2304688</ele>
        <time>2012-03-25T12:17:31+02:00</time>
      </trkpt>
      <trkpt lat="43.51771" lon="6.91287">
        <ele>97.7111816</ele>
        <time>2012-03-25T12:17:40+02:00</time>
      </trkpt>
      <trkpt lat="43.51774" lon="6.91284">
        <ele>97.2304688</ele>
        <time>2012-03-25T12:17:46+02:00</time>
      </trkpt>
      <trkpt lat="43.51773" lon="6.91285">
        <ele>97.7111816</ele>
        <time>2012-03-25T12:17:52+02:00</time>
      </trkpt>
      <trkpt lat="43.51773" lon="6.91286">
        <ele>98.6724854</ele>
        <time>2012-03-25T12:18:02+02:00</time>
      </trkpt>
      <trkpt lat="43.51765" lon="6.91296">
        <ele>99.1530762</ele>
        <time>2012-03-25T12:18:07+02:00</time>
      </trkpt>
      <trkpt lat="43.51765" lon="6.91293">
        <ele>100.114502</ele>
        <time>2012-03-25T12:18:10+02:00</time>
      </trkpt>
      <trkpt lat="43.51769" lon="6.91281">
        <ele>101.075684</ele>
        <time>2012-03-25T12:18:16+02:00</time>
      </trkpt>
      <trkpt lat="43.51774" lon="6.91264">
        <ele>101.556396</ele>
        <time>2012-03-25T12:18:23+02:00</time>
      </trkpt>
      <trkpt lat="43.5178" lon="6.91244">
        <ele>103.479004</ele>
        <time>2012-03-25T12:18:30+02:00</time>
      </trkpt>
      <trkpt lat="43.5178" lon="6.91227">
        <ele>103.959717</ele>
        <time>2012-03-25T12:18:35+02:00</time>
      </trkpt>
      <trkpt lat="43.51779" lon="6.91218">
        <ele>103.479004</ele>
        <time>2012-03-25T12:18:38+02:00</time>
      </trkpt>
      <trkpt lat="43.51783" lon="6.91206">
        <ele>102.5177</ele>
        <time>2012-03-25T12:18:43+02:00</time>
      </trkpt>
      <trkpt lat="43.51786" lon="6.91188">
        <ele>103.479004</ele>
        <time>2012-03-25T12:18:49+02:00</time>
      </trkpt>
      <trkpt lat="43.51785" lon="6.91173">
        <ele>102.037109</ele>
        <time>2012-03-25T12:18:55+02:00</time>
      </trkpt>
      <trkpt lat="43.51786" lon="6.91164">
        <ele>100.114502</ele>
        <time>2012-03-25T12:19:00+02:00</time>
      </trkpt>
      <trkpt lat="43.51788" lon="6.91156">
        <ele>100.595093</ele>
        <time>2012-03-25T12:19:05+02:00</time>
      </trkpt>
      <trkpt lat="43.51787" lon="6.91152">
        <ele>101.075684</ele>
        <time>2012-03-25T12:19:08+02:00</time>
      </trkpt>
      <trkpt lat="43.51789" lon="6.91147">
        <ele>105.401733</ele>
        <time>2012-03-25T12:19:12+02:00</time>
      </trkpt>
      <trkpt lat="43.51789" lon="6.91141">
        <ele>106.363037</ele>
        <time>2012-03-25T12:19:16+02:00</time>
      </trkpt>
      <trkpt lat="43.5179" lon="6.91136">
        <ele>107.324341</ele>
        <time>2012-03-25T12:19:20+02:00</time>
      </trkpt>
      <trkpt lat="43.51788" lon="6.91136">
        <ele>109.246948</ele>
        <time>2012-03-25T12:19:26+02:00</time>
      </trkpt>
      <trkpt lat="43.51784" lon="6.91136">
        <ele>111.169556</ele>
        <time>2012-03-25T12:19:31+02:00</time>
      </trkpt>
      <trkpt lat="43.51781" lon="6.91137">
        <ele>112.611572</ele>
        <time>2012-03-25T12:19:36+02:00</time>
      </trkpt>
      <trkpt lat="43.51777" lon="6.91139">
        <ele>115.014893</ele>
        <time>2012-03-25T12:19:42+02:00</time>
      </trkpt>
      <trkpt lat="43.51773" lon="6.91147">
        <ele>116.9375</ele>
        <time>2012-03-25T12:19:49+02:00</time>
      </trkpt>
      <trkpt lat="43.5177" lon="6.9115">
        <ele>117.418213</ele>
        <time>2012-03-25T12:19:52+02:00</time>
      </trkpt>
      <trkpt lat="43.51765" lon="6.91153">
        <ele>118.379395</ele>
        <time>2012-03-25T12:19:58+02:00</time>
      </trkpt>
      <trkpt lat="43.5176" lon="6.91151">
        <ele>120.782837</ele>
        <time>2012-03-25T12:20:04+02:00</time>
      </trkpt>
      <trkpt lat="43.51756" lon="6.91148">
        <ele>123.186157</ele>
        <time>2012-03-25T12:20:09+02:00</time>
      </trkpt>
      <trkpt lat="43.51752" lon="6.91144">
        <ele>126.069946</ele>
        <time>2012-03-25T12:20:15+02:00</time>
      </trkpt>
      <trkpt lat="43.51749" lon="6.9114">
        <ele>128.473389</ele>
        <time>2012-03-25T12:20:20+02:00</time>
      </trkpt>
      <trkpt lat="43.51747" lon="6.91133">
        <ele>129.434692</ele>
        <time>2012-03-25T12:20:26+02:00</time>
      </trkpt>
      <trkpt lat="43.51747" lon="6.91131">
        <ele>129.434692</ele>
        <time>2012-03-25T12:20:32+02:00</time>
      </trkpt>
      <trkpt lat="43.51747" lon="6.91132">
        <ele>130.395996</ele>
        <time>2012-03-25T12:20:39+02:00</time>
      </trkpt>
      <trkpt lat="43.51746" lon="6.91127">
        <ele>131.837891</ele>
        <time>2012-03-25T12:20:50+02:00</time>
      </trkpt>
      <trkpt lat="43.51746" lon="6.91115">
        <ele>130.395996</ele>
        <time>2012-03-25T12:20:57+02:00</time>
      </trkpt>
      <trkpt lat="43.51744" lon="6.91113">
        <ele>130.395996</ele>
        <time>2012-03-25T12:20:59+02:00</time>
      </trkpt>
      <trkpt lat="43.51737" lon="6.91099">
        <ele>128.473389</ele>
        <time>2012-03-25T12:21:06+02:00</time>
      </trkpt>
      <trkpt lat="43.51723" lon="6.91087">
        <ele>126.069946</ele>
        <time>2012-03-25T12:21:11+02:00</time>
      </trkpt>
      <trkpt lat="43.51712" lon="6.91083">
        <ele>123.666748</ele>
        <time>2012-03-25T12:21:15+02:00</time>
      </trkpt>
      <trkpt lat="43.51694" lon="6.91083">
        <ele>122.224731</ele>
        <time>2012-03-25T12:21:21+02:00</time>
      </trkpt>
      <trkpt lat="43.5168" lon="6.91075">
        <ele>121.26355</ele>
        <time>2012-03-25T12:21:26+02:00</time>
      </trkpt>
      <trkpt lat="43.51669" lon="6.91066">
        <ele>120.782837</ele>
        <time>2012-03-25T12:21:30+02:00</time>
      </trkpt>
      <trkpt lat="43.51658" lon="6.91057">
        <ele>120.302124</ele>
        <time>2012-03-25T12:21:34+02:00</time>
      </trkpt>
      <trkpt lat="43.51646" lon="6.91049">
        <ele>119.34082</ele>
        <time>2012-03-25T12:21:38+02:00</time>
      </trkpt>
      <trkpt lat="43.51629" lon="6.91046">
        <ele>117.898804</ele>
        <time>2012-03-25T12:21:43+02:00</time>
      </trkpt>
      <trkpt lat="43.51614" lon="6.91057">
        <ele>115.014893</ele>
        <time>2012-03-25T12:21:48+02:00</time>
      </trkpt>
      <trkpt lat="43.51603" lon="6.91067">
        <ele>113.572998</ele>
        <time>2012-03-25T12:21:52+02:00</time>
      </trkpt>
      <trkpt lat="43.51585" lon="6.91082">
        <ele>110.208252</ele>
        <time>2012-03-25T12:21:58+02:00</time>
      </trkpt>
      <trkpt lat="43.51569" lon="6.91099">
        <ele>107.805054</ele>
        <time>2012-03-25T12:22:04+02:00</time>
      </trkpt>
      <trkpt lat="43.51559" lon="6.91118">
        <ele>106.363037</ele>
        <time>2012-03-25T12:22:09+02:00</time>
      </trkpt>
      <trkpt lat="43.5155" lon="6.9114">
        <ele>105.401733</ele>
        <time>2012-03-25T12:22:14+02:00</time>
      </trkpt>
      <trkpt lat="43.5154" lon="6.91159">
        <ele>103.959717</ele>
        <time>2012-03-25T12:22:19+02:00</time>
      </trkpt>
      <trkpt lat="43.51529" lon="6.91174">
        <ele>102.5177</ele>
        <time>2012-03-25T12:22:23+02:00</time>
      </trkpt>
      <trkpt lat="43.51515" lon="6.91192">
        <ele>102.5177</ele>
        <time>2012-03-25T12:22:28+02:00</time>
      </trkpt>
      <trkpt lat="43.51499" lon="6.91209">
        <ele>100.595093</ele>
        <time>2012-03-25T12:22:34+02:00</time>
      </trkpt>
      <trkpt lat="43.51484" lon="6.91226">
        <ele>98.6724854</ele>
        <time>2012-03-25T12:22:39+02:00</time>
      </trkpt>
      <trkpt lat="43.51468" lon="6.91232">
        <ele>96.7498779</ele>
        <time>2012-03-25T12:22:44+02:00</time>
      </trkpt>
      <trkpt lat="43.51452" lon="6.91231">
        <ele>95.3077393</ele>
        <time>2012-03-25T12:22:49+02:00</time>
      </trkpt>
      <trkpt lat="43.51435" lon="6.91227">
        <ele>94.3465576</ele>
        <time>2012-03-25T12:22:54+02:00</time>
      </trkpt>
      <trkpt lat="43.51422" lon="6.91227">
        <ele>92.904541</ele>
        <time>2012-03-25T12:22:58+02:00</time>
      </trkpt>
      <trkpt lat="43.51408" lon="6.9123">
        <ele>92.904541</ele>
        <time>2012-03-25T12:23:02+02:00</time>
      </trkpt>
      <trkpt lat="43.51391" lon="6.91235">
        <ele>91.9432373</ele>
        <time>2012-03-25T12:23:07+02:00</time>
      </trkpt>
      <trkpt lat="43.51378" lon="6.91239">
        <ele>90.5013428</ele>
        <time>2012-03-25T12:23:11+02:00</time>
      </trkpt>
      <trkpt lat="43.51362" lon="6.91241">
        <ele>88.0980225</ele>
        <time>2012-03-25T12:23:16+02:00</time>
      </trkpt>
      <trkpt lat="43.51348" lon="6.91241">
        <ele>86.6560059</ele>
        <time>2012-03-25T12:23:20+02:00</time>
      </trkpt>
      <trkpt lat="43.51336" lon="6.91249">
        <ele>84.7333984</ele>
        <time>2012-03-25T12:23:24+02:00</time>
      </trkpt>
      <trkpt lat="43.51333" lon="6.9125">
        <ele>83.7719727</ele>
        <time>2012-03-25T12:23:25+02:00</time>
      </trkpt>
      <trkpt lat="43.51326" lon="6.9127">
        <ele>83.7719727</ele>
        <time>2012-03-25T12:23:30+02:00</time>
      </trkpt>
      <trkpt lat="43.51324" lon="6.91298">
        <ele>82.810791</ele>
        <time>2012-03-25T12:23:35+02:00</time>
      </trkpt>
      <trkpt lat="43.51322" lon="6.91319">
        <ele>80.8881836</ele>
        <time>2012-03-25T12:23:39+02:00</time>
      </trkpt>
      <trkpt lat="43.51322" lon="6.91324">
        <ele>80.4074707</ele>
        <time>2012-03-25T12:23:40+02:00</time>
      </trkpt>
      <trkpt lat="43.51321" lon="6.91352">
        <ele>76.5621338</ele>
        <time>2012-03-25T12:23:45+02:00</time>
      </trkpt>
      <trkpt lat="43.51321" lon="6.91357">
        <ele>75.6008301</ele>
        <time>2012-03-25T12:23:46+02:00</time>
      </trkpt>
      <trkpt lat="43.51325" lon="6.91384">
        <ele>70.3134766</ele>
        <time>2012-03-25T12:23:51+02:00</time>
      </trkpt>
      <trkpt lat="43.51331" lon="6.91407">
        <ele>66.4682617</ele>
        <time>2012-03-25T12:23:55+02:00</time>
      </trkpt>
      <trkpt lat="43.51337" lon="6.91435">
        <ele>62.142334</ele>
        <time>2012-03-25T12:24:00+02:00</time>
      </trkpt>
      <trkpt lat="43.5134" lon="6.91447">
        <ele>61.1810303</ele>
        <time>2012-03-25T12:24:02+02:00</time>
      </trkpt>
      <trkpt lat="43.51349" lon="6.91483">
        <ele>55.8937988</ele>
        <time>2012-03-25T12:24:09+02:00</time>
      </trkpt>
      <trkpt lat="43.51353" lon="6.91485">
        <ele>54.932373</ele>
        <time>2012-03-25T12:24:12+02:00</time>
      </trkpt>
      <trkpt lat="43.51352" lon="6.91486">
        <ele>55.4130859</ele>
        <time>2012-03-25T12:24:13+02:00</time>
      </trkpt>
      <trkpt lat="43.51348" lon="6.91494">
        <ele>55.4130859</ele>
        <time>2012-03-25T12:24:17+02:00</time>
      </trkpt>
      <trkpt lat="43.51346" lon="6.91505">
        <ele>58.2971191</ele>
        <time>2012-03-25T12:24:22+02:00</time>
      </trkpt>
      <trkpt lat="43.51344" lon="6.91505">
        <ele>61.1810303</ele>
        <time>2012-03-25T12:24:29+02:00</time>
      </trkpt>
      <trkpt lat="43.51344" lon="6.91506">
        <ele>63.1036377</ele>
        <time>2012-03-25T12:24:37+02:00</time>
      </trkpt>
      <trkpt lat="43.51342" lon="6.91505">
        <ele>63.5843506</ele>
        <time>2012-03-25T12:24:42+02:00</time>
      </trkpt>
      <trkpt lat="43.51342" lon="6.91505">
        <ele>63.5843506</ele>
        <time>2012-03-25T12:24:43+02:00</time>
      </trkpt>
    </trkseg>
  </trk>
</gpx>